[[{"header":{"parameterUnit":"m.s-1","parameterCategory":1,"la1":30.6,"la2":29.2853,"lo1":-89.7004,"lo2":-87.6739,"dy":0.0162,"dx":0.0183,"nx":112,"ny":82,"refTime":"2026-04-14T00:00:00:Z","depth":0,"parameterNumber":2,"parameterNumberName":"U-component_of_WINDS"},"data":[0.0,0.0,0.0,0.0,0.0,0.0,0.0,0.0,0.0,0.0,0.0,0.0,0.0,0.0,0.0,0.0,0.0,0.0,0.0,0.0,0.0,0.0,0.0,0.0,0.0,0.0,0.0,0.0,0.0,0.0,0.0,0.0,0.0,0.0,0.0,0.0,0.0,0.0,0.0,0.0,0.0,0.0,0.0,0.0,0.0,0.0,0.0,0.0,0.0,0.0,0.0,0.0,0.0,0.0,0.0,0.0,0.0,0.0,0.0,0.0,0.0,0.0,0.0,0.0,0.0,0.0,0.0,0.0,0.0,0.0,0.0,0.0,0.0,0.0,0.0,0.0,0.0,0.0,0.0,0.0,0.0,0.0,0.0,0.0,0.0,0.0,0.0,0.0,0.0,0.0,-4.0154,-4.138,-4.2034,-4.2749,-4.3627,-4.1988,-4.0231,-3.8708,0.0,0.0,0.0,0.0,0.0,0.0,0.0,0.0,0.0,0.0,0.0,0.0,0.0,0.0,0.0,0.0,0.0,0.0,0.0,0.0,0.0,0.0,0.0,0.0,0.0,0.0,0.0,0.0,0.0,0.0,0.0,0.0,0.0,0.0,0.0,0.0,0.0,0.0,0.0,0.0,0.0,0.0,0.0,0.0,0.0,0.0,0.0,0.0,0.0,0.0,0.0,0.0,0.0,0.0,0.0,0.0,0.0,0.0,0.0,0.0,0.0,0.0,0.0,0.0,0.0,0.0,0.0,0.0,0.0,0.0,0.0,0.0,0.0,0.0,0.0,0.0,0.0,0.0,0.0,0.0,0.0,0.0,0.0,0.0,0.0,0.0,0.0,0.0,0.0,0.0,0.0,0.0,0.0,0.0,0.0,0.0,0.0,0.0,0.0,0.0,0.0,0.0,0.0,0.0,-3.996,-4.2982,-4.2761,-4.2755,-4.3627,-4.142,-3.9605,-3.8669,0.0,0.0,0.0,0.0,0.0,0.0,0.0,0.0,0.0,0.0,0.0,0.0,0.0,0.0,0.0,0.0,0.0,0.0,0.0,0.0,0.0,0.0,0.0,0.0,0.0,0.0,0.0,0.0,0.0,0.0,0.0,0.0,0.0,0.0,0.0,0.0,0.0,0.0,0.0,0.0,0.0,0.0,0.0,0.0,0.0,0.0,0.0,0.0,0.0,0.0,0.0,0.0,0.0,0.0,0.0,0.0,0.0,0.0,0.0,0.0,0.0,0.0,0.0,0.0,0.0,0.0,0.0,0.0,0.0,0.0,0.0,0.0,0.0,0.0,0.0,0.0,0.0,0.0,0.0,0.0,0.0,0.0,0.0,0.0,0.0,0.0,0.0,0.0,0.0,0.0,0.0,0.0,0.0,0.0,0.0,0.0,0.0,0.0,0.0,0.0,0.0,0.0,0.0,-4.0,-4.1092,-4.4095,-4.3621,-4.3264,-4.3666,-4.1732,-3.9958,-3.8689,-3.8564,0.0,0.0,0.0,0.0,0.0,0.0,0.0,0.0,0.0,0.0,0.0,0.0,0.0,0.0,0.0,0.0,0.0,0.0,0.0,0.0,0.0,0.0,0.0,0.0,0.0,0.0,0.0,0.0,0.0,0.0,0.0,0.0,0.0,0.0,0.0,0.0,0.0,0.0,0.0,0.0,0.0,0.0,0.0,0.0,0.0,0.0,0.0,0.0,0.0,0.0,0.0,0.0,0.0,0.0,0.0,0.0,0.0,0.0,0.0,0.0,0.0,0.0,0.0,0.0,0.0,0.0,0.0,0.0,0.0,0.0,0.0,0.0,0.0,0.0,0.0,0.0,0.0,0.0,0.0,0.0,0.0,0.0,0.0,0.0,0.0,0.0,0.0,0.0,0.0,0.0,0.0,0.0,0.0,0.0,0.0,0.0,0.0,0.0,0.0,0.0,0.0,0.0,-4.1757,-4.2556,-4.4759,-4.4229,-4.3696,-4.3705,-4.191,-4.0172,-3.8689,-3.8415,0.0,0.0,0.0,0.0,0.0,0.0,0.0,0.0,0.0,0.0,0.0,0.0,0.0,0.0,0.0,0.0,0.0,0.0,0.0,0.0,0.0,0.0,0.0,0.0,0.0,0.0,0.0,0.0,0.0,0.0,0.0,0.0,0.0,0.0,0.0,0.0,0.0,0.0,0.0,0.0,0.0,0.0,0.0,0.0,0.0,0.0,0.0,0.0,0.0,0.0,0.0,0.0,0.0,0.0,0.0,0.0,0.0,0.0,0.0,0.0,0.0,0.0,0.0,0.0,0.0,0.0,0.0,0.0,0.0,0.0,0.0,0.0,0.0,0.0,0.0,0.0,0.0,0.0,0.0,0.0,0.0,0.0,0.0,0.0,0.0,0.0,0.0,0.0,0.0,0.0,0.0,0.0,0.0,0.0,0.0,0.0,0.0,0.0,0.0,0.0,0.0,0.0,-4.209,-4.3905,-4.4896,-4.4212,-4.37,-4.3705,-4.1361,-3.9527,-3.865,-3.7849,0.0,0.0,0.0,0.0,0.0,0.0,0.0,0.0,0.0,0.0,0.0,0.0,0.0,0.0,0.0,0.0,0.0,0.0,0.0,0.0,0.0,0.0,0.0,0.0,0.0,0.0,0.0,0.0,0.0,0.0,0.0,0.0,0.0,0.0,0.0,0.0,0.0,0.0,0.0,0.0,0.0,0.0,0.0,0.0,0.0,0.0,0.0,0.0,0.0,0.0,0.0,0.0,0.0,0.0,0.0,0.0,0.0,0.0,0.0,0.0,0.0,0.0,0.0,0.0,0.0,0.0,0.0,0.0,0.0,0.0,0.0,0.0,0.0,0.0,0.0,0.0,0.0,0.0,0.0,0.0,0.0,0.0,0.0,0.0,0.0,0.0,0.0,0.0,0.0,0.0,0.0,0.0,0.0,0.0,0.0,0.0,0.0,0.0,0.0,0.0,0.0,0.0,-4.2305,-4.3437,-4.4841,-4.4214,-4.3488,-4.2932,-4.1482,-4.0036,-3.8689,0.0,0.0,0.0,0.0,0.0,0.0,0.0,0.0,0.0,0.0,0.0,0.0,0.0,0.0,0.0,0.0,0.0,0.0,0.0,0.0,0.0,0.0,0.0,0.0,0.0,0.0,0.0,0.0,0.0,0.0,0.0,0.0,0.0,0.0,0.0,0.0,0.0,0.0,0.0,0.0,0.0,0.0,0.0,0.0,0.0,0.0,0.0,0.0,0.0,0.0,0.0,0.0,0.0,0.0,0.0,0.0,0.0,0.0,0.0,0.0,0.0,0.0,0.0,0.0,0.0,0.0,0.0,0.0,0.0,0.0,0.0,0.0,0.0,0.0,0.0,0.0,0.0,0.0,0.0,0.0,0.0,0.0,0.0,0.0,0.0,0.0,0.0,0.0,0.0,0.0,0.0,0.0,0.0,0.0,0.0,0.0,0.0,0.0,0.0,0.0,0.0,0.0,-4.1641,-4.248,-4.3379,-4.4842,-4.4215,-4.3353,-4.2469,-4.1116,-3.9707,-3.8283,0.0,0.0,0.0,0.0,0.0,0.0,0.0,0.0,0.0,0.0,0.0,0.0,0.0,0.0,0.0,0.0,0.0,0.0,0.0,0.0,0.0,0.0,0.0,0.0,0.0,0.0,0.0,0.0,0.0,0.0,0.0,0.0,0.0,0.0,0.0,0.0,0.0,0.0,0.0,0.0,0.0,0.0,0.0,0.0,0.0,0.0,0.0,0.0,0.0,0.0,0.0,0.0,0.0,0.0,0.0,0.0,0.0,0.0,0.0,0.0,0.0,0.0,0.0,0.0,0.0,0.0,0.0,0.0,0.0,0.0,0.0,0.0,0.0,0.0,0.0,0.0,0.0,0.0,0.0,0.0,0.0,0.0,0.0,0.0,0.0,0.0,0.0,0.0,0.0,0.0,0.0,0.0,0.0,0.0,0.0,0.0,0.0,0.0,0.0,0.0,0.0,0.0,-4.0957,-4.2656,-4.4004,-4.4881,-4.4197,-4.3337,-4.2454,-4.0068,-3.825,0.0,0.0,0.0,0.0,0.0,0.0,0.0,0.0,0.0,0.0,0.0,0.0,0.0,0.0,0.0,0.0,0.0,0.0,0.0,0.0,0.0,0.0,0.0,0.0,0.0,0.0,0.0,0.0,0.0,0.0,0.0,0.0,0.0,0.0,0.0,0.0,0.0,0.0,0.0,0.0,0.0,0.0,0.0,0.0,0.0,0.0,0.0,0.0,0.0,0.0,0.0,0.0,0.0,0.0,0.0,0.0,0.0,0.0,0.0,0.0,0.0,0.0,0.0,0.0,0.0,0.0,0.0,0.0,0.0,0.0,0.0,0.0,0.0,0.0,0.0,0.0,0.0,0.0,0.0,0.0,0.0,0.0,0.0,0.0,0.0,0.0,0.0,0.0,0.0,0.0,0.0,0.0,0.0,0.0,0.0,0.0,0.0,0.0,0.0,0.0,0.0,0.0,0.0,-3.9987,-4.1687,-4.2802,-4.3077,-4.291,-4.2439,-4.1559,-4.0267,-3.8878,-3.7391,0.0,0.0,0.0,0.0,0.0,0.0,0.0,0.0,0.0,0.0,0.0,0.0,0.0,0.0,0.0,0.0,0.0,0.0,0.0,0.0,0.0,0.0,0.0,0.0,0.0,0.0,0.0,0.0,0.0,0.0,0.0,0.0,0.0,0.0,0.0,0.0,0.0,0.0,0.0,0.0,0.0,0.0,0.0,0.0,0.0,0.0,0.0,0.0,0.0,0.0,0.0,0.0,0.0,0.0,0.0,0.0,0.0,0.0,0.0,0.0,0.0,0.0,0.0,0.0,0.0,0.0,0.0,0.0,0.0,0.0,0.0,0.0,0.0,0.0,0.0,0.0,0.0,0.0,0.0,0.0,0.0,0.0,0.0,0.0,0.0,0.0,0.0,0.0,0.0,0.0,0.0,0.0,0.0,0.0,0.0,0.0,0.0,0.0,0.0,0.0,0.0,0.0,-3.9058,-4.1009,-4.2258,-4.2258,-4.2303,-4.1982,-4.1123,-3.9974,-3.8552,-3.6815,0.0,0.0,0.0,0.0,0.0,0.0,0.0,0.0,0.0,0.0,0.0,0.0,0.0,0.0,0.0,0.0,0.0,0.0,0.0,0.0,0.0,0.0,0.0,0.0,0.0,0.0,0.0,0.0,0.0,0.0,0.0,0.0,0.0,0.0,0.0,0.0,0.0,0.0,0.0,0.0,0.0,0.0,0.0,0.0,0.0,0.0,0.0,0.0,0.0,0.0,0.0,0.0,0.0,0.0,0.0,0.0,0.0,0.0,0.0,0.0,0.0,0.0,0.0,0.0,0.0,0.0,0.0,0.0,0.0,0.0,0.0,0.0,0.0,0.0,0.0,0.0,0.0,0.0,0.0,0.0,0.0,0.0,0.0,0.0,0.0,0.0,0.0,0.0,0.0,0.0,0.0,0.0,0.0,0.0,0.0,0.0,0.0,0.0,0.0,0.0,0.0,0.0,-3.8269,-4.0542,-4.2078,-4.2078,-4.2085,-4.1792,-4.1068,-3.9405,-3.7661,-3.5909,0.0,0.0,0.0,0.0,0.0,0.0,0.0,0.0,0.0,0.0,0.0,0.0,0.0,0.0,0.0,0.0,0.0,0.0,0.0,0.0,0.0,0.0,0.0,0.0,0.0,0.0,0.0,0.0,0.0,0.0,0.0,0.0,0.0,0.0,0.0,0.0,0.0,0.0,0.0,0.0,0.0,0.0,0.0,0.0,0.0,0.0,0.0,0.0,0.0,0.0,0.0,0.0,0.0,0.0,0.0,0.0,0.0,0.0,0.0,0.0,-4.3105,-4.2246,0.0,0.0,0.0,0.0,0.0,0.0,0.0,0.0,0.0,0.0,0.0,0.0,0.0,0.0,0.0,0.0,0.0,0.0,0.0,0.0,0.0,0.0,0.0,0.0,0.0,0.0,0.0,0.0,0.0,0.0,0.0,0.0,0.0,0.0,0.0,0.0,0.0,0.0,0.0,0.0,-3.8116,-3.9987,-4.1172,-4.1172,-4.1213,-4.1188,-4.101,-3.9396,-3.7651,-3.5907,-3.3583,0.0,0.0,0.0,0.0,0.0,0.0,0.0,0.0,0.0,0.0,0.0,0.0,0.0,0.0,0.0,0.0,0.0,0.0,0.0,0.0,0.0,0.0,0.0,0.0,0.0,0.0,0.0,0.0,0.0,0.0,0.0,0.0,0.0,0.0,0.0,0.0,0.0,0.0,0.0,0.0,0.0,0.0,0.0,0.0,0.0,0.0,0.0,0.0,0.0,0.0,0.0,0.0,0.0,0.0,0.0,0.0,0.0,0.0,0.0,-4.4609,-4.3887,0.0,0.0,0.0,0.0,0.0,0.0,0.0,0.0,0.0,0.0,0.0,0.0,0.0,0.0,0.0,0.0,0.0,0.0,0.0,0.0,0.0,0.0,0.0,0.0,0.0,0.0,0.0,0.0,0.0,0.0,0.0,0.0,0.0,0.0,0.0,0.0,0.0,0.0,0.0,0.0,-3.693,-3.9281,-4.0851,-4.0851,-4.0883,-4.0737,-4.0314,-3.9067,-3.74,-3.5259,-3.3518,0.0,0.0,0.0,0.0,0.0,0.0,0.0,0.0,0.0,0.0,0.0,0.0,0.0,0.0,0.0,0.0,0.0,0.0,0.0,0.0,0.0,0.0,0.0,0.0,0.0,0.0,0.0,0.0,0.0,0.0,0.0,0.0,0.0,0.0,0.0,0.0,0.0,0.0,0.0,0.0,0.0,0.0,0.0,0.0,0.0,0.0,0.0,0.0,0.0,0.0,0.0,0.0,0.0,-4.7441,-4.7812,-4.6992,-4.7734,-4.8047,-4.7969,-4.6523,-4.6133,-4.6406,-4.4805,0.0,0.0,0.0,0.0,0.0,0.0,0.0,0.0,0.0,0.0,0.0,0.0,0.0,0.0,0.0,0.0,0.0,0.0,0.0,0.0,0.0,0.0,-4.0242,-3.9474,-3.9607,-3.9536,-3.8148,0.0,0.0,0.0,0.0,0.0,0.0,0.0,0.0,0.0,0.0,0.0,-3.6091,-3.8882,-4.0797,-4.0797,-4.0797,-4.0448,-3.9578,-3.8702,-3.7174,-3.4781,-3.3571,-3.1697,0.0,0.0,0.0,0.0,0.0,0.0,0.0,0.0,0.0,0.0,0.0,0.0,0.0,0.0,0.0,0.0,0.0,0.0,0.0,0.0,0.0,0.0,0.0,0.0,0.0,0.0,0.0,0.0,0.0,0.0,0.0,0.0,-4.1674,-4.0151,0.0,0.0,0.0,0.0,0.0,0.0,0.0,0.0,0.0,0.0,0.0,0.0,0.0,-4.4425,-4.5949,-4.7571,-4.8393,-4.8416,-5.0096,-5.0468,-4.9687,-4.9805,-4.9863,-4.9844,-4.9609,0.0,-4.7344,-4.6367,0.0,0.0,0.0,0.0,0.0,0.0,0.0,0.0,0.0,0.0,0.0,0.0,0.0,0.0,0.0,0.0,0.0,0.0,0.0,0.0,0.0,0.0,-4.2971,-4.2857,-4.1754,-4.0673,-4.0453,-3.8061,-3.5641,-3.4547,-3.4432,-3.391,0.0,0.0,0.0,0.0,0.0,0.0,-3.7671,-3.9591,-4.0797,-4.0797,-4.0797,-4.0448,-3.9578,-3.8702,-3.7444,-3.5646,-3.3296,-3.1773,-3.1332,-2.8677,0.0,0.0,0.0,0.0,0.0,0.0,0.0,0.0,0.0,0.0,0.0,0.0,0.0,0.0,0.0,0.0,0.0,0.0,0.0,0.0,0.0,0.0,0.0,0.0,0.0,0.0,0.0,0.0,0.0,-4.0619,-4.1323,-4.0562,-4.1506,-4.1542,0.0,0.0,0.0,0.0,0.0,0.0,0.0,0.0,0.0,-4.5496,-4.564,-4.627,-4.7512,-4.8785,-4.9441,-4.9522,-5.0713,-5.1136,-5.0876,-5.0876,-5.0877,-5.0878,-5.0878,-5.0449,-4.9609,-4.7773,-4.6523,-4.5605,0.0,0.0,0.0,0.0,-4.3272,-4.2684,-4.3624,-4.3368,-4.2588,-4.2448,0.0,0.0,0.0,0.0,0.0,0.0,0.0,-4.1041,-4.1461,-4.25,-4.332,-4.2782,-4.2457,-4.1997,-4.1048,-3.9277,-3.7477,-3.6114,-3.5854,-3.5151,-3.2962,-3.2556,0.0,0.0,0.0,-3.6826,-3.8038,-3.9727,-4.0797,-4.0797,-4.0352,-3.9713,-3.8837,-3.7967,-3.6748,-3.509,-3.3886,-3.2628,-3.1178,-3.0129,-2.9027,0.0,0.0,0.0,0.0,0.0,0.0,0.0,0.0,0.0,0.0,0.0,0.0,0.0,0.0,0.0,0.0,0.0,0.0,0.0,0.0,0.0,0.0,0.0,0.0,0.0,0.0,0.0,0.0,-4.1159,-4.1754,-4.133,-4.2343,-4.2218,0.0,0.0,0.0,0.0,0.0,0.0,-4.4186,-4.4273,-4.539,-4.7739,-4.7847,-4.8277,-4.9135,-4.9787,-5.0155,-5.0267,-5.0851,-5.1216,-5.1314,-5.1314,-5.132,-5.1327,-5.1327,-5.131,-5.116,-4.91,-4.7754,-4.6816,-4.5272,-4.4549,-4.4411,-4.499,-4.4799,-4.4421,-4.5667,-4.5519,-4.4702,-4.4289,-4.3685,-4.2756,-4.0801,0.0,0.0,0.0,0.0,-4.1286,-4.189,-4.2532,-4.2902,-4.2409,-4.2621,-4.2601,-4.1345,-4.0404,-3.9341,-3.7851,-3.7386,-3.6568,-3.4431,-3.4063,0.0,-3.4047,-3.585,-3.7518,-3.8394,-3.9637,-4.0455,-4.0468,-3.9688,-3.8812,-3.7936,-3.7272,-3.6248,-3.4809,-3.4499,-3.3532,-3.1642,-3.1487,-3.0351,-2.8028,0.0,0.0,0.0,0.0,0.0,0.0,0.0,0.0,0.0,0.0,0.0,0.0,0.0,0.0,0.0,0.0,0.0,0.0,0.0,0.0,0.0,0.0,0.0,0.0,0.0,0.0,0.0,0.0,0.0,-4.2228,-4.4219,0.0,0.0,0.0,0.0,-4.3125,-4.3959,-4.5155,-4.674,-4.6933,-4.7766,-4.9439,-4.9601,-5.007,-5.0872,-5.093,-5.0948,-5.0947,-5.0986,-5.104,-5.1128,-5.1128,-5.1128,-5.1128,-5.1128,-5.1128,-5.1049,-5.0356,-4.9551,-4.8672,-4.7681,-4.6791,-4.6064,-4.6053,-4.6008,-4.5988,-4.6063,-4.5484,-4.4841,-4.5618,-4.4147,-4.206,-4.1912,-4.1254,0.0,0.0,-4.1228,-4.1856,-4.1902,-4.194,-4.2172,-4.2956,-4.2551,-4.1952,-4.1856,-4.1161,-4.0307,-3.9527,-3.8702,-3.7839,-3.6862,0.0,-3.669,-3.6614,-3.7437,-3.8337,-3.9226,-3.9425,-3.9496,-3.9559,-3.8793,-3.7905,-3.7036,-3.687,-3.6446,-3.5587,-3.4756,-3.4284,-3.422,-3.1802,-3.0788,-3.1444,-2.8345,0.0,0.0,0.0,0.0,0.0,0.0,0.0,0.0,0.0,0.0,0.0,0.0,0.0,0.0,0.0,0.0,0.0,0.0,0.0,0.0,0.0,0.0,0.0,0.0,0.0,0.0,0.0,0.0,-4.373,-4.5365,0.0,-4.3279,-4.4631,-4.5403,-4.4824,-4.6071,-4.7339,-4.8484,-4.8602,-4.9131,-5.0275,-5.0355,-5.0767,-5.1578,-5.1578,-5.1887,-5.2533,-5.1971,-5.1774,-5.1847,-5.1289,-5.1047,-5.1049,-5.1049,-5.1059,-5.1079,-5.0867,-5.0277,-4.9385,-4.8532,-4.769,-4.6904,-4.6826,-4.6479,-4.6027,-4.5936,-4.5685,-4.5467,-4.5777,-4.4472,-4.2767,-4.2779,-4.2153,-4.1437,-4.1477,-4.2088,-4.2729,-4.2736,-4.2736,-4.2678,-4.2428,-4.2138,-4.1752,-4.1174,-4.0826,-4.0524,-4.0262,-3.9541,-3.8704,-3.7823,-3.7668,-3.7662,-3.7649,-3.79,-3.8414,-3.9296,-3.891,-3.8569,-3.8608,-3.7823,-3.7173,-3.6864,-3.6337,-3.5912,-3.5616,-3.4786,-3.4058,-3.3528,-3.2086,-3.0854,-2.992,-2.9255,-2.8216,0.0,0.0,0.0,0.0,0.0,0.0,0.0,0.0,0.0,0.0,0.0,0.0,0.0,0.0,0.0,0.0,0.0,0.0,0.0,0.0,0.0,0.0,0.0,0.0,0.0,-4.3369,-4.5318,-4.5318,-4.6744,-4.7067,-4.5336,-4.6471,-4.7182,-4.6903,-4.7913,-4.8913,-4.9779,-4.9837,-5.0087,-5.0673,-5.0952,-5.1356,-5.1885,-5.2192,-5.2666,-5.3337,-5.2758,-5.2354,-5.2155,-5.1574,-5.117,-5.0907,-5.0907,-5.092,-5.0979,-5.0972,-5.0616,-5.0039,-4.9264,-4.8434,-4.7626,-4.726,-4.6791,-4.628,-4.5896,-4.5764,-4.5725,-4.5425,-4.4561,-4.3542,-4.3277,-4.2772,-4.2248,-4.1974,-4.2302,-4.2653,-4.2371,-4.2294,-4.214,-4.1562,-4.1427,-4.1273,-4.0687,-4.034,-4.0167,-4.0167,-3.9976,-3.9616,-3.9043,-3.894,-3.8844,-3.8541,-3.8509,-3.8612,-3.8915,-3.8202,-3.7662,-3.7662,-3.6878,-3.6331,-3.6265,-3.5764,-3.5435,-3.5381,-3.4574,-3.3851,-3.3262,-3.216,-3.0963,-2.966,-2.9622,-2.8627,-2.6602,0.0,0.0,0.0,0.0,0.0,0.0,0.0,0.0,0.0,0.0,0.0,0.0,0.0,0.0,0.0,0.0,0.0,0.0,0.0,0.0,0.0,0.0,0.0,-4.3003,-4.5329,-4.6942,-4.6962,-4.8432,-4.8798,-4.7135,-4.7721,-4.8529,-4.9336,-4.9433,-4.9798,-5.0654,-5.0712,-5.0712,-5.0712,-5.1471,-5.1885,-5.1942,-5.2779,-5.3241,-5.328,-5.3241,-5.276,-5.1942,-5.1885,-5.1433,-5.0712,-5.0712,-5.0712,-5.0693,-5.0702,-5.0701,-5.0642,-4.9996,-4.9207,-4.8327,-4.7388,-4.7003,-4.683,-4.5989,-4.5708,-4.5565,-4.4727,-4.4415,-4.4245,-4.3435,-4.3138,-4.2882,-4.2075,-4.1809,-4.1566,-4.0727,-4.0496,-4.0496,-4.0496,-4.0496,-4.0496,-4.0496,-3.9881,-3.9304,-3.9304,-3.9959,-4.0516,-4.0518,-4.053,-4.0226,-3.9381,-3.9246,0.0,-3.8141,-3.7287,-3.6754,-3.6736,-3.5997,-3.5397,-3.5216,-3.516,-3.5066,-3.4868,-3.408,-3.3612,-3.3617,-3.1967,-3.1065,-3.1056,-2.9368,-2.8137,-2.7421,0.0,0.0,0.0,0.0,0.0,0.0,0.0,0.0,0.0,0.0,0.0,0.0,0.0,0.0,0.0,0.0,0.0,0.0,0.0,0.0,0.0,-4.1415,-4.3579,-4.3853,-4.6081,-4.7923,-4.8577,-4.9605,-4.9846,-4.8817,-4.9471,-4.9817,-4.9433,-4.999,-5.0462,-5.0693,-5.0712,-5.0712,-5.0712,-5.0914,-5.1606,-5.2837,-5.3087,-5.3818,-5.4991,-5.378,-5.3068,-5.2799,-5.1587,-5.0914,-5.0712,-5.0712,-5.0712,-5.0693,-5.0702,-5.0712,-5.0683,-5.0548,-4.9953,-4.9095,-4.8243,-4.7147,-4.6008,-4.5785,-4.5708,-4.5661,-4.5417,-4.4919,-4.4248,-4.3396,-4.2659,-4.1989,-4.112,-4.087,-4.0804,-4.0554,-4.0496,-4.0496,-4.0496,-4.0496,-4.0496,-4.0496,-3.9881,-3.9304,-3.9304,-3.8972,-3.871,-3.8722,-3.8715,-3.8638,-3.8392,-3.7815,-3.7278,-3.691,-3.6139,-3.5583,-3.5429,-3.5212,-3.5053,-3.4991,-3.4393,-3.4014,-3.3959,-3.2612,-3.1805,-3.1813,-3.0793,-3.016,-3.0019,-2.8839,-2.811,0.0,0.0,0.0,0.0,0.0,0.0,0.0,0.0,0.0,0.0,0.0,0.0,0.0,0.0,0.0,0.0,0.0,0.0,0.0,0.0,0.0,0.0,-4.3407,-4.5417,-4.6144,-4.7545,-4.8832,-4.9698,-5.0275,-5.0421,-4.9951,-5.0385,-5.05,-4.9971,-5.0423,-5.0712,-5.0712,-5.0712,-5.0712,-5.0712,-5.1029,-5.1856,-5.3203,-5.3568,-5.4222,-5.5184,-5.4203,-5.3356,-5.2615,-5.1645,-5.101,-5.0712,-5.0712,-5.0712,-5.0712,-5.0712,-5.0712,-5.0693,0.0,0.0,0.0,0.0,-4.7135,-4.5651,-4.5651,-4.5651,-4.5671,-4.5665,-4.5321,-4.4743,-4.3863,-4.3008,-4.2162,-4.1296,-4.0785,-4.0496,-4.0496,-4.0496,-4.0496,-4.0496,-4.0496,-4.0419,-4.0073,-3.9342,-3.8642,-3.8277,-3.7456,0.0,-3.6834,-3.7482,-3.7851,-3.7406,-3.6892,-3.6388,-3.5831,-3.5366,-3.5037,-3.4898,-3.4908,-3.487,-3.4791,-3.4309,0.0,0.0,0.0,-3.1092,-3.0424,-2.9935,0.0,0.0,0.0,0.0,0.0,0.0,0.0,0.0,-2.9343,-2.919,0.0,0.0,0.0,0.0,0.0,0.0,0.0,0.0,0.0,0.0,0.0,0.0,0.0,0.0,0.0,0.0,-4.5573,-4.7322,-4.888,-4.9226,-4.9616,-5.0393,-5.0532,-5.0582,-5.0593,-5.0643,-5.0702,-5.0702,-5.0702,-5.0712,-5.0712,-5.0712,0.0,0.0,0.0,-5.2173,-5.3049,-5.3818,-5.426,-5.4357,-5.4241,-5.3395,-5.1904,-5.1808,-5.1375,-5.0712,-5.0712,-5.0712,-5.0712,-5.0712,-5.0712,-5.0712,-5.0712,-5.0577,-5.0231,-4.8663,-4.7048,-4.5594,-4.5594,0.0,0.0,-4.5594,-4.5594,-4.5441,-4.4566,-4.3739,-4.2912,-4.2047,-4.1162,-4.0496,-4.0496,-4.0496,-4.0496,-4.0496,-4.0496,-4.0285,-3.9477,-3.8596,-3.7716,-3.6844,-3.5852,-3.5176,-3.5176,-3.6557,-3.7333,-3.6375,-3.6235,-3.5907,-3.4974,-3.4879,-3.4851,-3.4821,-3.4821,0.0,-3.4561,-3.4381,-3.3881,-3.292,-3.2017,-3.0883,-2.9452,-2.9396,-2.9396,-2.9396,-3.0196,-3.0604,-3.0604,-3.0697,-3.105,-3.1626,-3.0196,-2.9973,0.0,0.0,0.0,0.0,0.0,0.0,0.0,0.0,0.0,0.0,0.0,0.0,0.0,0.0,0.0,-4.3911,-4.6596,-4.8697,-4.9052,-4.9675,-5.0176,-5.0393,-5.0435,-5.0457,-5.0511,-5.0582,-5.0613,-5.0613,-5.0663,-5.0712,-5.0712,-5.0712,-5.0712,-5.0712,-5.0837,-5.1318,-5.2135,-5.2308,-5.276,-5.3433,-5.2741,0.0,-5.1885,-5.1221,-5.0846,-5.0712,-5.0712,-5.0712,-5.0712,-5.0712,-5.0712,-5.0712,-5.0712,-4.9837,-4.8567,-4.8221,-4.7048,-4.5594,-4.5594,-4.5594,-4.5594,-4.5594,-4.5594,-4.5441,-4.4566,-4.3739,0.0,-4.2047,-4.1162,-4.0496,-4.0496,-4.0496,-4.0496,-4.0496,-4.0496,-4.0285,-3.9477,-3.8492,-3.7494,-3.6624,-3.5651,-3.4964,-3.4964,-3.5267,-3.5437,-3.522,-3.5201,-3.5069,-3.4697,-3.4658,-3.4583,-3.4363,-3.4351,-3.4328,-3.4281,-3.3089,-3.2248,-3.2054,-3.066,-2.9712,-2.9396,-2.9396,-2.9396,-2.9396,-3.0196,-3.0604,-3.0604,-3.1255,-3.131,-3.0827,-3.0511,-3.079,0.0,0.0,0.0,0.0,0.0,0.0,0.0,0.0,0.0,0.0,0.0,-4.0501,-4.1351,0.0,-4.5067,-4.6347,-4.799,-4.9232,-4.9633,-5.0054,-5.0314,-5.0356,-5.039,-5.0412,-5.0446,-5.0511,-5.0553,-5.0593,-5.0623,-5.0653,-5.0712,-5.0712,-5.0712,-5.0712,-5.0712,-5.1087,-5.1885,-5.1904,-5.2115,-5.2538,-5.2115,-5.1692,-5.1298,-5.0875,-5.0712,-5.0712,-5.0712,-5.0712,-5.0712,-5.0712,-5.0712,-5.0712,-5.0712,-4.9625,-4.8105,-4.8105,-4.7048,-4.5594,-4.5594,-4.5594,-4.5594,-4.5594,-4.5594,-4.5518,-4.5075,-4.4085,-4.3008,-4.2566,-4.1508,-4.0496,-4.0496,-4.0496,-4.0496,-4.0496,-4.0496,-4.0127,-3.878,-3.8084,-3.7283,-3.5919,-3.5164,-3.4751,-3.4751,-3.4639,-3.4607,-3.474,-3.4751,-3.4678,-3.442,-3.4386,-3.419,-3.3664,-3.3603,-3.3436,-3.3039,-3.1886,-3.1199,-3.1199,-3.0065,-2.9396,-2.9396,-2.9396,-2.9396,-2.9396,-3.0586,-3.1199,-3.1199,-3.2017,-3.2407,-3.2388,-3.1998,-3.1794,0.0,0.0,0.0,0.0,0.0,0.0,0.0,-3.8514,-3.9527,-3.9699,-4.0941,-4.2393,-4.3739,-4.4838,-4.6252,-4.8487,-4.8995,-4.9366,-5.0187,-5.0302,-5.0302,-5.0302,-5.0337,-5.039,-5.039,-5.0446,-5.0511,-5.0582,-5.0593,-5.0623,-5.0702,-5.0712,-5.0712,-5.0712,-5.0712,-5.101,-5.1654,-5.1673,-5.1673,-5.1673,-5.1673,-5.1337,-5.0712,-5.0712,-5.0712,-5.0712,-5.0712,-5.0712,-5.0712,-5.0712,-5.0712,-5.0673,-5.0519,-4.949,-4.8105,-4.8105,-4.7048,-4.5594,-4.5594,-4.5594,-4.5594,-4.5594,-4.5594,-4.5594,-4.5594,-4.4432,-4.3104,-4.3104,-4.1835,-4.0496,-4.0496,-4.0496,-4.0496,-4.0496,-4.0473,-3.9937,-3.8089,-3.7619,-3.7024,-3.5211,-3.4678,-3.4517,-3.4517,-3.434,-3.4269,-3.4495,-3.4517,-3.445,-3.4221,-3.4048,-3.3714,-3.3076,-3.2871,-3.2444,-3.1645,-3.0976,-3.053,-3.0381,-2.975,-2.9396,-2.9396,-2.9396,-2.9396,-2.9396,-3.0976,-3.1794,-3.1794,-3.276,-3.3503,-3.3956,-3.3287,-3.2741,-3.7808,-3.7636,-3.7674,-3.7597,-3.8228,-3.9221,0.0,-4.1094,-4.1437,-4.2221,-4.31,-4.3777,-4.3968,-4.5286,-4.671,-4.778,-4.8582,-4.9366,-5.0187,-5.0302,-5.0302,-5.0302,-5.0302,-5.0314,-5.0314,-5.0359,-5.0446,-5.0511,-5.0572,-5.0623,-5.0702,-5.0712,-5.0712,-5.0712,-5.0712,-5.075,-5.0827,-5.0827,-5.0827,-5.0827,-5.0827,-5.0789,-5.0712,-5.0712,-5.0712,-5.0712,-5.0712,-5.0712,-5.0712,-5.0712,-5.0712,-5.0616,-4.9856,-4.8952,-4.8105,-4.8105,-4.7048,-4.5594,-4.5594,-4.5594,-4.5594,-4.5594,-4.5594,-4.5594,-4.5594,-4.4432,-4.3104,-4.3104,-4.1835,-4.0496,-4.0496,-4.0496,-4.0496,-4.0496,-4.0356,-3.9774,-3.8063,-3.7365,-3.6599,-3.4956,-3.442,-3.4245,-3.4245,-3.4221,-3.4209,-3.4245,-3.4245,-3.4233,-3.4209,-3.3577,-3.3113,-3.302,-3.237,-3.1608,-3.079,-3.0641,-3.0288,-2.9582,-2.9452,-2.9396,-2.9396,-2.9396,-2.9396,-2.9396,-3.0976,-3.1794,-3.1794,-3.3324,-3.3733,-3.3131,-3.3039,-3.3324,-3.9164,-3.8839,-3.8572,-3.9088,-3.9833,-4.0635,-4.1342,-4.2259,-4.3061,-4.3414,-4.4169,-4.4895,-4.5373,-4.6042,-4.6787,-4.7654,-4.8124,-4.8468,-4.8812,-4.9289,-4.9595,-4.9595,-5.0015,-5.0302,-5.0302,-5.0325,-5.0359,-5.0446,-5.05,-5.0582,-5.0633,-5.0673,-5.0712,-5.0712,-5.0712,-5.0712,-5.0712,-5.0712,-5.0712,-5.0712,-5.0712,-5.0712,-5.0712,-5.0712,-5.0712,-5.0712,-5.0712,-5.0712,-5.0712,-5.0712,-5.0712,-5.0616,-4.974,-4.8875,-4.8048,-4.7567,-4.6644,-4.5594,-4.5594,-4.5594,-4.5594,-4.5594,-4.5594,-4.5594,-4.5594,-4.4432,-4.3104,-4.3104,-4.1835,-4.0496,-4.0496,-4.0496,-4.0473,-4.0347,-4.026,-3.9795,-3.8359,-3.7494,-3.6625,-3.5369,-3.4623,-3.4197,-3.4197,-3.4197,-3.4197,-3.4197,-3.4197,-3.4197,-3.4197,-3.3491,-3.2648,-3.1701,-3.0883,-3.027,-2.9935,-2.9898,-2.975,-2.9415,-2.9396,-2.9396,-2.9396,-2.9396,-2.9396,-2.9396,-3.0511,-3.1106,-3.1106,-3.2258,-3.263,-3.2295,-3.2295,-3.2481,-3.9489,-3.947,-3.9508,-4.0129,-4.1246,-4.2183,-4.2183,-4.331,-4.4407,-4.4637,-4.5201,-4.5812,-4.6385,-4.65,-4.671,-4.733,-4.7444,-4.7597,-4.8086,-4.8506,-4.8831,-4.9071,-4.9404,-4.971,-4.9939,-5.0168,-5.0325,-5.0401,-5.0468,-5.0521,-5.0593,-5.0653,-5.0712,-5.0712,-5.0712,-5.0712,-5.0712,-5.0712,-5.0712,-5.0712,-5.0712,-5.0712,-5.0712,-5.0712,-5.0442,-5.001,-5.05,-5.0558,-5.0366,-5.0596,-5.0712,-5.0616,-4.974,-4.8875,-4.8009,-4.7201,-4.6355,-4.5594,-4.5594,-4.5594,-4.5594,-4.5594,-4.5594,-4.5594,-4.5594,-4.4432,-4.3104,-4.3104,-4.1835,-4.0496,-4.0496,-4.0465,-4.0372,-4.0242,-4.0101,-3.9682,-3.8557,-3.7739,-3.69,-3.5733,-3.499,-3.4476,-3.4234,-3.4197,-3.4197,-3.4197,-3.4197,-3.4197,-3.4197,-3.3287,-3.2054,-3.0437,-2.975,-2.9396,-2.9396,-2.9396,-2.9396,-2.9396,-2.9396,-2.9396,-2.9396,-2.9396,-2.9396,-2.9396,-3.0196,-3.0604,-3.0604,-3.1403,-3.1794,-3.1794,-3.1571,-3.1589,-3.7999,-3.8992,-4.0263,-4.0282,-4.2135,-4.3911,-4.3911,-4.4628,-4.5468,-4.6271,-4.6462,-4.6481,-4.65,-4.65,-4.6519,-4.6538,-4.6538,-4.7131,-4.8812,-4.8353,-4.8162,-4.8995,-4.8372,-4.822,-4.9041,-4.9843,-5.0325,-5.0401,-5.0468,-5.0521,-5.0593,-5.0653,-5.0712,-5.0712,-5.0712,-5.0712,-5.0712,-5.0712,-5.0712,-5.0712,-5.0712,-5.0712,-5.0712,-5.0712,-4.9779,-4.8279,-4.9971,-5.0231,-4.949,-5.0346,-5.0712,-5.0616,-4.974,-4.8875,-4.8009,-4.7201,-4.6355,-4.5594,-4.5594,-4.5594,-4.5594,-4.5594,-4.5594,-4.5594,-4.5594,-4.4432,-4.3104,-4.3104,-4.1835,-4.0496,-4.0496,-4.0356,-4.0214,-4.0205,-3.9846,-3.9301,-3.8474,-3.8078,-3.7405,-3.5807,-3.5473,-3.5194,-3.4358,-3.4197,-3.4197,-3.4197,-3.4197,-3.4197,-3.4197,-3.2816,-3.1218,-2.9601,-2.9396,-2.9396,-2.9396,-2.9396,-2.9396,-2.9396,-2.9396,-2.9396,-2.9396,-2.9396,-2.9396,-2.9396,-3.0196,-3.0604,-3.0604,-3.1403,-3.1794,-3.1775,-3.0995,-3.105,-3.9202,-3.9431,-3.9852,-4.1552,-4.2584,-4.3501,-4.4609,-4.5086,-4.5383,-4.564,-4.5698,-4.5698,-4.5698,-4.6137,-4.6328,-4.5793,-4.6156,-4.6519,-4.6568,-4.6787,-4.7054,-4.7341,-4.8143,-4.8774,-4.9071,-4.9328,-4.974,-5.0287,-5.0446,-5.0511,-5.0532,-5.0643,-5.0712,-5.0712,-5.0712,-5.0712,-5.0712,-5.0712,-5.0712,-5.0712,-5.0712,-5.0712,-5.0712,-5.0712,-5.0048,-4.9029,-5.0183,-5.0212,-4.9471,-5.0346,-5.0712,-5.0558,-4.9106,-4.8355,-4.7932,-4.6547,-4.5845,-4.5594,-4.5594,-4.5594,-4.5594,-4.5594,-4.5594,-4.5594,-4.5594,-4.4432,-4.3104,-4.3104,-4.1835,-4.0496,-4.0496,-4.0347,-4.0148,-3.9973,-3.9713,-3.9389,-3.8917,-3.8346,-3.7745,-3.7188,-3.6235,-3.5417,-3.512,-3.4569,-3.4197,-3.4197,-3.3751,-3.3224,-3.2685,-3.1663,-3.0586,-2.9508,-2.9396,-2.9396,-2.9396,-2.9396,-2.9396,-2.9396,-2.9396,-2.9396,-2.9396,-2.9396,-2.9396,-2.9396,-2.9657,-2.9805,-2.9805,-3.0023,-3.0131,-3.0131,-2.982,-2.9839,-3.9527,-3.9871,-4.0368,-4.2316,-4.3252,-4.3978,-4.5048,-4.5307,-4.5373,-4.566,-4.5736,-4.5736,-4.5736,-4.6156,-4.6233,-4.543,-4.5736,-4.5984,-4.5755,-4.5927,-4.6175,-4.6481,-4.7245,-4.7868,-4.8143,-4.8162,-4.8754,-5.0187,-5.0106,-5.0153,-5.0481,-5.0594,-5.0682,-5.0712,-5.0712,-5.0712,-5.0712,-5.0712,-5.0712,-5.0712,-5.0712,-5.0539,-5.025,-5.0558,-5.0048,-4.8971,-4.9856,-4.9913,-4.9433,-4.999,-5.0423,-5.0558,-4.9125,-4.8375,-4.7932,-4.6567,-4.5883,-4.5594,-4.5594,-4.5594,-4.5594,-4.5594,-4.5594,-4.5594,-4.5594,-4.4432,-4.3104,-4.3104,-4.1835,-4.0481,-4.0397,-4.0232,-4.0002,-3.975,-3.9525,-3.9311,-3.9142,-3.8692,-3.8228,-3.7949,-3.6829,-3.5844,-3.5547,-3.4773,-3.4197,-3.4197,-3.328,-3.2388,-3.1868,-3.1106,-3.0288,-2.9489,-2.9396,-2.9396,-2.9396,-2.9396,-2.9396,-2.9396,-2.9396,-2.9396,-2.9396,-2.9396,-2.9396,-2.9396,-2.9396,-2.9396,-2.9396,-2.9334,-2.9302,-2.9302,-2.9251,-2.9251,-3.9126,-4.031,-4.1762,-4.2641,-4.4055,-4.525,-4.5288,-4.5307,-4.5488,-4.6214,-4.6366,-4.6366,-4.6328,-4.6385,-4.6175,-4.5354,-4.5307,-4.5602,-4.6347,-4.5774,-4.5602,-4.6405,-4.587,-4.5755,-4.6557,-4.6634,-4.7646,-5.013,-4.9556,-4.9516,-5.0442,-5.0572,-5.0623,-5.0683,-5.0683,-5.0702,-5.0712,-5.0712,-5.0712,-5.0712,-5.0712,-5.0269,-4.949,-5.0327,-4.974,-4.8144,-4.9029,-4.9356,-4.9279,-4.9356,-4.9894,-5.0558,-4.9663,-4.8836,-4.8009,-4.7163,-4.6317,-4.5594,-4.5594,-4.5594,-4.5594,-4.5594,-4.5594,-4.5594,-4.5594,-4.4451,-4.3143,-4.3104,-4.1873,-4.0515,-4.026,-3.9993,-3.9742,-3.9556,-3.9298,-3.9101,-3.9101,-3.9101,-3.8859,-3.8098,-3.7294,-3.6439,-3.5584,-3.4748,-3.4197,-3.4197,-3.2834,-3.1794,-3.1794,-3.105,-3.0251,-2.9471,-2.9396,-2.9396,-2.9396,-2.9396,-2.9396,-2.9396,-2.9396,-2.9396,-2.9396,-2.9396,-2.9396,-2.9396,-2.9396,-2.9396,-2.9396,-2.9334,-2.9302,-2.9302,-2.9291,-2.9251,-4.0692,-4.1648,-4.2679,-4.3491,-4.4025,-4.4494,-4.5144,-4.5307,-4.5163,-4.4732,-4.4637,-4.4446,-4.3845,-4.4762,-4.5335,-4.4475,-4.5392,-4.6061,-4.566,-4.543,-4.5602,-4.6405,-4.6901,-4.7494,-4.8353,-4.843,-4.8965,-5.0206,-4.9556,-4.9494,-5.0366,-5.0489,-5.0572,-5.0623,-5.0623,-5.0643,-5.0712,-5.0712,-5.0712,-5.0712,-5.0712,-5.0577,-5.0385,-5.0596,-4.974,-4.8144,-4.9029,-4.8682,-4.7625,-4.8894,-4.9529,-4.9644,-4.8779,-4.8298,-4.7913,-4.6471,-4.5787,-4.5594,-4.5594,-4.5594,-4.5594,-4.5594,-4.5594,-4.5594,-4.5594,-4.4863,-4.3874,-4.3278,-4.2316,-4.1275,-4.0423,-3.9993,-3.9742,-3.9556,-3.9298,-3.9101,-3.9101,-3.9101,-3.9045,-3.8822,-3.7652,-3.6253,-3.4773,-3.4346,-3.4197,-3.4197,-3.2834,-3.1794,-3.1794,-3.0567,-2.9619,-2.9415,-2.9396,-2.9396,-2.9396,-2.9396,-2.9396,-2.9396,-2.9396,-2.9396,-2.9396,-2.9396,-2.9396,-2.9396,-2.9396,-2.9396,-2.9396,-2.9283,-2.9229,-2.9229,-2.9119,-2.9096,-4.1839,-4.2698,-4.3433,-4.3892,-4.4293,-4.4609,-4.4704,-4.4723,-4.4494,-4.3654,-4.3472,-4.3348,-4.2889,-4.3864,-4.4685,-4.459,-4.5354,-4.5946,-4.5831,-4.5507,-4.5602,-4.6405,-4.694,-4.757,-4.8449,-4.8525,-4.8869,-4.971,-4.9362,-4.9502,-5.0407,-5.0457,-5.0511,-5.0633,-5.0613,-5.0633,-5.0712,-5.0712,-5.0712,-5.0712,-5.0712,-5.0712,-5.0712,-5.0712,-5.0173,-4.9221,-4.8952,-4.8509,-4.8009,-4.8221,-4.874,-4.9279,-4.8048,-4.7798,-4.7894,-4.622,-4.5594,-4.5594,-4.5594,-4.5594,-4.5594,-4.5594,-4.5594,-4.5594,-4.5594,-4.4998,-4.4124,-4.3335,-4.247,-4.1528,-4.0339,-3.9922,-3.972,-3.9408,-3.9205,-3.9101,-3.9101,-3.9101,-3.8897,-3.8172,-3.7021,-3.5751,-3.442,-3.4197,-3.4197,-3.4197,-3.3131,-3.2332,-3.2332,-3.0604,-2.9396,-2.9396,-2.9396,-2.9396,-2.9396,-2.9396,-2.9396,-2.9396,-2.9396,-2.9396,-2.9396,-2.9396,-2.9396,-2.9396,-2.9396,-2.9396,-2.9396,-2.9294,-2.9229,-2.9189,-2.9112,-2.9085,-4.2717,-4.3472,-4.4006,-4.4006,-4.4571,-4.4895,-4.4045,-4.3834,-4.3605,-4.2794,-4.2545,-4.2469,-4.2469,-4.3138,-4.3987,-4.4972,-4.522,-4.5583,-4.6385,-4.5908,-4.5755,-4.6577,-4.6672,-4.7062,-4.8036,-4.8132,-4.8449,-4.9194,-4.9263,-4.9614,-5.044,-5.0424,-5.0478,-5.0663,-5.0623,-5.0576,-5.0539,-5.0635,-5.0635,-5.0539,-5.0635,-5.0712,-5.0712,-5.0712,-5.0577,-5.0269,-4.8759,-4.8394,-4.8779,-4.7451,-4.7817,-4.9067,-4.7509,-4.7394,-4.7894,-4.622,-4.5594,-4.5594,-4.5594,-4.5594,-4.5594,-4.5594,-4.5594,-4.5594,-4.5594,-4.5075,-4.4297,-4.3489,-4.2643,-4.1656,-4.0323,-3.9903,-3.9687,-3.92,-3.9101,-3.9101,-3.9101,-3.9101,-3.8618,-3.7015,-3.6142,-3.5361,-3.4364,-3.4197,-3.4197,-3.4197,-3.3522,-3.3001,-3.3001,-3.1087,-2.9675,-2.9564,-2.9564,-2.9508,-2.9405,-2.9386,-2.9386,-2.9357,-2.9357,-2.9386,-2.9386,-2.9386,-2.9396,-2.9396,-2.9396,-2.9396,-2.9396,-2.9334,-2.928,-2.92,-2.9189,-2.9185,-4.3567,-4.3892,-4.4006,-4.4006,-4.4102,-4.4006,-4.3195,-4.3004,0.0,-4.1896,-4.1208,-4.0721,-4.0721,-4.1399,-4.2431,-4.3968,-4.4838,-4.5583,-4.6385,-4.6385,-4.6615,-4.7463,-4.7559,-4.817,-4.9729,-4.9862,-4.9939,-5.0073,-5.0092,-5.0161,-5.0337,-5.0325,-5.0382,-5.0532,-5.0582,-5.0277,-4.9625,-5.0346,-5.0346,-4.9625,-5.0366,-5.0712,-5.0712,-5.0712,-4.9913,-4.8529,-4.824,-4.7394,-4.6287,-4.6721,-4.7471,-4.824,-4.7278,-4.7394,-4.7894,-4.622,-4.5594,-4.5594,-4.5594,-4.5594,-4.5594,-4.5594,-4.5594,-4.5594,-4.5594,-4.5498,-4.521,-4.4335,-4.3508,-4.2558,-4.1216,-4.0339,-3.9687,-3.92,-3.9101,-3.9101,-3.9101,-3.9101,-3.8618,-3.7015,-3.6588,-3.5999,-3.4457,-3.4197,-3.4197,-3.4197,-3.3522,-3.3001,-3.3001,-3.2054,-3.1125,-3.0456,-3.0381,-3.01,-2.9379,-2.9323,-2.9283,-2.9251,-2.9222,-2.9262,-2.9323,-2.9323,-2.9344,-2.9396,-2.9396,-2.9396,-2.9396,-2.9334,-2.928,-2.92,-2.9134,-2.9435,-4.3777,-4.4006,-4.4006,-4.4006,-4.3682,-4.3061,-4.18,0.0,0.0,-3.9794,-3.9584,-3.9489,-3.903,-4.0348,-4.1762,-4.2565,-4.3424,-4.4571,-4.6271,-4.5755,-4.6023,-4.822,-4.8086,-4.8457,-5.0149,-5.0302,-5.0302,-5.0302,-5.0302,-5.0314,-5.0348,-5.0401,-5.0427,-5.05,-5.0572,-5.0431,-5.0067,-5.05,-5.0269,-4.9413,-4.9817,-4.9779,-4.9356,-4.9356,-4.8894,-4.8086,-4.7663,-4.7028,-4.6317,-4.674,-4.7135,-4.7451,-4.7038,-4.7135,-4.7317,-4.6047,-4.5594,-4.5594,-4.5594,-4.5594,-4.5594,-4.5594,-4.5594,-4.5594,-4.5594,-4.5594,-4.5421,-4.4547,-4.3621,-4.2613,-4.1412,-4.0382,-3.9561,-3.9192,-3.9101,-3.9101,-3.9101,-3.8767,-3.8116,-3.6928,-3.6365,-3.5677,-3.442,-3.4197,-3.4197,-3.4197,-3.3863,-3.3621,-3.3621,-3.3287,-3.2425,-3.0772,-3.0604,-3.0259,-2.941,-2.9323,-2.9312,-2.9304,-2.9272,-2.9272,-2.9355,-2.9355,-2.9365,-2.9396,-2.9396,-2.9396,-2.9396,-2.9365,-2.9516,-2.9824,-2.9791,-3.0157,-4.4064,-4.414,-4.4006,-4.4006,-4.3405,-4.2354,-4.0683,-4.0148,0.0,-3.8018,-3.8113,-3.8304,-3.7789,-3.9336,-4.0864,-4.1399,-4.2221,-4.3673,-4.6156,-4.5362,-4.5679,-4.8747,-4.8334,-4.8457,-5.0149,-5.0302,-5.0302,-5.0302,-5.0302,-5.0314,-5.0379,-5.0435,-5.0478,-5.05,-5.0542,-5.0517,-5.0423,-5.0616,-5.0173,-4.9125,-4.9317,-4.8933,-4.8105,-4.8105,-4.8009,-4.7817,-4.7173,-4.6904,-4.6904,-4.6904,-4.7,-4.7135,-4.6962,-4.6904,-4.6797,-4.5913,-4.5594,-4.5594,-4.5594,-4.5594,-4.5594,-4.5594,-4.5594,-4.5594,-4.5594,-4.5594,-4.546,-4.4759,-4.3674,-4.2497,-4.16,-4.0441,-3.9439,-3.9151,-3.9101,-3.9101,-3.9101,-3.8599,-3.7912,-3.7113,-3.6309,-3.5491,-3.4637,-3.4309,-3.4197,-3.4197,-3.4197,-3.4197,-3.4197,-3.4197,-3.3398,-3.1348,-3.0957,-3.053,-2.972,-2.9593,-2.9657,-2.9866,-2.9664,-2.9646,-2.9877,-2.9561,-2.945,-2.9638,-2.946,-2.9376,-2.9376,-2.9543,-2.9898,-3.0397,-3.0559,-3.1028,-4.4953,-4.4609,-4.4006,-4.4006,-4.3405,-4.2354,-4.0683,0.0,-3.8858,-3.7903,-3.7177,-3.692,-3.7578,-3.7884,-3.8801,-4.1113,-4.2221,-4.3673,-4.6156,-4.6366,-4.6978,-4.8869,-4.8334,-4.8457,-5.0149,-5.0302,-5.0302,-5.0302,-5.0302,-5.0302,-5.0314,-5.0314,-5.0371,-5.05,-5.0511,-5.0198,-4.9529,-5.0308,-4.9875,-4.824,-4.9029,-4.8933,-4.8105,-4.8105,-4.7702,-4.7,-4.6923,-4.6904,-4.6904,-4.6904,-4.7336,-4.7932,-4.7192,-4.6904,-4.6797,-4.5913,-4.5594,-4.5594,-4.5594,-4.5594,-4.5594,-4.5594,-4.5594,-4.5594,-4.5594,-4.5594,-4.5575,-4.5498,-4.4134,-4.2649,-4.2362,-4.0887,-3.9439,-3.9151,-3.9101,-3.9101,-3.9101,-3.9045,-3.8748,-3.7949,-3.7132,-3.6328,-3.5529,-3.4729,-3.4197,-3.4197,-3.4197,-3.4197,-3.4197,-3.4197,-3.3844,-3.289,-3.2128,-3.1344,-3.0461,-3.0376,-3.068,-3.1367,-3.0708,-3.0646,-3.1462,-3.0028,-2.9617,-3.0474,-2.9715,-2.9312,-2.9312,-3.0035,-3.0391,-3.0408,-3.1095,-3.1857,-4.4284,-4.4255,-4.4006,-4.4006,-4.3004,-4.1571,-3.9909,-3.8839,-3.7827,-3.647,-3.6347,-3.6443,-3.6241,-3.7024,-3.8018,-3.9049,-3.9947,-4.1399,-4.3921,-4.4265,-4.5086,-4.7283,-4.7704,-4.8277,-4.9461,-5.0015,-5.0302,-5.0302,-5.0302,-5.0302,-5.0302,-5.0302,-5.0337,-5.0446,-5.0478,-5.0389,-5.0115,-5.0519,-4.9817,-4.8105,-4.8452,-4.7913,-4.6605,-4.6605,-4.6413,-4.6144,-4.6682,-4.6904,-4.6981,-4.799,-4.8009,-4.7394,-4.7567,-4.7009,-4.6086,-4.5729,-4.5594,-4.5594,-4.5594,-4.5594,-4.5594,-4.5594,-4.5594,-4.5594,-4.5594,-4.5594,-4.5472,-4.4825,-4.3615,-4.2346,-4.1633,-4.0353,-3.9232,-3.9129,-3.9101,-3.9101,-3.9101,-3.9101,-3.8859,-3.8061,-3.7257,-3.6439,-3.564,-3.4773,-3.4197,-3.4197,-3.4197,-3.4197,-3.4197,-3.4197,-3.3881,-3.3094,-3.2704,-3.2191,-3.1351,-3.1251,-3.1369,-3.1707,-3.1376,-3.1358,-3.173,-3.1125,-3.095,-3.1329,-3.0508,-3.0068,-3.0024,-3.0339,-3.0701,-3.1077,-3.1851,-3.2648,-4.4169,-4.4369,-4.4369,-4.4369,-4.3119,-4.1457,-3.9775,-3.8514,-3.7215,-3.5553,-3.5679,-3.5927,-3.5297,-3.6165,-3.712,-3.7617,-3.8438,-3.9966,-4.2756,-4.3157,-4.4093,-4.6596,-4.7196,-4.7857,-4.8995,-4.9824,-5.0302,-5.0302,-5.0302,-5.0302,-5.0302,-5.0073,-4.9962,-4.9999,-5.0333,-5.0417,-5.0219,-5.0279,-4.9567,-4.8105,-4.7855,-4.699,-4.5594,-4.5594,-4.5748,-4.6009,-4.6624,-4.7182,-4.774,-4.8913,-4.8548,-4.7308,-4.7875,-4.7086,-4.5594,-4.5594,-4.5594,-4.5594,-4.5594,-4.5594,-4.5594,-4.5594,-4.5594,-4.5594,-4.5594,-4.5594,-4.5433,-4.4691,-4.3467,-4.2075,-4.066,-3.9706,-3.9101,-3.9101,-3.9101,-3.9101,-3.9101,-3.9101,-3.8934,-3.8358,-3.7596,-3.6811,-3.5993,-3.5144,-3.4494,-3.4234,-3.4197,-3.4197,-3.4197,-3.4197,-3.3974,-3.3417,-3.3343,-3.3039,-3.2221,-3.2101,-3.2212,-3.2488,-3.2249,-3.2212,-3.25,-3.2008,-3.186,-3.2147,-3.131,-3.0857,-3.0824,-3.1053,-3.1401,-3.1875,-3.2654,-3.3322,-4.5048,-4.5288,-4.5288,-4.5288,-4.4036,-4.2354,-4.0664,-3.8935,-3.7215,-3.5553,-3.5209,-3.5209,-3.5209,-3.5209,-3.5763,-3.7426,-3.8438,-4.0177,-4.351,-4.3987,-4.4923,-4.7483,-4.7035,-4.7188,-4.8938,-4.9824,-5.0302,-5.0302,-5.0302,-5.0302,-5.0302,-4.9538,-4.9113,-4.9111,-5.0008,-5.0129,-4.9326,-4.9375,-4.8971,-4.8086,-4.7298,-4.6451,-4.5594,-4.5594,-4.6067,-4.6885,-4.6904,-4.7836,-4.9375,-4.9394,-4.8875,-4.8086,-4.8105,-4.7086,-4.5594,-4.5594,-4.5594,-4.5594,-4.5594,-4.5594,-4.5594,-4.5594,-4.5594,-4.5594,-4.5594,-4.5594,-4.5594,-4.5594,-4.4057,-4.1888,-3.9688,-3.9101,-3.9101,-3.9101,-3.9101,-3.9101,-3.9101,-3.9101,-3.9101,-3.9082,-3.8432,-3.7634,-3.6829,-3.603,-3.5194,-3.4327,-3.4197,-3.4197,-3.4197,-3.4197,-3.4197,-3.4179,-3.4179,-3.3863,-3.3057,-3.299,-3.3324,-3.4123,-3.3429,-3.3343,-3.4141,-3.2519,-3.2045,-3.2971,-3.2004,-3.1525,-3.1597,-3.2318,-3.2679,-3.2704,-3.343,-3.3868,-4.3205,-4.3596,-4.3596,-4.3596,-4.2737,-4.1476,-3.9794,-3.8514,-3.7215,-3.5553,-3.5209,-3.5209,-3.5209,-3.5209,-3.5935,-3.8228,-3.882,-3.9986,-4.2794,-4.3643,-4.4522,-4.5927,-4.7379,-4.8716,-4.9805,-5.0149,-5.0302,-5.0302,-5.0302,-5.0302,-5.0302,-5.0054,-4.9931,-4.9924,-4.9666,-4.972,-5.0129,-4.9594,-4.8914,-4.8086,-4.7269,-4.6432,-4.5614,-4.622,-4.6644,-4.6962,-4.8105,-4.8567,-4.8567,-4.9144,-4.8567,-4.7278,-4.7278,-4.6586,-4.5594,-4.5594,-4.5594,-4.5594,-4.5594,-4.5594,-4.5594,-4.5594,-4.521,-4.4701,-4.4701,-4.4701,-4.4434,-4.309,-4.1607,-4.027,-3.9558,-3.9232,-3.9101,-3.9101,-3.9101,-3.9101,-3.9101,-3.9101,-3.9101,-3.9101,-3.8005,-3.7169,-3.7466,-3.6402,-3.5417,-3.5138,-3.5101,-3.4866,-3.4271,-3.4197,-3.4197,-3.4197,-3.4197,-3.4104,-3.3844,-3.3789,-3.3858,-3.4117,-3.3895,-3.3876,-3.4117,-3.3654,-3.353,-3.3807,-3.2932,-3.2434,-3.2428,-3.2612,-3.2967,-3.3448,-3.3745,-3.3881,-4.1705,-4.2545,-4.2794,-4.2794,-4.1915,-4.0692,-3.9317,-3.8094,-3.6852,-3.5477,-3.5209,-3.5209,-3.5209,-3.5209,-3.584,-3.775,-3.8304,-3.9393,-4.1953,-4.3023,-4.4112,-4.5583,-4.7723,-4.9301,-4.9805,-5.013,-5.0302,-5.0302,-5.0302,-5.0302,-5.0302,-5.0015,-4.9996,-5.0283,-4.9518,-4.9258,-4.9541,-4.8768,-4.8126,-4.7644,-4.6817,-4.6297,-4.6105,-4.6644,-4.7058,-4.7413,-4.8452,-4.8606,0.0,-4.8682,-4.8125,-4.6904,-4.6904,-4.6374,-4.5594,-4.5594,-4.5594,-4.5594,-4.5594,-4.5594,-4.5594,-4.5594,-4.5017,-4.4182,-4.3547,-4.3585,-4.3513,-4.1858,-4.0775,-4.0012,-3.9614,-3.9298,-3.9101,-3.9101,-3.9101,-3.9101,-3.9101,-3.9101,-3.9101,-3.9101,-3.8284,-3.7671,-3.7856,-3.7071,-3.6309,-3.6012,-3.5956,-3.577,-3.52,-3.4878,-3.4692,-3.4692,-3.4401,-3.4197,-3.4197,-3.4161,-3.4124,-3.4099,-3.4099,-3.4099,-3.4099,-3.4086,-3.4111,-3.4161,-3.3549,-3.3234,-3.3203,-3.3171,-3.3377,-3.3788,-3.3895,-3.3934,0.0,-4.1791,-4.2431,-4.2431,-4.1266,-3.9881,-3.903,-3.7608,0.0,-3.5373,-3.5209,-3.5229,-3.5286,-3.5248,-3.5545,-3.6596,-3.7406,-3.8763,-4.1323,-4.2526,-4.4017,-4.6328,-4.8124,-4.9186,-4.9186,-4.9862,-5.0302,-5.0302,-5.0302,-5.0302,-5.0302,-4.9595,-4.9519,-5.0283,-4.9518,-4.8769,-4.8084,-4.7232,-4.6858,-4.6962,-4.6105,-4.6124,-4.6904,-4.6962,-4.7355,-4.8029,-4.8086,-4.8067,-4.8009,-4.8009,-4.7548,-4.6817,-4.6817,-4.6317,-4.5594,-4.5594,-4.5594,-4.5594,-4.5594,-4.5594,-4.5575,-4.546,-4.4874,-4.3893,-4.222,-4.2316,-4.2763,-4.1647,-4.1184,-4.0776,-3.9768,-3.9311,-3.9101,-3.9101,-3.9101,-3.9101,-3.9101,-3.9101,-3.9101,-3.9101,-3.9045,-3.8804,-3.8098,-3.7931,-3.7652,-3.6891,-3.6792,-3.6773,-3.6718,-3.6049,-3.5566,-3.551,-3.4773,-3.4271,-3.4197,-3.4197,-3.4173,-3.4099,-3.4099,-3.4099,-3.4099,-3.3972,-3.3972,-3.4099,-3.3908,-3.3829,-3.3895,-3.3895,-3.3855,-3.3788,-3.3934,-3.3998,-3.751,0.0,-3.896,-3.8906,-3.8591,-3.8094,0.0,-3.6787,-3.6252,-3.5373,-3.5209,-3.5392,-3.6061,-3.5641,-3.6118,-3.8945,-3.9575,-4.0549,-4.3051,-4.5267,-4.6833,-4.7425,-4.9003,-5.0015,-5.0015,-5.0187,-5.0302,-5.0302,-5.0302,-5.0302,-5.0302,-5.013,-5.0092,-5.0283,-4.9522,-4.9021,-4.8845,-4.7442,-4.7088,-4.7818,-4.6991,-4.6701,-4.6923,-4.7548,-4.7586,-4.7212,-4.7836,-4.7759,-4.7173,-4.7173,-4.6682,-4.5913,-4.5913,-4.5787,-4.5594,-4.5594,-4.5594,-4.5594,-4.5594,-4.5594,-4.5383,-4.4105,-4.3547,-4.3066,-4.1335,-4.1412,-4.1904,-4.096,-4.0425,-4.0052,-3.9788,-3.9427,-3.9101,-3.9101,-3.9101,-3.9101,-3.9101,-3.9101,-3.9101,-3.9101,-3.8599,-3.8321,-3.8729,-3.8302,-3.7838,-3.7652,-3.7615,-3.7392,-3.6779,-3.6532,-3.6179,-3.5566,-3.5324,-3.4909,-3.4192,-3.4124,-3.4124,-3.4099,-3.4099,-3.4074,-3.4023,-3.4049,-3.4074,-3.4099,-3.3998,-3.3908,-3.3815,-3.3815,-3.382,-3.3788,-3.3934,-3.3998,-3.599,-3.7138,-3.8376,-3.8313,-3.7999,-3.7597,-3.7158,-3.6462,-3.5774,-3.5305,-3.5209,-3.5335,-3.5812,-3.5832,-3.6405,-3.8257,-3.9193,-4.0568,-4.309,-4.5955,-4.7788,-4.7788,-4.9289,-5.0302,-5.0302,-5.0302,-5.0302,-5.0302,-5.0302,-5.0302,-5.0302,-5.0302,-5.0302,-5.0302,-4.9519,-4.9094,-4.9111,-4.79,-4.7558,-4.8049,-4.7635,-4.7451,-4.7471,-4.7894,-4.7663,-4.6923,-4.7355,-4.7086,-4.6297,-4.6297,-4.6028,-4.5594,-4.5594,-4.5594,-4.5594,-4.5594,-4.5594,-4.5594,-4.5594,-4.5594,-4.5383,-4.4085,-4.3393,-4.2854,-4.1508,-4.1143,-4.1104,-4.0631,-4.0157,-3.9808,-3.9808,-3.9445,-3.9101,-3.9101,-3.9101,-3.9101,-3.9101,-3.9101,-3.9101,-3.9101,-3.8748,-3.8581,-3.9027,-3.8729,-3.8451,-3.8451,-3.8451,-3.8284,-3.7856,-3.7466,-3.7076,-3.6662,-3.6272,-3.5838,-3.5348,-3.4946,-3.455,-3.408,-3.4049,-3.4036,-3.3998,-3.3972,-3.3959,-3.3959,-3.3921,-3.3868,-3.3807,-3.3815,-3.3815,-3.3788,-3.3972,-3.4036,-3.5476,-3.7154,-3.8816,-3.8504,-3.796,-3.7483,-3.7349,-3.6222,-3.5209,-3.5209,-3.5209,-3.5286,-3.5534,-3.6194,-3.6806,-3.7207,-3.8658,-4.0559,-4.2851,-4.5851,-4.7788,-4.7788,-4.9289,-5.0302,-5.0302,-5.0302,-5.0302,-5.0302,-5.0302,-5.0302,-5.0302,-5.0302,-5.0302,-5.0302,-4.9633,-4.9274,-4.9291,-4.8426,-4.8047,-4.8173,-4.8126,-4.8096,-4.8105,-4.7971,-4.7471,-4.6701,-4.6701,-4.6278,-4.5594,-4.5594,-4.5594,-4.5594,-4.5594,-4.5594,-4.5594,-4.5594,-4.5594,-4.5594,-4.5594,-4.5594,-4.5441,-4.4432,-4.3662,-4.2912,-4.1912,-4.1085,-4.0489,-4.0465,-4.0129,-3.9808,-3.9808,-3.9445,-3.9101,-3.9101,-3.9101,-3.9101,-3.9101,-3.9101,-3.9101,-3.9101,-3.9101,-3.9101,-3.9101,-3.9101,-3.9101,-3.9101,-3.9101,-3.9101,-3.9101,-3.8488,-3.8042,-3.7912,-3.7281,-3.6835,-3.6692,-3.606,-3.5304,-3.4448,-3.4159,-3.4011,-3.3985,-3.3868,-3.382,-3.3807,-3.382,-3.382,-3.3807,-3.3873,-3.3873,-3.3807,-3.4127,-3.4246,-3.6224,-3.7182,-3.763,-3.6154,-3.6233,-3.6481,-3.5744,-3.5381,-3.5209,-3.5209,-3.5209,-3.563,-3.7043,-3.7426,-3.8228,-4.0387,-4.2144,-4.3624,-4.4762,-4.6577,-4.7788,-4.7788,-4.9289,-5.0302,-5.0302,-5.0302,-5.0302,-5.0302,-5.0302,-5.0302,-5.0302,-5.0302,-5.0302,-5.0302,-5.0187,-5.0111,-5.0122,-4.8649,-4.8292,-4.9006,-4.8346,-4.8039,-4.8086,-4.7394,-4.6605,-4.5806,-4.5806,-4.5729,-4.5594,-4.5594,-4.5594,-4.5594,-4.5594,-4.5594,-4.5594,-4.5594,-4.5594,-4.5594,-4.5594,-4.5594,-4.5344,-4.3797,-4.3201,-4.2797,-4.1189,-4.0612,-4.0465,-4.0295,-4.0023,-3.9808,-3.9808,-3.9445,-3.9101,-3.9101,-3.9101,-3.9101,-3.9101,-3.9101,-3.9101,-3.9101,-3.9101,-3.9101,-3.9101,-3.9101,-3.9101,-3.9101,-3.9101,-3.9101,-3.9101,-3.899,-3.8655,-3.7968,-3.7782,-3.7416,-3.6695,-3.6501,-3.6358,-3.621,-3.4864,-3.4036,-3.3921,-3.3895,-3.3873,-3.3807,-3.3873,-3.3873,-3.3807,-3.382,-3.382,-3.3825,-3.4697,-3.5114,-3.5795,-3.6468,-3.6916,-3.6107,-3.6882,-3.7742,-3.7349,-3.6891,-3.6547,-3.6547,-3.6547,-3.6795,-3.7559,-3.8476,-3.9775,-4.1858,-4.3214,-4.414,-4.4551,-4.6451,-4.7788,-4.7788,-4.9289,-5.0302,-5.0302,-5.0302,-5.0302,-5.0302,-5.0302,-5.0302,-5.0302,-5.0302,-5.0092,-4.9671,-4.9652,-4.9423,-4.8965,-4.8223,-4.8515,-4.9844,-4.9065,-4.8481,-4.803,-4.7241,-4.6413,-4.5594,-4.5594,-4.5594,-4.5594,-4.5594,-4.5594,-4.5594,-4.5594,-4.5594,-4.5594,-4.5594,-4.5594,-4.5594,-4.5594,-4.5594,-4.5402,-4.4143,-4.3451,-4.2854,-4.1585,-4.0873,-4.0457,-4.026,-4.0012,-3.9775,-3.966,-3.9364,-3.9101,-3.9101,-3.9101,-3.9101,-3.9101,-3.9101,-3.9101,-3.9101,-3.9101,-3.9101,-3.9101,-3.9101,-3.9101,-3.9101,-3.9101,-3.9101,-3.9101,-3.9101,-3.8952,-3.8581,-3.8544,-3.8381,-3.7983,-3.7543,-3.6904,-3.5954,-3.5158,-3.4491,-3.3926,-3.3855,-3.3815,-3.3807,-3.3815,-3.3815,-3.3807,-3.3847,-3.4067,-3.4468,-3.5061,-3.5584,-3.5476,-3.599,-3.653,-3.6677,-3.7562,-3.8439,-3.8565,-3.7946,-3.7365,-3.7481,-3.7509,-3.7585,-3.786,-3.9528,-4.138,-4.2851,-4.3768,-4.4293,-4.4293,-4.6146,-4.7502,-4.7502,-4.9003,-5.0015,-5.0015,-5.0015,-5.0015,-5.0015,-4.9824,-4.971,-4.971,-4.971,-4.9423,-4.8812,-4.8793,-4.8487,-4.7807,-4.7788,-4.8471,-4.9819,-4.9053,-4.8356,-4.7684,-4.6943,-4.622,-4.5594,-4.5594,-4.5594,-4.5594,-4.5594,-4.5594,-4.5594,-4.5594,-4.5594,-4.5594,-4.5594,-4.5594,-4.5594,-4.5594,-4.5594,-4.546,-4.4586,-4.3874,-4.3181,-4.2124,-4.1335,-4.0718,-4.0243,-3.9953,-3.9742,-3.9556,-3.9298,-3.9101,-3.9101,-3.9101,-3.9101,-3.9101,-3.9101,-3.9101,-3.9101,-3.9101,-3.9101,-3.9101,-3.9101,-3.9101,-3.9101,-3.9101,-3.9101,-3.9101,-3.9101,-3.9101,-3.9101,-3.9101,-3.9087,-3.9073,-3.853,-3.7524,-3.5982,-3.5678,-3.5246,-3.4542,-3.443,-3.4389,-3.4403,-3.4192,-3.4082,-3.4082,-3.4163,-3.4494,-3.5064,-3.5687,-3.6258,-3.5977,-3.6317,-3.6637,-3.7195,-3.6995,-3.6819,-3.7308,-3.6803,-3.6364,-3.6844,-3.6967,-3.7273,-3.8344,-4.0765,-4.2908,-4.3777,-4.4647,-4.5201,-4.5201,-4.6003,-4.6596,-4.6596,-4.8124,-4.9186,-4.9186,-4.9186,-4.9186,-4.9186,-4.8449,-4.7979,-4.7979,-4.7979,-4.7941,-4.7903,-4.7884,-4.7865,-4.7788,-4.7788,-4.7879,-4.8069,-4.7278,-4.6887,-4.6858,-4.6068,-4.5671,-4.5594,-4.5594,-4.5594,-4.5594,-4.5594,-4.5594,-4.5594,-4.5594,-4.5594,-4.5594,-4.5594,-4.5594,-4.5594,-4.5594,-4.5594,-4.546,-4.4586,-4.4259,-4.3912,-4.2297,-4.175,-4.1434,-4.0183,-3.9819,-3.9742,-3.9556,-3.9298,-3.9101,-3.9101,-3.9101,-3.9101,-3.9101,-3.9101,-3.9101,-3.9101,-3.9101,-3.9101,-3.9101,-3.9101,-3.9101,-3.9101,-3.9101,-3.9101,-3.9101,-3.9101,-3.9101,-3.9101,-3.9101,-3.9073,-3.9007,-3.9022,-3.8614,-3.7678,-3.6814,-3.6311,-3.632,-3.6186,-3.6148,-3.62,-3.5358,-3.4912,-3.4912,-3.5046,-3.5123,-3.5234,-3.686,-3.7669,-3.5583,-3.5938,-3.6435,-3.7154,-3.7045,-3.6984,-3.7909,-3.8153,-3.8274,-3.8469,-3.8532,-3.8848,-3.9943,-4.1306,-4.2632,-4.3812,-4.4557,-4.5057,-4.5267,-4.5984,-4.65,-4.65,-4.757,-4.8296,-4.8296,-4.8296,-4.8296,-4.8296,-4.7979,-4.7788,-4.7788,-4.7788,-4.754,-4.7005,-4.6997,-4.6748,-4.6252,-4.6252,-4.6262,-4.6294,-4.6508,-4.6674,-4.6714,-4.5907,-4.5568,-4.5594,-4.5594,-4.5594,-4.5594,-4.5594,-4.5594,-4.5594,-4.5594,-4.5594,-4.5594,-4.5594,-4.5594,-4.5594,-4.5594,-4.5594,-4.546,-4.4586,-4.3951,-4.3335,-4.2162,-4.1338,-4.0662,-3.9988,-3.9717,-3.9561,-3.9305,-3.9183,-3.9101,-3.9101,-3.9101,-3.9101,-3.9101,-3.9101,-3.9101,-3.9101,-3.9101,-3.9101,-3.9101,-3.9101,-3.9101,-3.9101,-3.9101,-3.9101,-3.9101,-3.9101,-3.9101,-3.9101,-3.9101,-3.9087,-3.9059,-3.9087,-3.8929,-3.8567,-3.7729,-3.7036,-3.6509,-3.6412,-3.6342,-3.6346,-3.5987,-3.5822,-3.5864,-3.5947,-3.6265,-3.6777,-3.7521,-3.8104,-3.5088,-3.5381,-3.5882,-3.654,-3.6756,-3.7074,-3.8108,-3.887,-3.9393,-3.9594,-3.9685,-3.9983,-4.0715,-4.1418,-4.2222,-4.3175,-4.4087,-4.4758,-4.4976,-4.5563,-4.597,-4.597,-4.6819,-4.7387,-4.7387,-4.7387,-4.7387,-4.7387,-4.7139,-4.7016,-4.7016,-4.7016,-4.6748,-4.6137,-4.6118,-4.5851,-4.5307,-4.5307,-4.5307,-4.5307,-4.5893,-4.6212,-4.6263,-4.5745,-4.555,-4.5594,-4.5594,-4.5594,-4.5594,-4.5594,-4.5594,-4.5594,-4.5594,-4.5594,-4.5594,-4.5594,-4.5594,-4.5594,-4.5594,-4.5594,-4.546,-4.4586,-4.3878,-4.3181,-4.2059,-4.1121,-4.0384,-3.9848,-3.9609,-3.9439,-3.9183,-3.9101,-3.9101,-3.9101,-3.9101,-3.9101,-3.9101,-3.9101,-3.9101,-3.9101,-3.9101,-3.9101,-3.9101,-3.9101,-3.9101,-3.9101,-3.9101,-3.9101,-3.9101,-3.9101,-3.9101,-3.9101,-3.9101,-3.9101,-3.9101,-3.9101,-3.9073,-3.9036,-3.8503,-3.7905,-3.7313,-3.7182,-3.7124,-3.7153,-3.6871,-3.6742,-3.6813,-3.6879,-3.7198,-3.7752,-3.8118,-3.8553,-3.4646,-3.4713,-3.499,-3.5335,-3.6023,-3.6833,-3.763,-3.8433,-3.9182,-3.9798,-4.0126,-4.0308,-4.0308,-4.118,-4.1905,-4.1905,-4.3313,-4.4402,-4.4397,-4.4624,-4.4788,-4.4788,-4.5803,-4.647,-4.647,-4.65,-4.65,-4.65,-4.5755,-4.5307,-4.5307,-4.5307,-4.5307,-4.5307,-4.5307,-4.5307,-4.5307,-4.5307,-4.5307,-4.5307,-4.5307,-4.5339,-4.541,-4.5476,-4.555,-4.5594,-4.5594,-4.5594,-4.5594,-4.5594,-4.5594,-4.5594,-4.5594,-4.5594,-4.5594,-4.5594,-4.5594,-4.5594,-4.5594,-4.5594,-4.5441,-4.4586,-4.4143,-4.3665,-4.2001,-4.1288,-4.0851,-3.9794,-3.9502,-3.9439,-3.9183,-3.9101,-3.9101,-3.9101,-3.9101,-3.9101,-3.9101,-3.9101,-3.9101,-3.9101,-3.9101,-3.9101,-3.9101,-3.9101,-3.9101,-3.9101,-3.9101,-3.9101,-3.9101,-3.9101,-3.9101,-3.9101,-3.9101,-3.9101,-3.9101,-3.9101,-3.9101,-3.9101,-3.9036,-3.8993,-3.8993,-3.881,-3.8795,-3.9011,-3.8087,-3.7657,-3.771,-3.7776,-3.7817,-3.7836,-3.8702,-3.9101,-3.5214,-3.5635,-3.6344,-3.6419,-3.7278,-3.8129,-3.8368,-3.905,-3.9844,-4.0595,-4.0809,-4.0914,-4.1123,-4.1711,-4.2291,-4.2674,-4.3511,-4.4177,-4.4374,-4.4465,-4.4519,-4.4519,-4.4978,-4.5288,-4.5288,-4.5524,-4.566,-4.566,-4.543,-4.5307,-4.5307,-4.5307,-4.5307,-4.5307,-4.5307,-4.5307,-4.5307,-4.5307,-4.5307,-4.5307,-4.5307,-4.5338,-4.539,-4.5419,-4.5476,-4.5522,-4.5577,-4.5594,-4.5594,-4.5594,-4.5594,-4.5594,-4.5594,-4.5594,-4.5594,-4.5594,-4.5594,-4.5594,-4.5594,-4.521,-4.4626,-4.4211,-4.3226,-4.2048,-4.1419,-4.0643,-3.9912,-3.9583,-3.9363,-3.9192,-3.9129,-3.9101,-3.9101,-3.9101,-3.9101,-3.9101,-3.9101,-3.9101,-3.9101,-3.9101,-3.9101,-3.9101,-3.9101,-3.9101,-3.9101,-3.9101,-3.9101,-3.9101,-3.9101,-3.9101,-3.9101,-3.9101,-3.9101,-3.9101,-3.9101,-3.9101,-3.9073,-3.9036,-3.9007,-3.8993,-3.8993,-3.8896,-3.8866,-3.8921,-3.8656,-3.8541,-3.8613,-3.8641,-3.8665,-3.872,-3.8976,-3.9073,-3.5987,-3.6207,-3.6571,-3.7031,-3.7687,-3.8377,-3.9019,-3.9808,-4.0708,-4.1827,-4.1809,-4.162,-4.1775,-4.2087,-4.2419,-4.2738,-4.3351,-4.386,-4.4008,-4.4114,-4.4154,-4.4154,-4.4425,-4.4637,-4.4739,-4.4976,-4.5162,-4.5297,-4.5307,-4.5307,-4.5307,-4.5307,-4.5307,-4.5307,-4.5307,-4.5307,-4.5307,-4.5307,-4.5307,-4.5307,-4.5307,-4.5317,-4.5359,-4.539,-4.5429,-4.5504,-4.5568,-4.5586,-4.5568,-4.5586,-4.5594,-4.5594,-4.5594,-4.5594,-4.5594,-4.5594,-4.5594,-4.5586,-4.5485,-4.5112,-4.4518,-4.3632,-4.2561,-4.1483,-4.0692,-3.9939,-3.935,-3.935,-3.9219,-3.9101,-3.9101,-3.9101,-3.9101,-3.9101,-3.9101,-3.9101,-3.9101,-3.9101,-3.9101,-3.9101,-3.9101,-3.9101,-3.9101,-3.9101,-3.9101,-3.9101,-3.9101,-3.9101,-3.9101,-3.9101,-3.9101,-3.9101,-3.9101,-3.9101,-3.9101,-3.9101,-3.9073,-3.905,-3.9007,-3.9007,-3.9036,-3.895,-3.8921,-3.8979,-3.895,-3.8964,-3.905,-3.905,-3.9045,-3.9101,-3.9101,-3.9059,-3.673,-3.6464,-3.6143,-3.7243,-3.7562,-3.8025,-3.9643,-4.0524,-4.146,-4.3057,-4.2873,-4.2415,-4.2415,-4.2415,-4.2415,-4.2415,-4.302,-4.3497,-4.3497,-4.3664,-4.3758,-4.3758,-4.4038,-4.436,-4.4643,-4.4739,-4.4934,-4.5267,-4.5307,-4.5307,-4.5307,-4.5307,-4.5307,-4.5307,-4.5307,-4.5307,-4.5307,-4.5307,-4.5307,-4.5307,-4.5307,-4.5307,-4.5307,-4.537,-4.5429,-4.5495,-4.5568,-4.5568,-4.5504,-4.5577,-4.5594,-4.5594,-4.5594,-4.5594,-4.5594,-4.5577,-4.5568,-4.5541,-4.5253,-4.5112,-4.4737,-4.2876,-4.2102,-4.1574,-3.9959,-3.9298,-3.9101,-3.9101,-3.9101,-3.9101,-3.9101,-3.9101,-3.9101,-3.9101,-3.9101,-3.9101,-3.9101,-3.9101,-3.9101,-3.9101,-3.9101,-3.9101,-3.9101,-3.9101,-3.9101,-3.9101,-3.9101,-3.9101,-3.9101,-3.9101,-3.9101,-3.9101,-3.9101,-3.9101,-3.9101,-3.9101,-3.9101,-3.9101,-3.905,-3.9036,-3.9101,-3.8979,-3.8964,-3.9101,-3.905,-3.905,-3.9101,-3.9101,-3.9101,-3.9101,-3.9087,-3.9045,-3.6283,-3.6382,-3.6645,-3.7534,-3.8081,-3.8854,-4.0487,-4.0487,-4.0598,-4.2231,-4.291,-4.3239,-4.3239,-4.3239,-4.3239,-4.3239,-4.3404,-4.348,-4.3429,-4.3464,-4.3445,-4.3339,-4.3627,-4.3977,-4.436,-4.4585,-4.4887,-4.5267,-4.5307,-4.5307,-4.5307,-4.5307,-4.5307,-4.5307,-4.5307,-4.5307,-4.5307,-4.5307,-4.5307,-4.5307,-4.5307,-4.5307,-4.5307,-4.5369,-4.5409,-4.5429,-4.5559,-4.5568,-4.5504,-4.5577,-4.5594,-4.5594,-4.5594,-4.5594,-4.5577,-4.5362,-4.5292,-4.5243,-4.4985,-4.4436,-4.3668,-4.2454,-4.1575,-4.0759,-3.9544,-3.9156,-3.9101,-3.9101,-3.9101,-3.9101,-3.9101,-3.9101,-3.9101,-3.9101,-3.9101,-3.9101,-3.9101,-3.9101,-3.9101,-3.9101,-3.9101,-3.9101,-3.9101,-3.9101,-3.9101,-3.9101,-3.9101,-3.9101,-3.9101,-3.9101,-3.9101,-3.9101,-3.9101,-3.9101,-3.9101,-3.9101,-3.9101,-3.9101,-3.9087,-3.9087,-3.9101,-3.9021,-3.9021,-3.9101,-3.9087,-3.9087,-3.9101,-3.9101,-3.9101,-3.9101,-3.905,-3.8979,-3.6896,-3.6906,-3.6901,-3.7978,-3.8758,-3.9386,-3.9848,-3.9918,-4.0139,-4.0983,-4.2103,-4.3039,-4.3441,-4.3515,-4.3497,-4.3464,-4.3464,-4.3429,-4.3323,-4.3287,-4.3215,-4.316,-4.3304,-4.3562,-4.3878,-4.4121,-4.4425,-4.4789,-4.4976,-4.5057,-4.5057,-4.5205,-4.5307,-4.5307,-4.5307,-4.5307,-4.5307,-4.5307,-4.5307,-4.5307,-4.5307,-4.5307,-4.5307,-4.5359,-4.5399,-4.539,-4.5467,-4.5485,-4.5467,-4.5522,-4.5495,-4.541,-4.541,-4.5332,-4.5201,-4.5063,-4.5007,-4.4985,-4.4701,-4.4316,-4.3698,-4.228,-4.1759,-4.1381,-3.9626,-3.938,-3.964,-3.9212,-3.9101,-3.9101,-3.9101,-3.9101,-3.9101,-3.9101,-3.9101,-3.9101,-3.9101,-3.9101,-3.9101,-3.9101,-3.9101,-3.9101,-3.9101,-3.9101,-3.9101,-3.9101,-3.9101,-3.9101,-3.9101,-3.9101,-3.9101,-3.9101,-3.9101,-3.9101,-3.9101,-3.9101,-3.9101,-3.9101,-3.9101,-3.9101,-3.9101,-3.9059,-3.9059,-3.9101,-3.9101,-3.9101,-3.9101,-3.9101,-3.9073,-3.9045,-3.9021,-3.8954,-3.7368,-3.7373,-3.7168,-3.8563,-3.9405,-3.9753,-3.9239,-3.9515,-3.9937,-4.0065,-4.1277,-4.2506,-4.3167,-4.3423,-4.348,-4.3412,-4.3394,-4.334,-4.3196,-4.3123,-4.3086,-4.3067,-4.3067,-4.3178,-4.3471,-4.3656,-4.3881,-4.4227,-4.4514,-4.4701,-4.4714,-4.4976,-4.5151,-4.5205,-4.5205,-4.5246,-4.5307,-4.5307,-4.5307,-4.5307,-4.5307,-4.5307,-4.5307,-4.5348,-4.5369,-4.5379,-4.54,-4.54,-4.539,-4.5419,-4.5332,-4.518,-4.514,-4.4996,-4.4788,-4.4751,-4.4726,-4.4688,-4.4411,-4.4332,-4.4046,-4.2348,-4.2259,-4.2389,-4.0197,-3.9937,-4.0248,-3.9528,-3.9324,-3.9324,-3.9324,-3.9324,-3.9324,-3.9324,-3.9212,-3.9101,-3.9101,-3.9101,-3.9101,-3.9101,-3.9101,-3.9101,-3.9101,-3.9101,-3.9101,-3.9101,-3.9101,-3.9101,-3.9101,-3.9101,-3.9101,-3.9101,-3.9101,-3.9101,-3.9101,-3.9101,-3.9101,-3.9101,-3.9101,-3.9101,-3.9101,-3.9101,-3.9101,-3.9101,-3.9101,-3.9101,-3.9101,-3.9087,-3.9045,-3.8993,-3.8983,-3.891,-3.5947,-3.6795,-3.7772,-3.9347,-3.9808,-4.0047,-4.0653,-4.0322,-4.0102,-4.0799,-4.168,-4.2323,-4.2433,-4.302,-4.348,-4.3412,-4.3394,-4.3341,-4.3141,-4.3104,-4.3049,-4.2938,-4.2938,-4.3087,-4.3471,-4.3522,-4.3701,-4.4102,-4.4175,-4.4233,-4.436,-4.4402,-4.4565,-4.4856,-4.4868,-4.5011,-4.5297,-4.5307,-4.5307,-4.5307,-4.5307,-4.5307,-4.5307,-4.5307,-4.5317,-4.5317,-4.5361,-4.54,-4.5389,-4.522,-4.5148,-4.5096,-4.4908,-4.4825,-4.4763,-4.4533,-4.4452,-4.443,-4.4151,-4.4048,-4.3899,-4.2943,-4.2705,-4.2612,-4.1571,-4.0847,-4.0378,-4.0253,-4.0215,-4.0215,-4.0215,-4.0215,-4.0215,-4.0215,-3.964,-3.9101,-3.9101,-3.9101,-3.9101,-3.9101,-3.9101,-3.9101,-3.9101,-3.9101,-3.9101,-3.9101,-3.9101,-3.9101,-3.9101,-3.9101,-3.9101,-3.9101,-3.9101,-3.9101,-3.9101,-3.9101,-3.9101,-3.9101,-3.9101,-3.9101,-3.9101,-3.9101,-3.9101,-3.9101,-3.9101,-3.9101,-3.9101,-3.905,-3.9007,-3.9011,-3.8881,-3.8822,-3.6423,-3.7798,-3.9126,-4.0286,-4.091,-4.1093,-4.0543,-4.0157,-3.9863,-3.979,-4.0396,-4.1093,-4.1552,-4.2286,-4.282,-4.2735,-4.3101,-4.3323,-4.3123,-4.3104,-4.3049,-4.2919,-4.2901,-4.2958,-4.316,-4.3232,-4.3355,-4.3526,-4.3754,-4.3927,-4.4008,-4.4202,-4.4369,-4.4572,-4.4572,-4.4656,-4.4801,-4.4934,-4.5109,-4.5307,-4.5307,-4.5307,-4.5307,-4.5307,-4.5307,-4.5307,-4.5339,-4.5269,-4.5113,-4.5019,-4.4849,-4.465,-4.4546,-4.4457,-4.4351,-4.4221,-4.4181,-4.4166,-4.4033,-4.4005,-4.3875,-4.3058,-4.3095,-4.3243,-4.198,-4.1664,-4.1646,-4.12,-4.107,-4.107,-4.107,-4.107,-4.107,-4.107,-4.0438,-3.9825,-3.9825,-3.9435,-3.9101,-3.9101,-3.9101,-3.9101,-3.9101,-3.9101,-3.9101,-3.9101,-3.9101,-3.9101,-3.9101,-3.9101,-3.9101,-3.9101,-3.9101,-3.9101,-3.9101,-3.9101,-3.9101,-3.9101,-3.9101,-3.9101,-3.9101,-3.9101,-3.9101,-3.9101,-3.9101,-3.9073,-3.9031,-3.9007,-3.895,-3.8896,-3.8837,-3.8777,-3.6482,-3.7933,-3.9221,-4.0249,-4.1242,-4.168,-4.0487,-4.0194,-3.9974,-3.9166,-3.9313,-3.9772,-4.038,-4.1313,-4.2032,-4.2168,-4.2699,-4.3086,-4.3087,-4.3104,-4.3049,-4.2919,-4.2901,-4.2901,-4.2901,-4.2812,-4.2831,-4.3031,-4.3137,-4.3323,-4.3625,-4.3884,-4.4114,-4.4289,-4.4289,-4.4332,-4.4397,-4.4663,-4.4934,-4.5173,-4.5173,-4.5224,-4.5297,-4.5205,-4.5224,-4.5307,-4.5307,-4.5132,-4.4861,-4.4812,-4.4585,-4.4279,-4.4221,-4.4121,-4.4005,-4.4005,-4.4005,-4.4005,-4.4005,-4.4005,-4.3893,-4.3299,-4.3503,-4.3782,-4.2575,-4.2482,-4.2667,-4.2073,-4.1887,-4.1887,-4.1887,-4.1887,-4.1887,-4.1887,-4.1293,-4.0601,-4.016,-3.9547,-3.9101,-3.9101,-3.9101,-3.9101,-3.9101,-3.9101,-3.9101,-3.9101,-3.9101,-3.9101,-3.9101,-3.9101,-3.9101,-3.9101,-3.9101,-3.9101,-3.9101,-3.9101,-3.9101,-3.9101,-3.9101,-3.9101,-3.9101,-3.9101,-3.9087,-3.9073,-3.9073,-3.9064,-3.8993,-3.8979,-3.8906,-3.8807,-3.8777,-3.875,-3.5135,-3.5901,-3.6853,-3.8432,-3.9994,-4.1132,-4.1058,-4.104,-4.0802,-3.9992,-3.9258,-3.8781,-3.8817,-4.0104,-4.139,-4.2077,-4.2242,-4.2465,-4.3014,-4.3104,-4.3049,-4.2919,-4.2901,-4.2901,-4.2901,-4.2212,-4.2085,-4.2847,-4.2213,-4.2232,-4.3178,-4.325,-4.3495,-4.4002,-4.4036,-4.4151,-4.4402,-4.4663,-4.48,-4.4831,-4.4831,-4.4981,-4.5297,-4.4969,-4.5011,-4.5307,-4.5307,-4.5109,-4.4788,-4.4599,-4.4402,-4.4196,-4.4005,-4.3942,-4.4005,-4.4005,-4.4005,-4.4005,-4.4005,-4.4005,-4.3986,-4.3949,-4.3968,-4.3986,-4.3893,-4.3373,-4.2797,-4.2742,-4.2742,-4.2742,-4.2742,-4.2742,-4.2742,-4.2742,-4.211,-4.1089,-3.951,-3.912,-3.9101,-3.9101,-3.9101,-3.9101,-3.9101,-3.9101,-3.9101,-3.9101,-3.9101,-3.9101,-3.9101,-3.9101,-3.9101,-3.9101,-3.9101,-3.9101,-3.9101,-3.9101,-3.9101,-3.9101,-3.9101,-3.9101,-3.9101,-3.9101,-3.9059,-3.9007,-3.9011,-3.8993,-3.8993,-3.8939,-3.8881,-3.8807,-3.8735,-3.8707,-3.5611,-3.6111,-3.6798,-3.8927,-3.99,-4.0469,-4.0967,-4.0708,-4.0249,-3.9955,-3.9258,-3.8707,-3.8707,-3.9588,-4.0416,-4.0694,-4.1172,-4.1544,-4.168,-4.2085,-4.2359,-4.2268,-4.2648,-4.2901,-4.2901,-4.2629,-4.2592,-4.2883,-4.2629,-4.2667,-4.3105,-4.2686,-4.2554,-4.2846,-4.2894,-4.331,-4.4136,-4.4236,-4.4374,-4.4546,-4.4546,-4.4617,-4.472,-4.4782,-4.4868,-4.4969,-4.4969,-4.4807,-4.4519,-4.4294,-4.4045,-4.3812,-4.3816,-4.3883,-4.3945,-4.3989,-4.4005,-4.4005,-4.4005,-4.4005,-4.4005,-4.4005,-4.4005,-4.4005,-4.4005,-4.3801,-4.3578,-4.3578,-4.3578,-4.3578,-4.3578,-4.3578,-4.3448,-4.2927,-4.2575,-4.2054,-4.094,-4.029,-3.977,-3.9212,-3.9547,-3.9918,-3.9918,-3.9472,-3.9287,-3.9844,-3.9918,-3.9918,-3.9918,-4.0383,-4.0698,-4.0698,-4.0698,-4.0698,-4.0698,-4.0698,-4.0476,-3.9974,-3.9918,-3.9677,-3.912,-3.9064,-3.9021,-3.8993,-3.8968,-3.8906,-3.8881,-3.8851,-3.8792,-3.8735,-3.8723,-3.8707,-3.5239,-3.5675,-3.6321,-3.8212,-3.8906,-3.9368,-4.0451,-4.0286,-3.99,-3.99,-3.946,-3.9019,-3.8762,-3.9148,-3.9588,-3.9845,-4.0359,-4.0732,-4.0854,-4.1281,-4.1649,-4.1814,-4.2231,-4.2502,-4.2502,-4.2248,-4.2085,-4.2085,-4.1886,-4.1887,-4.2268,-4.1831,-4.1646,-4.1803,-4.2125,-4.266,-4.3423,-4.3794,-4.4094,-4.4279,-4.4279,-4.4303,-4.4397,-4.4479,-4.4572,-4.4663,-4.4559,-4.4465,-4.4388,-4.4106,-4.3846,-4.3599,-4.3736,-4.3835,-4.3897,-4.3974,-4.4005,-4.4005,-4.4005,-4.4005,-4.4005,-4.4005,-4.4005,-4.4005,-4.4005,-4.4005,-4.4005,-4.4005,-4.4005,-4.4005,-4.4005,-4.4005,-4.3875,-4.3336,-4.3002,-4.2649,-4.211,-4.1367,-4.0624,-4.0048,-4.0401,-4.0806,-4.0806,-4.0308,-4.0141,-4.0717,-4.0806,-4.0806,-4.0806,-4.1256,-4.159,-4.159,-4.159,-4.159,-4.159,-4.159,-4.1256,-4.0438,-4.0416,-4.0011,-3.9138,-3.9036,-3.8979,-3.8983,-3.891,-3.8837,-3.878,-3.8792,-3.878,-3.8707,-3.8707,-3.8707,0.0,0.0,0.0,-3.6046,-3.685,-3.7841,-3.946,-3.9808,-3.9808,-3.9898,-3.9879,-3.9625,-3.8872,-3.8744,-3.8982,-3.9735,-3.9845,-4.0056,-4.066,-4.0771,-4.0976,-4.1578,-4.165,-4.1669,-4.1669,-4.0963,-4.0492,-4.0492,-3.984,-3.9802,-4.0651,-4.0687,-4.0755,-4.0961,-4.1796,-4.2286,-4.2304,-4.3423,-4.3989,-4.3989,-4.3989,-4.4121,-4.4355,-4.4106,-4.4151,-4.4374,-4.4106,-4.4151,-4.4374,-4.4091,-4.383,-4.3599,-4.3736,-4.3853,-4.3915,-4.3974,-4.4005,-4.4005,-4.4005,-4.4005,-4.4005,-4.4005,-4.4005,-4.4005,-4.4005,-4.4005,-4.4005,-4.4005,-4.4005,-4.4005,-4.4005,-4.4005,-4.4005,-4.4005,-4.3392,-4.2835,-4.2835,-4.2222,-4.1664,-4.1609,-4.1609,-4.1627,-4.1627,-4.1609,-4.1609,-4.1627,-4.1627,-4.1627,-4.1627,-4.1664,-4.1664,-4.1664,-4.1664,-4.1664,-4.1664,-4.1664,-4.133,-4.0527,-4.0457,-4.0067,-3.9175,-3.9073,-3.8987,-3.891,-3.8837,-3.878,-3.8707,-3.878,-3.8747,-3.8707,-3.8707,-3.8707,-3.3682,0.0,0.0,0.0,0.0,0.0,-3.7786,-3.7713,-3.779,-3.9533,-3.9441,-3.9148,-3.9496,-3.957,-3.9441,-3.9093,-3.9038,-3.9095,-3.9253,-3.9701,-4.0072,-4.0224,-4.0686,-4.0979,-4.0979,-4.069,-4.0492,-4.0492,-4.0311,-4.0293,-4.0545,-4.0141,-3.9967,-4.0138,-4.0989,-4.1717,-4.2286,-4.3195,-4.3632,-4.3632,-4.3632,-4.3664,-4.3761,-4.3923,-4.4033,-4.4106,-4.4033,-4.4033,-4.4094,-4.3763,-4.3582,-4.3549,-4.3617,-4.3736,-4.3853,-4.3897,-4.3961,-4.4005,-4.4005,-4.4005,-4.4005,-4.4005,-4.4005,-4.4005,-4.4005,-4.4005,-4.4005,-4.4005,-4.4005,-4.4005,-4.4005,-4.4005,-4.4005,-4.4005,-4.3838,-4.367,-4.367,-4.3485,-4.2983,-4.1832,-4.2073,-4.2463,-4.2463,-4.198,-4.1794,-4.237,-4.2463,-4.2463,-4.2463,-4.2983,-4.3336,-4.3336,-4.3336,-4.3336,-4.3336,-4.3336,-4.2983,-4.2184,-4.2087,-4.1408,-3.9948,-3.9778,-3.9445,-3.8837,-3.8765,-3.8723,-3.8707,-3.8723,-3.8723,-3.8707,-3.8707,-3.8707,-3.3256,-3.3532,-3.399,-3.4802,0.0,0.0,-3.7052,-3.7144,-3.7276,-3.9038,-3.9294,-3.9239,-3.9368,-3.9662,-3.9643,-3.8836,-3.8982,-3.9059,-3.8679,-3.8962,-3.9317,-3.9615,-4.0007,-4.023,-4.0197,-4.0127,-3.9929,-3.9568,-3.955,-3.955,-3.955,-3.9249,-3.9144,-3.9211,-4.0111,-4.0818,-4.1295,-4.2103,-4.2671,-4.3002,-4.3002,-4.3167,-4.3515,-4.3699,-4.3798,-4.3798,-4.3798,-4.3798,-4.3781,-4.3582,-4.3515,-4.3515,-4.3565,-4.3667,-4.3804,-4.3883,-4.3945,-4.4005,-4.4005,-4.4005,-4.4005,-4.4005,-4.4005,-4.4005,-4.4005,-4.4005,-4.4005,-4.4005,-4.4005,-4.4005,-4.4005,-4.4005,-4.4005,-4.4005,-4.4005,-4.4005,-4.4005,-4.4005,-4.3726,-4.2779,-4.2983,-4.3299,-4.3299,-4.2909,-4.276,-4.3225,-4.3299,-4.3299,-4.3299,-4.3708,-4.4005,-4.4005,-4.4005,-4.4005,-4.4005,-4.4005,-4.3636,-4.2807,-4.2724,-4.1937,-4.0226,-4.0068,-3.962,-3.8825,-3.8735,-3.8707,-3.8707,-3.8707,-3.8707,-3.8707,-3.8707,-3.8707,-3.2894,-3.3316,-3.4082,-3.4711,-3.4472,0.0,-3.6629,-3.7162,-3.7456,-3.8267,-3.9001,-3.9313,-3.8689,-3.9221,-3.946,-3.8579,-3.9258,-3.9591,-3.8635,-3.8525,-3.8805,-3.9528,-3.9529,-3.9496,-3.9523,-3.9434,-3.9055,-3.828,-3.8209,-3.8209,-3.8209,-3.832,-3.8399,-3.8399,-3.9381,-3.99,-3.99,-4.0799,-4.1589,-4.2304,-4.2396,-4.28,-4.3515,-4.3515,-4.3515,-4.3515,-4.3515,-4.3515,-4.3515,-4.3515,-4.3515,-4.3515,-4.3565,-4.3667,-4.3788,-4.3867,-4.3929,-4.3989,-4.4005,-4.4005,-4.4005,-4.4005,-4.4005,-4.4005,-4.4005,-4.4005,-4.4005,-4.4005,-4.4005,-4.4005,-4.4005,-4.4005,-4.4005,-4.4005,-4.4005,-4.4005,-4.4005,-4.4005,-4.4005,-4.4005,-4.4005,-4.4005,-4.4005,-4.4005,-4.4005,-4.4005,-4.4005,-4.4005,-4.4005,-4.4005,-4.4005,-4.4005,-4.4005,-4.4005,-4.4005,-4.4005,-4.3677,-4.2878,-4.2826,-4.2054,-4.028,-4.0151,-3.9697,-3.881,-3.8719,-3.8707,-3.8707,-3.8707,-3.8707,-3.8707,-3.8707,-3.8707,-3.344,-3.4142,-3.4656,-3.4174,-3.4926,0.0,-3.4724,-3.5018,-3.572,-3.6597,-3.689,-3.7147,-3.7639,-3.8377,-3.8469,-3.7,-3.8524,-3.9606,-3.8768,-3.8658,-3.8951,-3.9742,-3.9166,-3.899,-3.967,-3.9008,-3.8454,-3.8292,-3.8242,-3.8209,-3.8209,-3.832,-3.8399,-3.8399,-3.9381,-3.99,-3.99,-4.135,-4.2139,-4.2304,-4.2947,-4.3349,-4.3515,-4.3515,-4.3515,-4.3515,-4.3515,-4.3515,-4.3515,-4.3515,-4.3515,-4.3515,-4.3496,-4.3583,-4.3651,-4.3769,-4.3867,-4.3929,-4.3974,-4.4005,-4.4005,-4.4005,-4.4005,-4.4005,-4.4005,-4.4005,-4.4005,-4.4005,-4.4005,-4.4005,-4.4005,-4.4005,-4.4005,-4.4005,-4.4005,-4.4005,-4.4005,-4.4005,-4.4005,-4.4005,-4.4005,-4.4005,-4.4005,-4.4005,-4.4005,-4.4005,-4.4005,-4.4005,-4.4005,-4.4005,-4.4005,-4.4005,-4.4005,-4.4005,-4.4005,-4.4005,-4.3899,-4.3675,-4.3629,-4.2809,-4.107,-4.0919,-4.0191,-3.8756,-3.8707,-3.8707,-3.8707,-3.8707,-3.8707,-3.8707,-3.8707,-3.8707,-3.3298,-3.3775,-3.4399,-3.4399,-3.4724,0.0,0.0,-3.5023,-3.5261,-3.6119,-3.6303,-3.6413,-3.6831,-3.7551,-3.7826,-3.7033,-3.8594,-3.9625,-3.8817,-3.9056,-3.9606,-4.0396,-3.974,-3.9362,-3.9754,-3.9292,-3.8758,-3.8294,-3.8225,-3.8209,-3.8209,-3.8289,-3.8354,-3.8354,-3.8914,-3.9195,-3.9195,-4.0471,-4.1295,-4.1717,-4.2525,-4.3112,-4.3515,-4.3515,-4.3515,-4.3515,-4.3515,-4.3515,-4.3515,-4.3515,-4.3515,-4.3515,-4.3515,-4.3531,-4.3599,-4.3667,-4.3769,-4.3867,-4.3929,-4.3929,-4.3915,-4.3945,-4.3961,-4.3961,-4.3961,-4.3974,-4.4005,-4.4005,-4.4005,-4.4005,-4.4005,-4.4005,-4.4005,-4.4005,-4.4005,-4.4005,-4.4005,-4.4005,-4.4005,-4.4005,-4.4005,-4.4005,-4.4005,-4.4005,-4.4005,-4.4005,-4.4005,-4.4005,-4.4005,-4.4005,-4.4005,-4.4005,-4.4005,-4.3989,-4.3942,-4.3961,-4.3878,-4.3767,-4.3718,-4.2932,-4.1232,-4.1128,-4.0343,-3.8726,-3.8707,-3.8707,-3.8707,-3.8707,-3.8707,-3.8707,-3.8707,-3.8707,-3.3665,-3.3899,-3.4596,-3.4931,-3.4747,-3.4743,0.0,0.0,0.0,-3.5716,-3.5826,-3.5826,-3.5826,-3.6468,-3.6978,-3.6813,-3.841,-3.9386,-3.8579,-3.9166,-4.0029,-4.0985,-4.0396,-3.9939,-4.0042,-3.9652,-3.9101,-3.8496,-3.8281,-3.8281,-3.8426,-3.8348,-3.8307,-3.8307,-3.8433,-3.851,-3.851,-3.9428,-4.0304,-4.1113,-4.1919,-4.2708,-4.3515,-4.3515,-4.3515,-4.3515,-4.3515,-4.3515,-4.3515,-4.3515,-4.3515,-4.3515,-4.3515,-4.3531,-4.3582,-4.3599,-4.3667,-4.3769,-4.3851,-4.3853,-4.3804,-4.3867,-4.3883,-4.3883,-4.3883,-4.3913,-4.3958,-4.3974,-4.3974,-4.3974,-4.4005,-4.4005,-4.4005,-4.4005,-4.4005,-4.4005,-4.4005,-4.4005,-4.4005,-4.4005,-4.4005,-4.4005,-4.4005,-4.4005,-4.4005,-4.4005,-4.4005,-4.4005,-4.4005,-4.4005,-4.4005,-4.4005,-4.4005,-4.3974,-4.3929,-4.3913,-4.3849,-4.3651,-4.3651,-4.2883,-4.1185,-4.0802,-4.0031,-3.8726,-3.8707,-3.8707,-3.8707,-3.8707,-3.8707,-3.8707,-3.8707,-3.8707,-3.5936,-3.6483,-3.6725,-3.5353,-3.6046,-3.6556,-3.4541,0.0,-3.4821,-3.4211,0.0,-3.4082,-3.4082,0.0,0.0,-3.4339,-3.6817,-3.856,-3.7749,-3.8322,-3.9405,-4.0912,-4.0396,-4.0175,-4.0877,-3.9483,-3.8769,-3.9308,-3.8641,-3.8517,-3.9224,-3.8657,-3.8307,-3.8307,-3.8433,-3.851,-3.851,-3.9428,-4.0304,-4.1113,-4.1919,-4.2708,-4.3515,-4.3515,-4.3515,-4.3515,-4.3515,-4.3515,-4.3515,-4.3515,-4.3515,-4.3515,-4.3515,-4.3496,-4.3513,-4.3565,-4.3599,-4.3651,-4.3769,-4.3804,-4.3804,-4.3804,-4.382,-4.382,-4.382,-4.382,-4.3853,-4.3881,-4.3913,-4.3929,-4.3989,-4.4005,-4.4005,-4.4005,-4.4005,-4.4005,-4.4005,-4.4005,-4.4005,-4.4005,-4.4005,-4.4005,-4.4005,-4.4005,-4.4005,-4.4005,-4.4005,-4.4005,-4.4005,-4.4005,-4.4005,-4.4005,-4.4005,-4.4005,-4.3989,-4.3989,-4.3929,-4.3788,-4.3788,-4.2967,-4.1167,-3.9719,-3.8891,-3.8707,-3.8707,-3.8707,-3.8707,-3.8707,-3.8707,-3.8707,-3.8707,-3.8707,-3.6431,-3.6556,-3.6615,-3.5936,-3.5899,-3.5789,-3.4729,-3.4399,-3.4211,-3.3862,0.0,0.0,0.0,0.0,0.0,0.0,-3.6083,-3.7184,-3.6835,-3.7511,-3.8762,-4.0838,-3.957,-3.8985,-4.0223,-3.9595,-3.9405,-4.0192,-3.9401,-3.9059,-3.9437,-3.913,-3.8714,-3.8259,-3.8368,-3.8446,-3.8446,-3.9397,-4.0304,-4.1113,-4.1919,-4.2708,-4.3515,-4.3515,-4.3515,-4.3515,-4.3515,-4.3515,-4.3515,-4.3515,-4.3515,-4.3515,-4.3515,-4.3515,-4.3496,-4.3513,-4.3531,-4.3566,-4.3651,-4.3669,-4.3617,-4.3667,-4.3684,-4.3703,-4.3788,-4.3804,-4.382,-4.3883,-4.3897,-4.3913,-4.3974,-4.4005,-4.4005,-4.4005,-4.4005,-4.4005,-4.4005,-4.4005,-4.4005,-4.4005,-4.4005,-4.4005,-4.4005,-4.4005,-4.4005,-4.4005,-4.4005,-4.4005,-4.4005,-4.4005,-4.4005,-4.4005,-4.4005,-4.3989,-4.3945,-4.3945,-4.3897,-4.3804,-4.2851,-4.194,-4.113,-3.9536,-3.8707,-3.8707,-3.8707,-3.8707,-3.8707,-3.8707,-3.8707,-3.8707,-3.8707,-3.8707,-3.711,-3.6964,-3.6853,-3.6413,-3.5826,-3.5243,-3.4784,-3.438,-3.4137,-3.4137,-3.4321,0.0,0.0,0.0,0.0,0.0,0.0,-3.6211,-3.5973,-3.645,-3.7643,-3.9863,-3.8762,-3.8362,-3.9694,-3.9487,-3.9694,-4.0749,-3.996,-3.9637,-4.0157,-3.9708,-3.9167,-3.8569,-3.8445,-3.8399,-3.8399,-3.9399,-4.0304,-4.1113,-4.1919,-4.2708,-4.3515,-4.3515,-4.3515,-4.3515,-4.3515,-4.3515,-4.3515,-4.3515,-4.3515,-4.3515,-4.3515,-4.3515,-4.3515,-4.3515,-4.3515,-4.3515,-4.3548,-4.3531,-4.3515,-4.3548,-4.3565,-4.36,-4.3686,-4.3719,-4.3736,-4.38,-4.3816,-4.3849,-4.3961,-4.3974,-4.3974,-4.4005,-4.4005,-4.4005,-4.4005,-4.4005,-4.4005,-4.4005,-4.4005,-4.4005,-4.4005,-4.4005,-4.4005,-4.4005,-4.4005,-4.4005,-4.4005,-4.4005,-4.4005,-4.4005,-4.4005,-4.3974,-4.3929,-4.3913,-4.3867,-4.3753,-4.2343,-4.1379,-4.1095,-3.9772,-3.8927,-3.8707,-3.8707,-3.8707,-3.8707,-3.8707,-3.8707,-3.8707,-3.8707,-3.8707,-3.8634,-3.8615,-3.8248,-3.6688,-3.6266,-3.5826,-3.4211,-3.4417,-3.4968,-3.4968,-3.5642,-3.6211,-3.6211,0.0,0.0,0.0,0.0,0.0,0.0,-3.5059,-3.5701,-3.7419,-3.823,-3.9001,-3.9808,-3.9006,-3.9124,-4.0761,-4.0043,-4.0212,-4.1829,-4.0393,-3.9487,-3.9469,-3.8769,-3.8399,-3.8399,-3.9399,-4.0304,-4.1113,-4.1919,-4.2708,-4.3515,-4.3515,-4.3515,-4.3515,-4.3515,-4.3515,-4.3515,-4.3515,-4.3515,-4.3515,-4.3515,-4.3515,-4.3515,-4.3515,-4.3515,-4.3515,-4.3496,-4.3496,-4.3515,-4.3496,-4.3496,-4.3496,-4.3515,-4.3515,-4.3513,-4.3582,-4.3599,-4.3649,-4.3849,-4.3897,-4.3913,-4.3989,-4.4005,-4.4005,-4.4005,-4.4005,-4.4005,-4.4005,-4.4005,-4.4005,-4.4005,-4.4005,-4.4005,-4.4005,-4.4005,-4.4005,-4.4005,-4.4005,-4.4005,-4.4005,-4.4005,-4.4005,-4.4005,-4.3945,-4.3816,-4.3615,-4.2759,-4.1919,-4.1132,-4.0304,-3.9496,-3.8726,-3.8707,-3.8707,-3.8707,-3.8707,-3.8707,-3.8707,-3.8707,-3.8707,-3.8707,-3.8707,-3.845,-3.7364,-3.6703,-3.5991,-3.4839,-3.4802,-3.5004,-3.5004,-3.5697,-3.6303,-3.6303,0.0,0.0,0.0,0.0,0.0,0.0,-3.4546,-3.4601,-3.5701,-3.7533,-3.8395,-3.7588,-3.8614,-3.9792,-4.0936,-4.011,-4.0315,-4.2043,-4.1025,-4.0102,-3.9505,-3.9384,-3.9031,-3.8417,-3.9399,-4.0304,-4.1113,-4.1919,-4.2708,-4.3515,-4.3515,-4.3515,-4.3515,-4.3515,-4.3515,-4.3515,-4.3515,-4.3515,-4.3515,-4.3515,-4.3515,-4.3515,-4.3515,-4.3515,-4.3515,-4.3515,-4.3515,-4.3515,-4.3515,-4.3515,-4.3515,-4.3515,-4.3515,-4.3496,-4.3582,-4.3599,-4.3651,-4.3786,-4.3818,-4.3835,-4.3867,-4.3867,-4.3883,-4.3929,-4.3945,-4.3961,-4.3989,-4.4005,-4.4005,-4.4005,-4.4005,-4.4005,-4.4005,-4.4005,-4.4005,-4.4005,-4.4005,-4.4005,-4.4005,-4.4005,-4.4005,-4.4005,-4.3945,-4.3816,-4.3599,-4.2827,-4.2224,-4.1919,-4.113,-4.0322,-3.9515,-3.9478,-3.9239,-3.8707,-3.8707,-3.8707,-3.8707,-3.8707,-3.8707,-3.8707,-3.8707,-3.8505,-3.7694,-3.7107,-3.6486,-3.5661,-3.5683,-3.5899,-3.5899,-3.656,-3.7147,-3.7147,-3.7147,0.0,0.0,0.0,0.0,0.0,-3.4137,-3.399,-3.4509,-3.6233,-3.7221,-3.6776,-3.7787,-3.909,-4.0563,-4.0046,-4.0417,-4.2128,-4.1366,-4.0606,-4.0043,-3.9595,-3.9045,-3.843,-3.969,-4.0598,-4.1113,-4.2213,-4.3002,-4.3515,-4.3515,-4.3515,-4.3515,-4.3515,-4.3515,-4.3515,-4.3515,-4.3515,-4.3515,-4.3515,-4.3515,-4.3515,-4.3515,-4.3515,-4.3515,-4.3515,-4.3515,-4.3515,-4.3515,-4.3515,-4.3515,-4.3515,-4.3515,-4.3515,-4.3548,-4.3565,-4.36,-4.3703,-4.3736,-4.3736,-4.3788,-4.3804,-4.382,-4.3851,-4.3883,-4.3915,-4.3929,-4.3958,-4.3989,-4.3958,-4.3989,-4.4005,-4.4005,-4.4005,-4.4005,-4.4005,-4.4005,-4.4005,-4.4005,-4.4005,-4.3974,-4.3929,-4.3849,-4.3734,-4.3565,-4.3068,-4.2647,-4.2304,-4.1809,-4.1148,-4.0341,-4.0322,-3.9937,-3.9129,-3.9129,-3.8982,-3.8707,-3.8707,-3.8707]},{"header":{"parameterUnit":"m.s-1","parameterCategory":1,"la1":30.6,"la2":29.2853,"lo1":-89.7004,"lo2":-87.6739,"dy":0.0162,"dx":0.0183,"nx":112,"ny":82,"refTime":"2026-04-14T00:00:00:Z","depth":0,"parameterNumber":3,"parameterNumberName":"V-component_of_WINDS"},"data":[0.0,0.0,0.0,0.0,0.0,0.0,0.0,0.0,0.0,0.0,0.0,0.0,0.0,0.0,0.0,0.0,0.0,0.0,0.0,0.0,0.0,0.0,0.0,0.0,0.0,0.0,0.0,0.0,0.0,0.0,0.0,0.0,0.0,0.0,0.0,0.0,0.0,0.0,0.0,0.0,0.0,0.0,0.0,0.0,0.0,0.0,0.0,0.0,0.0,0.0,0.0,0.0,0.0,0.0,0.0,0.0,0.0,0.0,0.0,0.0,0.0,0.0,0.0,0.0,0.0,0.0,0.0,0.0,0.0,0.0,0.0,0.0,0.0,0.0,0.0,0.0,0.0,0.0,0.0,0.0,0.0,0.0,0.0,0.0,0.0,0.0,0.0,0.0,0.0,0.0,-0.0438,-0.0767,-0.1192,-0.1446,-0.1476,-0.142,-0.1361,-0.1309,0.0,0.0,0.0,0.0,0.0,0.0,0.0,0.0,0.0,0.0,0.0,0.0,0.0,0.0,0.0,0.0,0.0,0.0,0.0,0.0,0.0,0.0,0.0,0.0,0.0,0.0,0.0,0.0,0.0,0.0,0.0,0.0,0.0,0.0,0.0,0.0,0.0,0.0,0.0,0.0,0.0,0.0,0.0,0.0,0.0,0.0,0.0,0.0,0.0,0.0,0.0,0.0,0.0,0.0,0.0,0.0,0.0,0.0,0.0,0.0,0.0,0.0,0.0,0.0,0.0,0.0,0.0,0.0,0.0,0.0,0.0,0.0,0.0,0.0,0.0,0.0,0.0,0.0,0.0,0.0,0.0,0.0,0.0,0.0,0.0,0.0,0.0,0.0,0.0,0.0,0.0,0.0,0.0,0.0,0.0,0.0,0.0,0.0,0.0,0.0,0.0,0.0,0.0,0.0,-0.0262,-0.075,-0.1026,-0.126,-0.1476,-0.1446,-0.1383,-0.1308,0.0,0.0,0.0,0.0,0.0,0.0,0.0,0.0,0.0,0.0,0.0,0.0,0.0,0.0,0.0,0.0,0.0,0.0,0.0,0.0,0.0,0.0,0.0,0.0,0.0,0.0,0.0,0.0,0.0,0.0,0.0,0.0,0.0,0.0,0.0,0.0,0.0,0.0,0.0,0.0,0.0,0.0,0.0,0.0,0.0,0.0,0.0,0.0,0.0,0.0,0.0,0.0,0.0,0.0,0.0,0.0,0.0,0.0,0.0,0.0,0.0,0.0,0.0,0.0,0.0,0.0,0.0,0.0,0.0,0.0,0.0,0.0,0.0,0.0,0.0,0.0,0.0,0.0,0.0,0.0,0.0,0.0,0.0,0.0,0.0,0.0,0.0,0.0,0.0,0.0,0.0,0.0,0.0,0.0,0.0,0.0,0.0,0.0,0.0,0.0,0.0,0.0,0.0,-0.0131,-0.0359,-0.077,-0.0999,-0.1227,-0.1477,-0.1457,-0.1352,-0.1309,-0.1515,0.0,0.0,0.0,0.0,0.0,0.0,0.0,0.0,0.0,0.0,0.0,0.0,0.0,0.0,0.0,0.0,0.0,0.0,0.0,0.0,0.0,0.0,0.0,0.0,0.0,0.0,0.0,0.0,0.0,0.0,0.0,0.0,0.0,0.0,0.0,0.0,0.0,0.0,0.0,0.0,0.0,0.0,0.0,0.0,0.0,0.0,0.0,0.0,0.0,0.0,0.0,0.0,0.0,0.0,0.0,0.0,0.0,0.0,0.0,0.0,0.0,0.0,0.0,0.0,0.0,0.0,0.0,0.0,0.0,0.0,0.0,0.0,0.0,0.0,0.0,0.0,0.0,0.0,0.0,0.0,0.0,0.0,0.0,0.0,0.0,0.0,0.0,0.0,0.0,0.0,0.0,0.0,0.0,0.0,0.0,0.0,0.0,0.0,0.0,0.0,0.0,0.0,-0.0182,-0.0418,-0.0781,-0.0917,-0.1144,-0.1478,-0.1418,-0.1359,-0.1309,-0.13,0.0,0.0,0.0,0.0,0.0,0.0,0.0,0.0,0.0,0.0,0.0,0.0,0.0,0.0,0.0,0.0,0.0,0.0,0.0,0.0,0.0,0.0,0.0,0.0,0.0,0.0,0.0,0.0,0.0,0.0,0.0,0.0,0.0,0.0,0.0,0.0,0.0,0.0,0.0,0.0,0.0,0.0,0.0,0.0,0.0,0.0,0.0,0.0,0.0,0.0,0.0,0.0,0.0,0.0,0.0,0.0,0.0,0.0,0.0,0.0,0.0,0.0,0.0,0.0,0.0,0.0,0.0,0.0,0.0,0.0,0.0,0.0,0.0,0.0,0.0,0.0,0.0,0.0,0.0,0.0,0.0,0.0,0.0,0.0,0.0,0.0,0.0,0.0,0.0,0.0,0.0,0.0,0.0,0.0,0.0,0.0,0.0,0.0,0.0,0.0,0.0,0.0,0.0,-0.0239,-0.0735,-0.0772,-0.0954,-0.1478,-0.1444,-0.138,-0.1307,-0.128,0.0,0.0,0.0,0.0,0.0,0.0,0.0,0.0,0.0,0.0,0.0,0.0,0.0,0.0,0.0,0.0,0.0,0.0,0.0,0.0,0.0,0.0,0.0,0.0,0.0,0.0,0.0,0.0,0.0,0.0,0.0,0.0,0.0,0.0,0.0,0.0,0.0,0.0,0.0,0.0,0.0,0.0,0.0,0.0,0.0,0.0,0.0,0.0,0.0,0.0,0.0,0.0,0.0,0.0,0.0,0.0,0.0,0.0,0.0,0.0,0.0,0.0,0.0,0.0,0.0,0.0,0.0,0.0,0.0,0.0,0.0,0.0,0.0,0.0,0.0,0.0,0.0,0.0,0.0,0.0,0.0,0.0,0.0,0.0,0.0,0.0,0.0,0.0,0.0,0.0,0.0,0.0,0.0,0.0,0.0,0.0,0.0,0.0,0.0,0.0,0.0,0.0,0.0,-0.0142,-0.0489,-0.0627,-0.0854,-0.1218,-0.1358,-0.1354,-0.1309,0.0,0.0,0.0,0.0,0.0,0.0,0.0,0.0,0.0,0.0,0.0,0.0,0.0,0.0,0.0,0.0,0.0,0.0,0.0,0.0,0.0,0.0,0.0,0.0,0.0,0.0,0.0,0.0,0.0,0.0,0.0,0.0,0.0,0.0,0.0,0.0,0.0,0.0,0.0,0.0,0.0,0.0,0.0,0.0,0.0,0.0,0.0,0.0,0.0,0.0,0.0,0.0,0.0,0.0,0.0,0.0,0.0,0.0,0.0,0.0,0.0,0.0,0.0,0.0,0.0,0.0,0.0,0.0,0.0,0.0,0.0,0.0,0.0,0.0,0.0,0.0,0.0,0.0,0.0,0.0,0.0,0.0,0.0,0.0,0.0,0.0,0.0,0.0,0.0,0.0,0.0,0.0,0.0,0.0,0.0,0.0,0.0,0.0,0.0,0.0,0.0,0.0,0.0,0.0,-0.0095,-0.0391,-0.0531,-0.0709,-0.0973,-0.1166,-0.1257,-0.117,0.0,0.0,0.0,0.0,0.0,0.0,0.0,0.0,0.0,0.0,0.0,0.0,0.0,0.0,0.0,0.0,0.0,0.0,0.0,0.0,0.0,0.0,0.0,0.0,0.0,0.0,0.0,0.0,0.0,0.0,0.0,0.0,0.0,0.0,0.0,0.0,0.0,0.0,0.0,0.0,0.0,0.0,0.0,0.0,0.0,0.0,0.0,0.0,0.0,0.0,0.0,0.0,0.0,0.0,0.0,0.0,0.0,0.0,0.0,0.0,0.0,0.0,0.0,0.0,0.0,0.0,0.0,0.0,0.0,0.0,0.0,0.0,0.0,0.0,0.0,0.0,0.0,0.0,0.0,0.0,0.0,0.0,0.0,0.0,0.0,0.0,0.0,0.0,0.0,0.0,0.0,0.0,0.0,0.0,0.0,0.0,0.0,0.0,0.0,0.0,0.0,0.0,0.0,0.0,-0.0096,-0.0343,-0.0386,-0.052,-0.0787,-0.0918,-0.096,0.0,0.0,0.0,0.0,0.0,0.0,0.0,0.0,0.0,0.0,0.0,0.0,0.0,0.0,0.0,0.0,0.0,0.0,0.0,0.0,0.0,0.0,0.0,0.0,0.0,0.0,0.0,0.0,0.0,0.0,0.0,0.0,0.0,0.0,0.0,0.0,0.0,0.0,0.0,0.0,0.0,0.0,0.0,0.0,0.0,0.0,0.0,0.0,0.0,0.0,0.0,0.0,0.0,0.0,0.0,0.0,0.0,0.0,0.0,0.0,0.0,0.0,0.0,0.0,0.0,0.0,0.0,0.0,0.0,0.0,0.0,0.0,0.0,0.0,0.0,0.0,0.0,0.0,0.0,0.0,0.0,0.0,0.0,0.0,0.0,0.0,0.0,0.0,0.0,0.0,0.0,0.0,0.0,0.0,0.0,0.0,0.0,0.0,0.0,0.0,0.0,0.0,0.0,0.1003,0.1001,0.0934,0.0893,0.0094,-0.0417,-0.0499,-0.0703,-0.0806,-0.0898,0.0,0.0,0.0,0.0,0.0,0.0,0.0,0.0,0.0,0.0,0.0,0.0,0.0,0.0,0.0,0.0,0.0,0.0,0.0,0.0,0.0,0.0,0.0,0.0,0.0,0.0,0.0,0.0,0.0,0.0,0.0,0.0,0.0,0.0,0.0,0.0,0.0,0.0,0.0,0.0,0.0,0.0,0.0,0.0,0.0,0.0,0.0,0.0,0.0,0.0,0.0,0.0,0.0,0.0,0.0,0.0,0.0,0.0,0.0,0.0,0.0,0.0,0.0,0.0,0.0,0.0,0.0,0.0,0.0,0.0,0.0,0.0,0.0,0.0,0.0,0.0,0.0,0.0,0.0,0.0,0.0,0.0,0.0,0.0,0.0,0.0,0.0,0.0,0.0,0.0,0.0,0.0,0.0,0.0,0.0,0.0,0.0,0.0,0.0,0.0,0.0,0.0,0.1833,0.1925,0.1984,0.1984,0.1339,0.0916,0.0897,0.0698,0.0463,0.0361,0.0,0.0,0.0,0.0,0.0,0.0,0.0,0.0,0.0,0.0,0.0,0.0,0.0,0.0,0.0,0.0,0.0,0.0,0.0,0.0,0.0,0.0,0.0,0.0,0.0,0.0,0.0,0.0,0.0,0.0,0.0,0.0,0.0,0.0,0.0,0.0,0.0,0.0,0.0,0.0,0.0,0.0,0.0,0.0,0.0,0.0,0.0,0.0,0.0,0.0,0.0,0.0,0.0,0.0,0.0,0.0,0.0,0.0,0.0,0.0,0.0,0.0,0.0,0.0,0.0,0.0,0.0,0.0,0.0,0.0,0.0,0.0,0.0,0.0,0.0,0.0,0.0,0.0,0.0,0.0,0.0,0.0,0.0,0.0,0.0,0.0,0.0,0.0,0.0,0.0,0.0,0.0,0.0,0.0,0.0,0.0,0.0,0.0,0.0,0.0,0.0,0.0,0.2634,0.2879,0.3035,0.3035,0.2943,0.2922,0.2917,0.2626,0.2345,0.2196,0.0,0.0,0.0,0.0,0.0,0.0,0.0,0.0,0.0,0.0,0.0,0.0,0.0,0.0,0.0,0.0,0.0,0.0,0.0,0.0,0.0,0.0,0.0,0.0,0.0,0.0,0.0,0.0,0.0,0.0,0.0,0.0,0.0,0.0,0.0,0.0,0.0,0.0,0.0,0.0,0.0,0.0,0.0,0.0,0.0,0.0,0.0,0.0,0.0,0.0,0.0,0.0,0.0,0.0,0.0,0.0,0.0,0.0,0.0,0.0,0.0,0.0,0.0,0.0,0.0,0.0,0.0,0.0,0.0,0.0,0.0,0.0,0.0,0.0,0.0,0.0,0.0,0.0,0.0,0.0,0.0,0.0,0.0,0.0,0.0,0.0,0.0,0.0,0.0,0.0,0.0,0.0,0.0,0.0,0.0,0.0,0.0,0.0,0.0,0.0,0.0,0.0,0.3754,0.3894,0.401,0.401,0.3334,0.288,0.2913,0.2755,0.2509,0.2235,0.1833,0.0,0.0,0.0,0.0,0.0,0.0,0.0,0.0,0.0,0.0,0.0,0.0,0.0,0.0,0.0,0.0,0.0,0.0,0.0,0.0,0.0,0.0,0.0,0.0,0.0,0.0,0.0,0.0,0.0,0.0,0.0,0.0,0.0,0.0,0.0,0.0,0.0,0.0,0.0,0.0,0.0,0.0,0.0,0.0,0.0,0.0,0.0,0.0,0.0,0.0,0.0,0.0,0.0,0.0,0.0,0.0,0.0,0.0,0.0,0.0,0.0,0.0,0.0,0.0,0.0,0.0,0.0,0.0,0.0,0.0,0.0,0.0,0.0,0.0,0.0,0.0,0.0,0.0,0.0,0.0,0.0,0.0,0.0,0.0,0.0,0.0,0.0,0.0,0.0,0.0,0.0,0.0,0.0,0.0,0.0,0.0,0.0,0.0,0.0,0.0,0.0,0.4534,0.478,0.4971,0.4971,0.4523,0.4237,0.4148,0.4063,0.3848,0.3473,0.3006,0.0,0.0,0.0,0.0,0.0,0.0,0.0,0.0,0.0,0.0,0.0,0.0,0.0,0.0,0.0,0.0,0.0,0.0,0.0,0.0,0.0,0.0,0.0,0.0,0.0,0.0,0.0,0.0,0.0,0.0,0.0,0.0,0.0,0.0,0.0,0.0,0.0,0.0,0.0,0.0,0.0,0.0,0.0,0.0,0.0,0.0,0.0,0.0,0.0,0.0,0.0,0.0,0.0,0.0052,0.0052,0.0,0.0,0.0,0.0,0.0,0.0,0.0,0.0,0.0,0.0,0.0,0.0,0.0,0.0,0.0,0.0,0.0,0.0,0.0,0.0,0.0,0.0,0.0,0.0,0.0,0.0,0.0,0.0,0.0,0.0,0.2021,0.276,0.3074,0.2981,0.2041,0.0,0.0,0.0,0.0,0.0,0.0,0.0,0.0,0.0,0.0,0.0,0.5072,0.5421,0.5688,0.5688,0.5688,0.564,0.5518,0.5439,0.5224,0.4849,0.4159,0.3541,0.0,0.0,0.0,0.0,0.0,0.0,0.0,0.0,0.0,0.0,0.0,0.0,0.0,0.0,0.0,0.0,0.0,0.0,0.0,0.0,0.0,0.0,0.0,0.0,0.0,0.0,0.0,0.0,0.0,0.0,0.0,0.0,0.1455,0.1402,0.0,0.0,0.0,0.0,0.0,0.0,0.0,0.0,0.0,0.0,0.0,0.0,0.0,0.0872,0.0852,0.083,0.0686,0.037,0.0328,0.022,0.0,0.0,0.0,0.0,0.0,0.0,0.0,0.0,0.0,0.0,0.0,0.0,0.0,0.0,0.0,0.0,0.0,0.0,0.0,0.0,0.0,0.0,0.0,0.0,0.0,0.0,0.0,0.0,0.0,0.0,0.2864,0.3091,0.3653,0.4096,0.394,0.3288,0.2688,0.2643,0.3088,0.3415,0.0,0.0,0.0,0.0,0.0,0.0,0.5336,0.5564,0.5688,0.5688,0.5688,0.564,0.5518,0.5439,0.5262,0.501,0.4605,0.4359,0.4264,0.3935,0.0,0.0,0.0,0.0,0.0,0.0,0.0,0.0,0.0,0.0,0.0,0.0,0.0,0.0,0.0,0.0,0.0,0.0,0.0,0.0,0.0,0.0,0.0,0.0,0.0,0.0,0.0,0.0,0.0,0.1907,0.2301,0.2259,0.2811,0.3133,0.0,0.0,0.0,0.0,0.0,0.0,0.0,0.0,0.0,0.413,0.3592,0.3286,0.3166,0.3144,0.2645,0.1675,0.1716,0.1283,0.0499,0.0499,0.0388,0.0222,0.0222,0.0165,0.0,0.0,0.0,0.0,0.0,0.0,0.0,0.0,0.0897,0.0978,0.1571,0.2083,0.2418,0.2457,0.0,0.0,0.0,0.0,0.0,0.0,0.0,0.3275,0.4266,0.428,0.4124,0.4591,0.5025,0.525,0.5131,0.4649,0.4229,0.4115,0.4323,0.4433,0.4157,0.4395,0.0,0.0,0.0,0.5175,0.5388,0.5583,0.5688,0.5688,0.5626,0.5537,0.5458,0.5336,0.5165,0.4893,0.4762,0.4586,0.4382,0.4268,0.4112,0.0,0.0,0.0,0.0,0.0,0.0,0.0,0.0,0.0,0.0,0.0,0.0,0.0,0.0,0.0,0.0,0.0,0.0,0.0,0.0,0.0,0.0,0.0,0.0,0.0,0.0,0.0,0.0,0.2743,0.3424,0.3343,0.4077,0.453,0.0,0.0,0.0,0.0,0.0,0.0,0.5376,0.5142,0.5172,0.5598,0.5346,0.5181,0.5056,0.5013,0.4443,0.324,0.3277,0.274,0.1848,0.1848,0.168,0.1456,0.1456,0.1344,0.1116,0.0321,0.0,0.0051,0.0296,0.0389,0.0533,0.162,0.2005,0.2134,0.2943,0.3383,0.3567,0.3583,0.3774,0.407,0.4559,0.0,0.0,0.0,0.0,0.4248,0.5004,0.5222,0.541,0.6007,0.618,0.6177,0.5995,0.5813,0.566,0.532,0.5254,0.518,0.4954,0.4901,0.0,0.5012,0.5238,0.544,0.5524,0.5659,0.5731,0.5642,0.5578,0.5498,0.5416,0.5363,0.5215,0.4931,0.4887,0.475,0.4447,0.4565,0.4502,0.4189,0.0,0.0,0.0,0.0,0.0,0.0,0.0,0.0,0.0,0.0,0.0,0.0,0.0,0.0,0.0,0.0,0.0,0.0,0.0,0.0,0.0,0.0,0.0,0.0,0.0,0.0,0.0,0.0,0.0,0.4438,0.4745,0.0,0.0,0.0,0.0,0.4866,0.496,0.5494,0.6621,0.5763,0.5706,0.6783,0.5816,0.5318,0.5347,0.5353,0.5186,0.4793,0.4797,0.4634,0.4305,0.4305,0.4305,0.4305,0.4305,0.4305,0.4074,0.1209,0.0,0.0106,0.1144,0.1532,0.1659,0.2716,0.3116,0.3115,0.3171,0.3829,0.4614,0.4694,0.5372,0.6098,0.589,0.6074,0.0,0.0,0.6253,0.6536,0.6496,0.6502,0.6538,0.6708,0.6644,0.6551,0.6536,0.6427,0.6204,0.5599,0.5439,0.5402,0.5468,0.0,0.5565,0.5799,0.5971,0.6029,0.5906,0.5892,0.5815,0.5516,0.5625,0.5623,0.5494,0.5675,0.561,0.5279,0.5156,0.5009,0.4771,0.4966,0.5118,0.5227,0.4807,0.0,0.0,0.0,0.0,0.0,0.0,0.0,0.0,0.0,0.0,0.0,0.0,0.0,0.0,0.0,0.0,0.0,0.0,0.0,0.0,0.0,0.0,0.0,0.0,0.0,0.0,0.0,0.0,0.5709,0.6578,0.0,0.6661,0.6869,0.6988,0.6899,0.7142,0.7498,0.8005,0.7643,0.7672,0.8188,0.7807,0.77,0.7823,0.7823,0.7466,0.6625,0.6554,0.6071,0.5221,0.5108,0.4972,0.4747,0.4747,0.4636,0.4413,0.3334,0.2745,0.2588,0.2809,0.2812,0.2869,0.3942,0.4322,0.4331,0.5031,0.5508,0.5835,0.6027,0.6201,0.6392,0.6441,0.6535,0.6563,0.643,0.6572,0.6768,0.6721,0.6721,0.6712,0.6672,0.6627,0.6566,0.6475,0.6421,0.6328,0.6107,0.6042,0.5957,0.5906,0.5882,0.5923,0.6005,0.6045,0.6041,0.6092,0.6032,0.5936,0.5813,0.5779,0.5763,0.5715,0.5674,0.5608,0.5482,0.5354,0.5204,0.5048,0.5046,0.5198,0.5545,0.5488,0.5517,0.0,0.0,0.0,0.0,0.0,0.0,0.0,0.0,0.0,0.0,0.0,0.0,0.0,0.0,0.0,0.0,0.0,0.0,0.0,0.0,0.0,0.0,0.0,0.0,0.0,0.6192,0.7026,0.7026,0.7875,0.8299,0.7994,0.8194,0.8319,0.8217,0.8448,0.8625,0.8777,0.8788,0.8832,0.8878,0.8984,0.9055,0.9207,0.9262,0.8931,0.8209,0.812,0.7649,0.6808,0.6733,0.651,0.6251,0.6251,0.6139,0.5977,0.5864,0.5711,0.5425,0.4744,0.4397,0.4429,0.5489,0.5797,0.5785,0.645,0.6686,0.6681,0.684,0.6809,0.675,0.6806,0.687,0.6928,0.6789,0.6842,0.6994,0.6901,0.6888,0.6863,0.6769,0.6747,0.6722,0.6672,0.6615,0.6587,0.6587,0.6421,0.6319,0.6315,0.6342,0.6326,0.6363,0.6315,0.6288,0.6251,0.6136,0.6049,0.5923,0.5882,0.5958,0.6232,0.6266,0.6328,0.6518,0.6369,0.6198,0.6052,0.5997,0.6124,0.644,0.6432,0.6412,0.6325,0.0,0.0,0.0,0.0,0.0,0.0,0.0,0.0,0.0,0.0,0.0,0.0,0.0,0.0,0.0,0.0,0.0,0.0,0.0,0.0,0.0,0.0,0.0,0.6907,0.7687,0.833,0.8333,0.854,0.8604,0.8364,0.8414,0.8557,0.8699,0.8716,0.8781,0.8875,0.8885,0.8885,0.8885,0.9076,0.9207,0.9217,0.9306,0.9388,0.9395,0.9388,0.9303,0.9217,0.9207,0.9069,0.8885,0.8885,0.8885,0.8881,0.8598,0.8484,0.8361,0.6749,0.6151,0.6255,0.7188,0.7497,0.7469,0.7284,0.7188,0.7217,0.7134,0.7233,0.7305,0.6928,0.7171,0.7513,0.7135,0.7184,0.7329,0.7136,0.7095,0.7095,0.7095,0.7095,0.7095,0.7095,0.6987,0.6886,0.6886,0.6642,0.6508,0.6735,0.6782,0.6822,0.69,0.6876,0.0,0.6383,0.6282,0.6151,0.5901,0.5943,0.6321,0.7165,0.7433,0.7774,0.8371,0.8143,0.7915,0.7722,0.7822,0.7889,0.7923,0.7663,0.7277,0.6678,0.0,0.0,0.0,0.0,0.0,0.0,0.0,0.0,0.0,0.0,0.0,0.0,0.0,0.0,0.0,0.0,0.0,0.0,0.0,0.0,0.0,0.8238,0.8471,0.8177,0.8697,0.9044,0.8948,0.9082,0.907,0.8608,0.8723,0.8784,0.8716,0.8815,0.8841,0.8881,0.8885,0.8885,0.8885,0.8977,0.91,0.9317,0.9361,0.949,0.9696,0.9483,0.9357,0.931,0.9096,0.8977,0.8885,0.8885,0.8885,0.8881,0.8826,0.8771,0.8709,0.7837,0.7466,0.7392,0.7533,0.7467,0.7287,0.72,0.7188,0.7232,0.7397,0.7416,0.7405,0.7408,0.7426,0.7404,0.7158,0.7115,0.7149,0.7105,0.7095,0.7095,0.7095,0.7095,0.7095,0.7095,0.6987,0.6886,0.6886,0.674,0.6652,0.6697,0.6739,0.6726,0.677,0.6668,0.6783,0.7258,0.723,0.732,0.7854,0.7927,0.8012,0.828,0.8178,0.8166,0.831,0.798,0.7746,0.7711,0.7606,0.78,0.8325,0.8543,0.8594,0.0,0.0,0.0,0.0,0.0,0.0,0.0,0.0,0.0,0.0,0.0,0.0,0.0,0.0,0.0,0.0,0.0,0.0,0.0,0.0,0.0,0.0,0.893,0.924,0.9388,0.9457,0.9492,0.9435,0.9431,0.9288,0.9033,0.8941,0.8848,0.8811,0.8834,0.8885,0.8885,0.8885,0.8885,0.8885,0.8998,0.9144,0.9381,0.9445,0.9561,0.973,0.9557,0.9408,0.9337,0.9106,0.8994,0.8885,0.8885,0.8885,0.8885,0.8885,0.8885,0.8881,0.0,0.0,0.0,0.0,0.7782,0.7537,0.7537,0.7537,0.754,0.7693,0.7737,0.7638,0.7685,0.7584,0.7434,0.7282,0.7146,0.7095,0.7095,0.7095,0.7095,0.7095,0.7095,0.7082,0.7021,0.6893,0.6814,0.6749,0.69,0.0,0.7035,0.6862,0.6802,0.7059,0.7046,0.7279,0.8026,0.8043,0.8169,0.8661,0.8703,0.8856,0.916,0.9073,0.0,0.0,0.0,0.8696,0.8473,0.8337,0.0,0.0,0.0,0.0,0.0,0.0,0.0,0.0,0.8971,0.9134,0.0,0.0,0.0,0.0,0.0,0.0,0.0,0.0,0.0,0.0,0.0,0.0,0.0,0.0,0.0,0.0,0.9739,1.0059,1.0334,1.0015,0.9757,0.9853,0.9651,0.9489,0.9434,0.9158,0.894,0.894,0.894,0.8885,0.8885,0.8885,0.0,0.0,0.0,0.9258,0.9354,0.949,0.9568,0.9585,0.9564,0.9415,0.921,0.9193,0.9059,0.8885,0.8885,0.8885,0.8885,0.8885,0.8885,0.8885,0.8885,0.8861,0.8801,0.8581,0.8296,0.7988,0.7988,0.0,0.0,0.7988,0.7988,0.7961,0.7858,0.7712,0.7567,0.7414,0.7258,0.7095,0.7095,0.7095,0.7095,0.7095,0.7095,0.7058,0.6916,0.6849,0.6778,0.6662,0.7172,0.7638,0.7638,0.723,0.713,0.7732,0.7826,0.8043,0.8761,0.8818,0.8851,0.8965,0.8965,0.0,0.9992,0.9981,1.0157,1.0617,1.0364,0.9997,0.9534,0.9516,0.9516,0.9516,0.9775,0.9907,0.9907,0.9937,1.0051,1.0238,0.9775,0.9703,0.0,0.0,0.0,0.0,0.0,0.0,0.0,0.0,0.0,0.0,0.0,0.0,0.0,0.0,0.0,0.9384,0.9904,1.0351,1.037,1.0446,1.0437,1.0253,1.0147,1.0036,0.9761,0.9489,0.9323,0.9323,0.9047,0.8885,0.8885,0.8885,0.8885,0.8885,0.8964,0.9049,0.9251,0.9282,0.9303,0.9422,0.93,0.0,0.9207,0.9032,0.8908,0.8885,0.8885,0.8885,0.8885,0.8885,0.8885,0.8885,0.8885,0.8788,0.8564,0.8503,0.8296,0.7988,0.7988,0.7988,0.7988,0.7988,0.7988,0.7961,0.7858,0.7712,0.0,0.7414,0.7258,0.7095,0.7095,0.7095,0.7095,0.7095,0.7095,0.7058,0.6916,0.7308,0.7628,0.7493,0.8026,0.8475,0.8475,0.8385,0.8344,0.8496,0.8492,0.8784,0.9582,0.9652,0.9916,1.0588,1.0625,1.07,1.085,1.0473,1.0284,1.0376,0.9925,0.9618,0.9516,0.9516,0.9516,0.9516,0.9775,0.9907,0.9907,1.0118,1.0136,0.9979,0.9877,0.9967,0.0,0.0,0.0,0.0,0.0,0.0,0.0,0.0,0.0,0.0,0.0,0.8609,0.8837,0.0,0.9579,0.9851,1.0201,1.0465,1.055,1.0639,1.0637,1.0531,1.0366,1.0257,1.0091,0.9761,0.9541,0.9434,0.9268,0.9103,0.8885,0.8885,0.8885,0.8885,0.8885,0.9008,0.9207,0.921,0.9248,0.9323,0.9248,0.9173,0.9045,0.8971,0.8885,0.8885,0.8885,0.8885,0.8885,0.8885,0.8885,0.8885,0.8885,0.875,0.8482,0.8482,0.8296,0.7988,0.7988,0.7988,0.7988,0.7988,0.7988,0.7975,0.7897,0.7773,0.7584,0.7506,0.7319,0.7095,0.7095,0.7095,0.7095,0.7095,0.7095,0.7166,0.7363,0.7662,0.7967,0.8169,0.8808,0.9311,0.9311,0.9647,0.976,0.9349,0.9311,0.9576,1.04,1.0513,1.0616,1.0857,1.0918,1.0864,1.0695,1.0322,1.01,1.01,0.9733,0.9516,0.9516,0.9516,0.9516,0.9516,0.9901,1.01,1.01,1.0364,1.0491,1.0485,1.0358,1.0292,0.0,0.0,0.0,0.0,0.0,0.0,0.0,0.8187,0.8402,0.8438,0.8702,0.9011,0.9347,0.9531,0.9831,1.0306,1.0358,1.0493,1.0668,1.0692,1.0692,1.0692,1.0527,1.0366,1.0366,1.0091,0.9761,0.9489,0.9434,0.9268,0.894,0.8885,0.8885,0.8885,0.8885,0.8994,0.9166,0.9169,0.9169,0.9169,0.9169,0.9052,0.8885,0.8885,0.8885,0.8885,0.8885,0.8885,0.8885,0.8885,0.8885,0.8878,0.8851,0.8726,0.8482,0.8482,0.8296,0.7988,0.7988,0.7988,0.7988,0.7988,0.7988,0.7988,0.7988,0.7834,0.76,0.76,0.7377,0.7095,0.7095,0.7095,0.7095,0.7095,0.7228,0.7447,0.7836,0.8168,0.8505,0.8861,0.9576,1.0143,1.0143,1.0663,1.0887,1.0218,1.0143,1.0368,1.1037,1.1063,1.0954,1.0707,1.0641,1.0503,1.0244,1.0027,0.9883,0.9835,0.963,0.9516,0.9516,0.9516,0.9516,0.9516,1.0027,1.0292,1.0292,1.0605,1.0845,1.1033,1.0816,1.0599,0.8036,0.8,0.8008,0.7992,0.8126,0.8337,0.0,0.8735,0.8808,0.8974,0.9161,0.9355,0.9396,0.9677,0.9929,1.0156,1.0327,1.0493,1.0668,1.0692,1.0692,1.0692,1.0692,1.0637,1.0637,1.0417,1.0091,0.9761,0.9544,0.9268,0.894,0.8885,0.8885,0.8885,0.8885,0.8892,0.8905,0.8905,0.8905,0.8905,0.8905,0.8898,0.8885,0.8885,0.8885,0.8885,0.8885,0.8885,0.8885,0.8885,0.8885,0.8868,0.8791,0.8632,0.8482,0.8482,0.8296,0.7988,0.7988,0.7988,0.7988,0.7988,0.7988,0.7988,0.7988,0.7834,0.76,0.76,0.7377,0.7095,0.7095,0.7095,0.7095,0.7095,0.7753,0.8273,0.796,0.91,1.0107,0.9817,1.04,1.0962,1.0962,1.1037,1.1074,1.0962,1.0962,1.0999,1.1074,1.0869,1.0719,1.0689,1.0478,1.0232,0.9967,0.9919,0.9805,0.9576,0.9534,0.9516,0.9516,0.9516,0.9516,0.9516,1.0027,1.0292,1.0292,1.0828,1.096,1.0725,1.0695,1.0828,0.8325,0.8256,0.8199,0.8308,0.8467,0.8637,0.8787,0.8982,0.9153,0.9277,0.9388,0.9543,0.9644,0.9786,0.9945,1.0184,1.0229,1.0302,1.0375,1.0477,1.0542,1.0542,1.0631,1.0692,1.0692,1.0582,1.0417,1.0091,0.9816,0.9489,0.9213,0.8992,0.8885,0.8885,0.8885,0.8885,0.8885,0.8885,0.8885,0.8885,0.8885,0.8885,0.8885,0.8885,0.8885,0.8885,0.8885,0.8885,0.8885,0.8885,0.8885,0.8868,0.8771,0.8618,0.8472,0.8387,0.8225,0.7988,0.7988,0.7988,0.7988,0.7988,0.7988,0.7988,0.7988,0.7834,0.76,0.76,0.7377,0.7095,0.7095,0.7095,0.7228,0.7797,0.8237,0.8731,0.9475,1.009,1.0589,1.0771,1.1,1.1111,1.1111,1.1111,1.1111,1.1111,1.1111,1.1111,1.1111,1.0882,1.0569,1.0262,0.9997,0.9799,0.969,0.9678,0.963,0.9522,0.9516,0.9516,0.9516,0.9516,0.9516,0.9516,0.9877,1.0069,1.0069,1.0442,1.0563,1.0454,1.0454,1.0515,0.8394,0.839,0.8398,0.8575,0.8767,0.8966,0.8966,0.9206,0.949,0.9539,0.9608,0.9738,0.986,0.9884,0.9929,1.0114,1.0139,1.0171,1.0221,1.031,1.0379,1.0375,1.0501,1.0566,1.0615,1.0664,1.0582,1.0312,0.9981,0.9706,0.9434,0.9103,0.8885,0.8885,0.8885,0.8885,0.8885,0.8885,0.8885,0.8885,0.8885,0.8885,0.8885,0.8885,0.8838,0.8818,0.8848,0.8858,0.8824,0.8865,0.8885,0.8868,0.8771,0.8618,0.8465,0.8323,0.8174,0.7988,0.7988,0.7988,0.7988,0.7988,0.7988,0.7988,0.7988,0.7834,0.76,0.76,0.7377,0.7095,0.7095,0.7272,0.7665,0.8324,0.889,0.9573,1.0647,1.0955,1.1106,1.1438,1.1327,1.1202,1.1123,1.1111,1.1111,1.1111,1.1111,1.1111,1.1111,1.0816,1.0376,0.9853,0.963,0.9516,0.9516,0.9516,0.9516,0.9516,0.9516,0.9516,0.9516,0.9516,0.9516,0.9516,0.9775,0.9907,0.9907,1.0166,1.0292,1.0292,1.022,1.0226,0.8077,0.8288,0.8604,0.8608,0.9004,0.9384,0.9384,0.9486,0.9665,0.9835,0.9876,0.988,0.9884,0.9884,0.9888,0.9892,0.9892,1.0018,1.0375,1.0278,1.0237,1.0358,1.0282,1.0249,1.0424,1.0595,1.0582,1.0312,0.9981,0.9706,0.9434,0.9103,0.8885,0.8885,0.8885,0.8885,0.8885,0.8885,0.8885,0.8885,0.8885,0.8885,0.8885,0.8885,0.8777,0.8513,0.8811,0.8801,0.8726,0.8821,0.8885,0.8868,0.8771,0.8618,0.8465,0.8323,0.8174,0.7988,0.7988,0.7988,0.7988,0.7988,0.7988,0.7988,0.7988,0.7834,0.76,0.76,0.7377,0.7095,0.7095,0.7753,0.8456,0.85,0.9889,1.1177,1.0942,1.1596,1.2109,1.1591,1.1483,1.1393,1.1122,1.1111,1.1111,1.1111,1.1111,1.1111,1.1111,1.0623,1.0106,0.9582,0.9516,0.9516,0.9516,0.9516,0.9516,0.9516,0.9516,0.9516,0.9516,0.9516,0.9516,0.9516,0.9775,0.9907,0.9907,1.0166,1.0292,1.0286,1.0033,1.0051,0.8333,0.8381,0.8471,0.8832,0.9051,0.9246,0.9482,0.9583,0.9595,0.9701,0.9713,0.9713,0.9713,0.9807,0.9847,0.9734,0.9811,0.9888,0.9845,0.9945,1.0002,1.0063,1.0233,1.0367,1.0375,1.0485,1.0516,1.0574,1.0091,0.9761,0.9651,0.9158,0.8885,0.8885,0.8885,0.8885,0.8885,0.8885,0.8885,0.8885,0.8885,0.8885,0.8885,0.8885,0.8825,0.8645,0.8849,0.8797,0.8723,0.8821,0.8885,0.8858,0.8659,0.8526,0.8452,0.8208,0.8032,0.7988,0.7988,0.7988,0.7988,0.7988,0.7988,0.7988,0.7988,0.7834,0.76,0.76,0.7377,0.7095,0.7095,0.7797,0.8671,0.9274,1.0409,1.1434,1.1991,1.2182,1.2264,1.2083,1.173,1.1465,1.1369,1.1232,1.1111,1.1111,1.0966,1.0755,1.0581,1.025,0.9901,0.9552,0.9516,0.9516,0.9516,0.9516,0.9516,0.9516,0.9516,0.9516,0.9516,0.9516,0.9516,0.9516,0.96,0.9648,0.9648,0.9864,0.9972,0.9972,0.9978,0.9984,0.8402,0.8475,0.858,0.8995,0.9194,0.9348,0.9575,0.9579,0.9644,0.9705,0.9721,0.9721,0.9721,0.9811,0.9827,0.9657,0.9721,0.9774,0.9726,0.9762,0.9815,0.988,1.0042,1.012,1.0233,1.0237,1.0363,1.0668,1.0194,0.9862,0.9812,0.932,0.9051,0.8885,0.8885,0.8885,0.8885,0.8885,0.8885,0.8885,0.8885,0.8854,0.8804,0.8858,0.8825,0.8635,0.8791,0.8801,0.8716,0.8815,0.8834,0.8858,0.8662,0.853,0.8452,0.8211,0.8039,0.7988,0.7988,0.7988,0.7988,0.7988,0.7988,0.7988,0.7988,0.7834,0.76,0.76,0.7377,0.7183,0.7533,0.8277,0.9235,1.0188,1.1101,1.1972,1.2577,1.2572,1.2421,1.233,1.1922,1.1603,1.1507,1.1298,1.1111,1.1111,1.0773,1.0485,1.0316,1.0069,0.9805,0.9546,0.9516,0.9516,0.9516,0.9516,0.9516,0.9516,0.9516,0.9516,0.9516,0.9516,0.9516,0.9516,0.9516,0.9516,0.9516,0.9708,0.9804,0.9804,0.9894,0.9894,0.8316,0.8568,0.8877,0.9064,0.9364,0.9567,0.9575,0.9579,0.9669,0.9823,0.9855,0.9855,0.9847,0.986,0.9815,0.964,0.9579,0.9693,0.9851,0.973,0.9693,0.9864,0.975,0.9726,0.9896,0.9912,1.0128,1.0655,1.0251,0.9962,0.9805,0.9544,0.9268,0.8937,0.8937,0.894,0.8885,0.8885,0.8885,0.8885,0.8885,0.8807,0.8726,0.8817,0.8771,0.8489,0.8645,0.8703,0.8689,0.8703,0.8798,0.8858,0.8757,0.8611,0.8465,0.8316,0.8167,0.7988,0.7988,0.7988,0.7988,0.7988,0.7988,0.7988,0.7988,0.7838,0.7607,0.76,0.7383,0.7326,0.8237,0.9187,1.0139,1.1063,1.2015,1.2705,1.2705,1.2705,1.2626,1.2379,1.2073,1.1796,1.1519,1.1248,1.1111,1.1111,1.0629,1.0292,1.0292,1.0051,0.9793,0.954,0.9516,0.9516,0.9516,0.9516,0.9516,0.9516,0.9516,0.9516,0.9516,0.9516,0.9516,0.9516,0.9516,0.9516,0.9516,0.9708,0.9804,0.9804,0.9836,0.9894,0.8649,0.8852,0.9072,0.9294,0.9408,0.9458,0.9596,0.9579,0.96,0.9559,0.9539,0.9498,0.9319,0.9514,0.9636,0.9453,0.9648,0.9791,0.9705,0.9657,0.9693,0.9864,0.9969,1.0095,1.0278,1.0294,1.0408,1.0672,1.0251,1.007,1.019,0.9871,0.9544,0.9268,0.9268,0.9158,0.8885,0.8885,0.8885,0.8885,0.8885,0.8861,0.8828,0.8865,0.8771,0.8489,0.8645,0.8584,0.8397,0.8621,0.8733,0.8754,0.8601,0.8516,0.8448,0.8194,0.8022,0.7988,0.7988,0.7988,0.7988,0.7988,0.7988,0.7988,0.7988,0.786,0.7736,0.7631,0.7461,0.751,0.8316,0.9187,1.0139,1.1063,1.2015,1.2705,1.2705,1.2705,1.2687,1.2614,1.2234,1.1736,1.1298,1.116,1.1111,1.1111,1.0629,1.0292,1.0292,0.9895,0.9588,0.9522,0.9516,0.9516,0.9516,0.9516,0.9516,0.9516,0.9516,0.9516,0.9516,0.9516,0.9516,0.9516,0.9516,0.9516,0.9516,0.9798,0.9958,0.9958,1.0276,1.0339,0.8893,0.9076,0.9282,0.938,0.9465,0.9482,0.9502,0.9506,0.9458,0.9279,0.929,0.9214,0.9116,0.9324,0.9498,0.9478,0.964,0.9766,0.9742,0.9673,0.9693,0.9864,0.9977,1.0111,1.0298,1.0314,1.0387,1.0566,1.0323,1.0128,1.0084,1.0036,0.9761,0.9213,0.9323,0.9213,0.8885,0.8885,0.8885,0.8885,0.8885,0.8885,0.8885,0.8885,0.879,0.8679,0.8632,0.8554,0.8465,0.8503,0.8594,0.8689,0.8472,0.8428,0.8445,0.815,0.7988,0.7988,0.7988,0.7988,0.7988,0.7988,0.7988,0.7988,0.7988,0.7884,0.778,0.7641,0.7489,0.765,0.8805,0.9492,1.0226,1.158,1.2314,1.2705,1.2705,1.2705,1.2638,1.2403,1.2029,1.1573,1.1184,1.1111,1.1111,1.1111,1.0725,1.0466,1.0466,0.9907,0.9516,0.9516,0.9516,0.9516,0.9516,0.9516,0.9516,0.9516,0.9516,0.9516,0.9516,0.9516,0.9516,0.9516,0.9516,0.9516,0.9516,0.9766,0.9958,1.0015,1.0238,1.0371,0.908,0.929,0.9404,0.9404,0.9474,0.9543,0.9412,0.9367,0.9318,0.9096,0.9043,0.9027,0.9027,0.9169,0.94,0.9559,0.9612,0.9689,0.986,0.9758,0.9726,0.99,0.992,1.0057,1.0265,1.0286,1.0298,1.0456,1.0415,1.0263,0.9919,1.0202,0.9926,0.9047,0.9268,0.9203,0.8854,0.8871,0.8871,0.8854,0.8871,0.8885,0.8885,0.8885,0.8861,0.8807,0.8598,0.8533,0.8601,0.8367,0.8431,0.8652,0.8377,0.8357,0.8445,0.815,0.7988,0.7988,0.7988,0.7988,0.7988,0.7988,0.7988,0.7988,0.7988,0.7897,0.7811,0.7668,0.7519,0.7815,0.9495,0.9903,1.0356,1.2266,1.2705,1.2705,1.2705,1.2705,1.2548,1.1982,1.17,1.1447,1.1166,1.1111,1.1111,1.1111,1.0851,1.0683,1.0683,1.0063,0.9606,0.957,0.957,0.9552,0.9554,0.9548,0.9548,0.9574,0.9574,0.9548,0.9548,0.9548,0.9516,0.9516,0.9516,0.9516,0.9516,0.9708,0.9868,0.9983,1.0015,1.0263,0.931,0.938,0.9404,0.9404,0.9424,0.9404,0.9181,0.9141,0.0,0.8905,0.8759,0.8702,0.8702,0.88,0.9019,0.9396,0.9531,0.9689,0.986,0.986,0.9908,1.0143,1.0163,1.0294,1.057,1.0599,1.0615,1.0643,1.0647,1.0605,1.0527,1.0582,1.0308,0.9651,0.9489,0.9205,0.875,0.8821,0.8821,0.875,0.8824,0.8885,0.8885,0.8885,0.8801,0.8557,0.8506,0.8357,0.811,0.8238,0.837,0.8506,0.8336,0.8357,0.8445,0.815,0.7988,0.7988,0.7988,0.7988,0.7988,0.7988,0.7988,0.7988,0.7988,0.7971,0.7921,0.7818,0.7672,0.7984,0.9705,1.0011,1.0356,1.2266,1.2705,1.2705,1.2705,1.2705,1.2548,1.1982,1.1844,1.1697,1.1196,1.1111,1.1111,1.1111,1.0851,1.0683,1.0683,1.0376,1.0075,0.9859,0.9835,0.9816,0.9759,0.974,0.9798,0.9894,0.9919,0.9862,0.974,0.974,0.9676,0.9516,0.9516,0.9516,0.9516,0.9708,0.9868,0.9983,1.0174,1.0496,0.9355,0.9404,0.9404,0.9404,0.9335,0.9153,0.8885,0.0,0.0,0.8459,0.8414,0.8394,0.8296,0.8576,0.8877,0.9047,0.923,0.9474,0.9835,0.9726,0.9782,1.0249,1.0221,1.0355,1.066,1.0692,1.0692,1.0692,1.0692,1.0637,1.0472,1.0312,1.0088,0.9816,0.9544,0.9233,0.8828,0.8848,0.8807,0.8713,0.8784,0.8777,0.8703,0.8703,0.8621,0.8479,0.8404,0.8292,0.8167,0.8241,0.8364,0.8367,0.8347,0.8364,0.8343,0.8119,0.7988,0.7988,0.7988,0.7988,0.7988,0.7988,0.7988,0.7988,0.7988,0.7988,0.7958,0.7855,0.8036,0.8621,0.9894,1.0397,1.0971,1.2357,1.2705,1.2705,1.2705,1.2596,1.2385,1.1999,1.1772,1.1549,1.1184,1.1111,1.1111,1.1111,1.1003,1.0924,1.0924,1.0816,1.0497,0.9961,0.9907,0.9832,0.9663,0.974,0.9772,0.9734,0.983,0.983,0.9644,0.9644,0.9612,0.9516,0.9516,0.9516,0.9516,0.9612,0.984,1.0269,1.0367,1.0679,0.9416,0.9433,0.9404,0.9404,0.9226,0.9003,0.8694,0.858,0.0,0.8081,0.8101,0.8142,0.8032,0.8361,0.8686,0.88,0.8974,0.9283,0.9811,0.9694,0.9709,1.0306,1.0274,1.0355,1.066,1.0692,1.0692,1.0692,1.0692,1.0637,1.0421,1.0147,0.9926,0.9816,0.9596,0.9306,0.8834,0.8868,0.879,0.8662,0.8696,0.8628,0.8482,0.8482,0.8465,0.8431,0.8371,0.8323,0.8323,0.8323,0.834,0.8364,0.8333,0.8323,0.8252,0.8096,0.7988,0.7988,0.7988,0.7988,0.7988,0.7988,0.7988,0.7988,0.7988,0.7988,0.7965,0.7892,0.8391,0.9178,1.0035,1.0789,1.1542,1.2485,1.2705,1.2705,1.2705,1.2542,1.2318,1.2059,1.1754,1.1489,1.1212,1.1148,1.1111,1.1111,1.1111,1.1111,1.1111,1.1111,1.0852,1.0148,1.0021,0.9883,0.9657,0.9794,0.9851,0.9776,0.989,0.9883,0.9744,0.9641,0.9604,0.9594,0.9572,0.958,0.958,0.9635,0.9931,1.0466,1.0597,1.0911,0.9555,0.9482,0.9404,0.9404,0.9226,0.9003,0.8694,0.0,0.826,0.8057,0.7902,0.789,0.7988,0.8052,0.8247,0.8739,0.8974,0.9283,0.9811,0.9855,0.9985,1.0387,1.0274,1.0355,1.066,1.0692,1.0692,1.0692,1.0692,1.0692,1.0637,1.0637,1.0363,0.9816,0.9761,0.9417,0.8733,0.8814,0.8794,0.8506,0.8645,0.8628,0.8482,0.8482,0.8411,0.834,0.8327,0.8323,0.8323,0.8323,0.8347,0.8452,0.8374,0.8323,0.8252,0.8096,0.7988,0.7988,0.7988,0.7988,0.7988,0.7988,0.7988,0.7988,0.7988,0.7988,0.7985,0.7971,0.8479,0.9211,1.0121,1.086,1.1542,1.2485,1.2705,1.2705,1.2705,1.2687,1.259,1.233,1.2065,1.176,1.1501,1.1242,1.1111,1.1111,1.1111,1.1111,1.1111,1.1111,1.0997,1.0647,1.04,1.0222,1.0155,1.0164,1.0302,1.0648,1.0461,1.0403,1.0489,1.0157,0.991,0.9865,0.9799,0.9772,0.9772,1.0013,1.0242,1.0433,1.0897,1.1203,0.9413,0.9457,0.9404,0.9404,0.9141,0.8836,0.8483,0.8256,0.804,0.7752,0.7767,0.7788,0.7703,0.787,0.8081,0.83,0.8491,0.88,0.9336,0.9409,0.9583,1.005,1.014,1.0262,1.0513,1.0631,1.0692,1.0692,1.0692,1.0692,1.0692,1.0692,1.0527,1.0091,0.9926,0.9567,0.9119,0.8965,0.8784,0.8482,0.8543,0.8448,0.8218,0.8218,0.8184,0.8136,0.8231,0.8323,0.8337,0.8462,0.8465,0.8357,0.8387,0.8289,0.8126,0.8012,0.7988,0.7988,0.7988,0.7988,0.7988,0.7988,0.7988,0.7988,0.7988,0.7988,0.812,0.8612,0.9271,1.002,1.0864,1.1619,1.2229,1.2619,1.2705,1.2705,1.2705,1.2705,1.2626,1.2367,1.206,1.1796,1.1537,1.1298,1.1111,1.1111,1.1111,1.1111,1.1111,1.1111,1.1009,1.0713,1.0587,1.0459,1.0262,1.0381,1.0458,1.0494,1.0498,1.0492,1.0425,1.0263,1.0169,1.0142,0.995,0.9915,1.0046,1.0151,1.0422,1.089,1.1279,1.1601,0.9388,0.9482,0.9482,0.9482,0.9165,0.8812,0.8455,0.8187,0.791,0.7557,0.7624,0.7677,0.7543,0.7687,0.789,0.7996,0.817,0.8495,0.9088,0.9173,0.9372,0.9904,1.0086,1.0172,1.0358,1.059,1.0692,1.0692,1.0692,1.0692,1.0692,1.0643,1.0506,1.0229,0.9955,0.9629,0.9308,0.8979,0.874,0.8482,0.8438,0.8286,0.7988,0.7988,0.8015,0.8113,0.8221,0.8319,0.8418,0.8625,0.856,0.8395,0.8442,0.8303,0.7988,0.7988,0.7988,0.7988,0.7988,0.7988,0.7988,0.7988,0.7988,0.7988,0.7988,0.7988,0.8113,0.8687,0.9587,1.0637,1.1611,1.2282,1.2705,1.2705,1.2705,1.2705,1.2705,1.2705,1.265,1.2463,1.2216,1.1916,1.1651,1.1419,1.1208,1.1123,1.1111,1.1111,1.1111,1.1111,1.1039,1.0858,1.0834,1.0695,1.043,1.0546,1.0583,1.0556,1.0595,1.0583,1.0521,1.0516,1.0467,1.0406,1.0325,1.0325,1.0426,1.0541,1.085,1.1327,1.1644,1.1923,0.9575,0.9575,0.9575,0.9575,0.936,0.9003,0.869,0.8276,0.791,0.7557,0.7484,0.7484,0.7484,0.7484,0.7602,0.7955,0.817,0.854,0.9298,0.94,0.96,1.0147,0.9998,1.003,1.0346,1.059,1.0692,1.0692,1.0692,1.0692,1.0692,1.053,1.0271,0.9992,0.989,0.9574,0.9086,0.8817,0.8635,0.8479,0.834,0.8191,0.7988,0.7988,0.8123,0.832,0.8323,0.8435,0.8706,0.871,0.8618,0.8479,0.8482,0.8303,0.7988,0.7988,0.7988,0.7988,0.7988,0.7988,0.7988,0.7988,0.7988,0.7988,0.7988,0.7988,0.7988,0.7988,0.9164,1.0736,1.2276,1.2705,1.2705,1.2705,1.2705,1.2705,1.2705,1.2705,1.2705,1.2699,1.2487,1.2228,1.1922,1.1663,1.1393,1.1154,1.1111,1.1111,1.1111,1.1111,1.1111,1.1105,1.1105,1.1003,1.0701,1.0719,1.0828,1.1087,1.0821,1.0834,1.1093,1.096,1.0839,1.0713,1.102,1.1086,1.088,1.1365,1.1572,1.1621,1.2085,1.2077,0.9134,0.9267,0.9267,0.9267,0.9084,0.8816,0.8459,0.8187,0.791,0.7557,0.7484,0.7484,0.7484,0.7484,0.7638,0.8126,0.8251,0.8499,0.9096,0.9326,0.9514,0.9762,1.0071,1.0355,1.0586,1.066,1.0692,1.0692,1.0692,1.0692,1.0692,1.0639,1.0556,1.0498,1.0105,0.9834,0.9574,0.9248,0.8845,0.8479,0.8388,0.8187,0.7992,0.815,0.8225,0.8333,0.8482,0.8564,0.8564,0.8665,0.8564,0.8336,0.8336,0.8214,0.7988,0.7988,0.7988,0.7988,0.7988,0.7988,0.7988,0.7988,0.7921,0.7882,0.7882,0.7882,0.7935,0.8425,0.9749,1.1121,1.1624,1.2229,1.2705,1.2705,1.2705,1.2705,1.2705,1.2705,1.2705,1.2705,1.2349,1.2077,1.2174,1.1784,1.1465,1.1375,1.1363,1.1329,1.1135,1.1111,1.1111,1.1111,1.1111,1.1081,1.0997,1.1101,1.1206,1.1292,1.1218,1.1212,1.1292,1.1138,1.1016,1.0985,1.1019,1.1089,1.1166,1.1469,1.1755,1.2091,1.2074,1.204,0.877,0.9043,0.9096,0.9096,0.8909,0.8649,0.8357,0.8097,0.7833,0.7541,0.7484,0.7484,0.7484,0.7484,0.7618,0.8024,0.8142,0.8373,0.8917,0.9145,0.9376,0.9689,1.0144,1.0423,1.0586,1.0655,1.0692,1.0692,1.0692,1.0692,1.0692,1.0631,1.0627,1.0688,1.0243,0.9854,0.963,0.9204,0.8811,0.8401,0.8255,0.8163,0.813,0.8225,0.835,0.836,0.8543,0.857,0.0,0.8584,0.8486,0.8323,0.8323,0.8177,0.7988,0.7988,0.7988,0.7988,0.7988,0.7988,0.7988,0.7988,0.7887,0.779,0.7678,0.7685,0.7868,0.8611,0.9789,1.0955,1.1219,1.2015,1.2705,1.2705,1.2705,1.2705,1.2705,1.2705,1.2705,1.2705,1.2439,1.224,1.23,1.2,1.1754,1.1657,1.1639,1.1579,1.1437,1.1291,1.123,1.123,1.1178,1.1111,1.1111,1.1223,1.1335,1.1409,1.1409,1.1409,1.1409,1.1446,1.1372,1.1223,1.1388,1.1525,1.1554,1.1706,1.1942,1.2298,1.2003,1.1892,0.0,0.8835,0.9019,0.9019,0.8771,0.8522,0.8296,0.8037,0.0,0.7559,0.7484,0.7488,0.75,0.7492,0.7596,0.782,0.7951,0.8239,0.8783,0.9039,0.9356,0.9847,1.0229,1.0399,1.0399,1.0599,1.0692,1.0692,1.0692,1.0692,1.0692,1.0542,1.0526,1.0688,1.0243,0.9811,0.9347,0.8914,0.8579,0.8333,0.813,0.8133,0.8323,0.8333,0.835,0.8469,0.8479,0.8476,0.8465,0.8465,0.8384,0.8255,0.8255,0.8167,0.7988,0.7988,0.7988,0.7988,0.7988,0.7988,0.7985,0.7965,0.7913,0.774,0.7444,0.7461,0.7733,0.8473,0.9413,1.0356,1.1029,1.1972,1.2705,1.2705,1.2705,1.2705,1.2705,1.2705,1.2705,1.2705,1.2687,1.2608,1.2379,1.2324,1.2234,1.1986,1.191,1.1904,1.1886,1.167,1.1513,1.1495,1.1298,1.1135,1.1111,1.1111,1.1186,1.1409,1.1409,1.1409,1.1409,1.1781,1.1781,1.1409,1.1966,1.2187,1.2003,1.2003,1.2114,1.2298,1.1892,1.1706,0.7546,0.0,0.8059,0.8225,0.8203,0.8097,0.0,0.7861,0.7747,0.7559,0.7484,0.7563,0.7706,0.7616,0.7718,0.8322,0.8457,0.8665,0.92,0.9673,1.0008,1.0135,1.0416,1.0631,1.0631,1.0668,1.0692,1.0692,1.0692,1.0692,1.0692,1.0655,1.0647,1.0688,1.0413,1.0141,0.9827,0.9275,0.894,0.8755,0.8392,0.8235,0.8327,0.8384,0.8391,0.8378,0.8435,0.8421,0.8371,0.8371,0.8231,0.8096,0.8096,0.8022,0.7988,0.7988,0.7988,0.7988,0.7988,0.7988,0.7951,0.7777,0.7678,0.7594,0.7288,0.7302,0.7436,0.7499,0.8685,1.0032,1.0197,1.1445,1.2705,1.2705,1.2705,1.2705,1.2705,1.2705,1.2705,1.2705,1.2542,1.2451,1.2584,1.2445,1.2294,1.2234,1.2222,1.2149,1.195,1.1826,1.1712,1.1513,1.1435,1.1385,1.1316,1.1335,1.1335,1.1409,1.1409,1.1484,1.1632,1.1558,1.1484,1.1409,1.1706,1.1966,1.2224,1.2224,1.2268,1.2298,1.1892,1.1706,0.7077,0.7514,0.7895,0.81,0.8077,0.7992,0.7898,0.7792,0.7645,0.7504,0.7484,0.7551,0.7653,0.7657,0.778,0.8175,0.8375,0.8669,0.9208,0.982,1.0212,1.0212,1.0477,1.0692,1.0692,1.0692,1.0692,1.0692,1.0692,1.0692,1.0692,1.0692,1.0692,1.0692,1.0526,1.0267,0.9992,0.9474,0.9083,0.8905,0.856,0.8367,0.837,0.8445,0.8404,0.8327,0.835,0.8303,0.8163,0.8163,0.8116,0.7988,0.7988,0.7988,0.7988,0.7988,0.7988,0.7988,0.7988,0.7988,0.7951,0.7773,0.7651,0.7556,0.7319,0.7255,0.7248,0.7119,0.8444,0.9879,0.9879,1.1311,1.2705,1.2705,1.2705,1.2705,1.2705,1.2705,1.2705,1.2705,1.259,1.2536,1.2681,1.2584,1.2493,1.2493,1.2493,1.2439,1.23,1.2174,1.2047,1.1868,1.1742,1.1688,1.1613,1.1523,1.1476,1.1527,1.1558,1.1595,1.1706,1.1781,1.1818,1.1818,1.1929,1.2077,1.2305,1.2224,1.2224,1.2298,1.1781,1.1595,0.6856,0.7433,0.7985,0.814,0.8069,0.7967,0.7939,0.7699,0.7484,0.7484,0.7484,0.75,0.7553,0.7735,0.7865,0.7951,0.8261,0.8621,0.9108,0.9746,1.0212,1.0212,1.0477,1.0692,1.0692,1.0692,1.0692,1.0692,1.0692,1.0692,1.0692,1.0692,1.0692,1.0692,1.055,1.0361,1.0084,0.9633,0.9231,0.8983,0.8703,0.8535,0.8482,0.8459,0.837,0.8235,0.8235,0.816,0.7988,0.7988,0.7988,0.7988,0.7988,0.7988,0.7988,0.7988,0.7988,0.7988,0.7988,0.7988,0.7961,0.7834,0.7699,0.7567,0.739,0.7244,0.7139,0.7272,0.8575,0.9879,0.9879,1.1311,1.2705,1.2705,1.2705,1.2705,1.2705,1.2705,1.2705,1.2705,1.2705,1.2705,1.2705,1.2705,1.2705,1.2705,1.2705,1.2705,1.2705,1.2506,1.2361,1.2318,1.2113,1.1968,1.1966,1.176,1.1684,1.1778,1.172,1.1669,1.1744,1.2077,1.2268,1.2305,1.2268,1.2268,1.2305,1.212,1.212,1.2305,1.1751,1.1583,0.7,0.7396,0.7741,0.7644,0.7743,0.7796,0.7598,0.7521,0.7484,0.7484,0.7484,0.7573,0.7874,0.7955,0.8126,0.8584,0.8958,0.9322,0.9514,0.99,1.0212,1.0212,1.0477,1.0692,1.0692,1.0692,1.0692,1.0692,1.0692,1.0692,1.0692,1.0692,1.0692,1.0692,1.0668,1.0651,1.0597,1.0008,0.9606,0.9415,0.9015,0.8741,0.8479,0.8357,0.8218,0.8025,0.8025,0.8012,0.7988,0.7988,0.7988,0.7988,0.7988,0.7988,0.7988,0.7988,0.7988,0.7988,0.7988,0.7988,0.7944,0.7723,0.7617,0.7546,0.7216,0.7115,0.7272,0.8061,0.9056,0.9879,0.9879,1.1311,1.2705,1.2705,1.2705,1.2705,1.2705,1.2705,1.2705,1.2705,1.2705,1.2705,1.2705,1.2705,1.2705,1.2705,1.2705,1.2705,1.2705,1.2668,1.256,1.2337,1.2276,1.2202,1.2145,1.2169,1.2165,1.2116,1.1708,1.1595,1.1929,1.2003,1.212,1.2305,1.212,1.212,1.2305,1.2268,1.2268,1.2311,1.2074,1.2005,0.6958,0.7378,0.7721,0.7675,0.7882,0.8065,0.7939,0.7841,0.7768,0.7768,0.7768,0.7821,0.7983,0.8178,0.8455,0.8897,0.9185,0.9433,0.947,0.9926,1.0212,1.0212,1.0477,1.0692,1.0692,1.0692,1.0692,1.0692,1.0692,1.0692,1.0692,1.0692,1.0647,1.0558,1.0554,1.0505,1.0408,1.014,0.9981,0.9915,0.9315,0.8931,0.8685,0.8436,0.8184,0.7988,0.7988,0.7988,0.7988,0.7988,0.7988,0.7988,0.7988,0.7988,0.7988,0.7988,0.7988,0.7988,0.7988,0.7988,0.7955,0.7784,0.7662,0.7556,0.7333,0.7207,0.7316,0.8237,0.9192,1.0009,1.0534,1.166,1.2705,1.2705,1.2705,1.2705,1.2705,1.2705,1.2705,1.2705,1.2705,1.2705,1.2705,1.2705,1.2705,1.2705,1.2705,1.2705,1.2705,1.2705,1.2656,1.2536,1.2524,1.2517,1.2479,1.238,1.2258,1.2205,1.1935,1.1834,1.1972,1.2114,1.2224,1.2305,1.2224,1.2224,1.2305,1.2194,1.2273,1.2545,1.2158,1.2079,0.7258,0.7568,0.7848,0.8089,0.8156,0.8258,0.8506,0.8412,0.8326,0.861,0.866,0.8591,0.8437,0.8582,0.8796,0.9108,0.9303,0.9465,0.9465,0.9861,1.0151,1.0151,1.0416,1.0631,1.0631,1.0631,1.0631,1.0631,1.059,1.0566,1.0566,1.0566,1.0505,1.0375,1.0371,1.0306,1.0216,1.0212,1.0192,1.0136,0.9479,0.9071,0.8838,0.8436,0.815,0.7988,0.7988,0.7988,0.7988,0.7988,0.7988,0.7988,0.7988,0.7988,0.7988,0.7988,0.7988,0.7988,0.7988,0.7988,0.7965,0.7862,0.7736,0.7614,0.7428,0.7288,0.7409,0.8508,0.9362,1.0139,1.1063,1.2015,1.2705,1.2705,1.2705,1.2705,1.2705,1.2705,1.2705,1.2705,1.2705,1.2705,1.2705,1.2705,1.2705,1.2705,1.2705,1.2705,1.2705,1.2705,1.2705,1.2705,1.2705,1.2747,1.279,1.2566,1.2374,1.2302,1.2285,1.2222,1.2105,1.2362,1.2474,1.2437,1.2445,1.2405,1.2405,1.2182,1.23,1.2676,1.2201,1.222,0.8265,0.8176,0.7997,0.8887,0.8456,0.8078,0.9086,0.9176,0.932,1.0391,1.06,1.038,0.9694,0.9318,0.912,0.9355,0.949,0.9608,0.9608,0.9778,0.9904,0.9904,1.0229,1.0399,1.0399,1.0399,1.0399,1.0399,1.0298,1.0253,1.0253,1.0253,1.0245,1.0237,1.0233,1.0228,1.0212,1.0212,1.0068,0.9725,0.9297,0.8955,0.8685,0.8227,0.8002,0.7988,0.7988,0.7988,0.7988,0.7988,0.7988,0.7988,0.7988,0.7988,0.7988,0.7988,0.7988,0.7988,0.7988,0.7988,0.7965,0.7862,0.7804,0.7743,0.7458,0.7409,0.7726,0.9323,0.9836,1.0139,1.1063,1.2015,1.2705,1.2705,1.2705,1.2705,1.2705,1.2705,1.2705,1.2705,1.2705,1.2705,1.2705,1.2705,1.2705,1.2705,1.2705,1.2705,1.2705,1.2705,1.2705,1.2705,1.2705,1.279,1.3052,1.282,1.2686,1.2653,1.2766,1.2725,1.2462,1.2903,1.3068,1.2864,1.2782,1.275,1.275,1.2496,1.2395,1.2434,1.2512,1.2558,0.7604,0.8173,0.8705,0.9221,0.9494,0.9651,0.9584,1.0045,1.0569,1.1031,1.1094,1.0911,1.0144,1.049,1.058,0.9563,1.0082,1.035,0.9673,0.9774,0.9884,0.9884,1.0111,1.0266,1.0266,1.0266,1.0266,1.0266,1.0253,1.0212,1.0212,1.0212,1.0159,1.0045,0.9989,0.9937,0.9831,0.9831,0.9781,0.9629,0.9462,0.9231,0.8922,0.8457,0.8137,0.7988,0.7988,0.7988,0.7988,0.7988,0.7988,0.7988,0.7988,0.7988,0.7988,0.7988,0.7988,0.7988,0.7988,0.7988,0.7965,0.7862,0.775,0.7641,0.7434,0.7708,0.8319,0.9554,1.0318,1.0971,1.1923,1.2448,1.2705,1.2705,1.2705,1.2705,1.2705,1.2705,1.2705,1.2705,1.2705,1.2705,1.2705,1.2705,1.2705,1.2705,1.2705,1.2705,1.2705,1.2705,1.2705,1.2705,1.2705,1.2747,1.2833,1.2747,1.279,1.2951,1.2807,1.2662,1.2571,1.285,1.3048,1.3094,1.3054,1.2994,1.2876,1.2641,1.262,1.2753,1.2509,1.2611,0.7859,0.8494,0.9154,0.9876,1.0627,1.107,1.0658,1.1192,1.1903,1.2247,1.2086,1.1701,1.1196,1.1584,1.161,1.0415,1.1043,1.1419,1.0694,1.0414,1.0297,1.0297,1.0165,1.0126,1.0126,1.0126,1.0126,1.0126,1.0073,0.9994,0.9994,0.9994,0.9937,0.9807,0.9803,0.9746,0.9579,0.9579,0.9579,0.9579,0.9546,0.9349,0.8993,0.8582,0.8237,0.7988,0.7988,0.7988,0.7988,0.7988,0.7988,0.7988,0.7988,0.7988,0.7988,0.7988,0.7988,0.7988,0.7988,0.7988,0.7965,0.7862,0.7934,0.8052,0.789,0.8413,0.9231,1.012,1.0799,1.1542,1.2448,1.2705,1.2705,1.2705,1.2705,1.2705,1.2705,1.2705,1.2705,1.2705,1.2705,1.2705,1.2705,1.2705,1.2705,1.2705,1.2705,1.2705,1.2705,1.2705,1.2705,1.2705,1.2705,1.2705,1.2705,1.2705,1.279,1.2966,1.2836,1.2775,1.2757,1.3076,1.3238,1.3157,1.3193,1.3147,1.2946,1.2698,1.2672,1.2861,1.2569,1.262,0.9324,0.9301,0.9171,1.1014,1.1748,1.2101,1.2363,1.2673,1.3205,1.4289,1.3767,1.3097,1.3097,1.2541,1.2016,1.2016,1.242,1.2732,1.2678,1.1853,1.1219,1.1219,1.0417,0.9931,0.9931,0.9884,0.9884,0.9884,0.9726,0.9579,0.9579,0.9579,0.9579,0.9579,0.9579,0.9579,0.9579,0.9579,0.9579,0.9579,0.9579,0.9327,0.8775,0.8531,0.8237,0.7988,0.7988,0.7988,0.7988,0.7988,0.7988,0.7988,0.7988,0.7988,0.7988,0.7988,0.7988,0.7988,0.7988,0.7988,0.7961,0.7862,0.8431,0.9132,0.888,0.9485,1.0375,1.1083,1.1327,1.1542,1.2448,1.2705,1.2705,1.2705,1.2705,1.2705,1.2705,1.2705,1.2705,1.2705,1.2705,1.2705,1.2705,1.2705,1.2705,1.2705,1.2705,1.2705,1.2705,1.2705,1.2705,1.2705,1.2705,1.2705,1.2705,1.2705,1.2705,1.2705,1.2966,1.3094,1.3094,1.3743,1.3786,1.31,1.3208,1.3196,1.2985,1.2731,1.2608,1.2614,1.2668,1.2705,0.8009,0.9174,1.0293,1.0874,1.2247,1.3502,1.3587,1.3828,1.4159,1.4725,1.4652,1.4238,1.356,1.3956,1.3946,1.259,1.3199,1.3559,1.2829,1.2436,1.2242,1.2242,1.1423,1.082,1.082,1.0145,0.9705,0.9705,0.9657,0.9579,0.9579,0.9579,0.9579,0.9579,0.9579,0.9579,0.9579,0.9579,0.9579,0.9579,0.9579,0.943,0.908,0.8829,0.8531,0.8283,0.8088,0.7988,0.7988,0.7988,0.7988,0.7988,0.7988,0.7988,0.7988,0.7988,0.7988,0.7988,0.7988,0.7921,0.7969,0.8594,0.8843,0.9034,0.961,1.0322,1.1022,1.1257,1.18,1.2357,1.2619,1.2705,1.2705,1.2705,1.2705,1.2705,1.2705,1.2705,1.2705,1.2705,1.2705,1.2705,1.2705,1.2705,1.2705,1.2705,1.2705,1.2705,1.2705,1.2705,1.2705,1.2705,1.2705,1.2705,1.2705,1.2705,1.279,1.2966,1.3052,1.3094,1.3094,1.344,1.3525,1.3307,1.3357,1.3271,1.306,1.2976,1.2843,1.2675,1.2711,1.279,0.8308,0.9533,1.0703,1.1676,1.2931,1.3968,1.4202,1.4489,1.4816,1.5224,1.5217,1.4994,1.4435,1.4904,1.5021,1.3835,1.4348,1.4675,1.4034,1.3698,1.3499,1.3499,1.2581,1.1804,1.1414,1.0694,1.0064,0.9628,0.9579,0.9579,0.9579,0.9579,0.9579,0.9579,0.9579,0.9579,0.9579,0.9579,0.9579,0.9579,0.9579,0.9529,0.9331,0.8977,0.8676,0.8382,0.8137,0.8038,0.8137,0.8038,0.7988,0.7988,0.7988,0.7988,0.7988,0.7988,0.7988,0.8038,0.8482,0.8565,0.8653,0.9473,0.9875,1.0103,1.0524,1.1217,1.1843,1.1843,1.2272,1.2705,1.2705,1.2705,1.2705,1.2705,1.2705,1.2705,1.2705,1.2705,1.2705,1.2705,1.2705,1.2705,1.2705,1.2705,1.2705,1.2705,1.2705,1.2705,1.2705,1.2705,1.2705,1.2705,1.2705,1.2705,1.2705,1.2705,1.279,1.2924,1.3052,1.3052,1.2966,1.3222,1.3307,1.3137,1.3222,1.3179,1.2924,1.2924,1.2875,1.2705,1.2705,1.2833,0.9542,1.0155,1.0706,1.296,1.3579,1.3793,1.4429,1.475,1.509,1.5671,1.5605,1.5438,1.5438,1.5438,1.5438,1.5438,1.5658,1.5832,1.5832,1.5248,1.4854,1.4854,1.3938,1.2877,1.1858,1.1414,1.0788,0.9673,0.9579,0.9579,0.9579,0.9579,0.9579,0.9579,0.9579,0.9579,0.9579,0.9579,0.9579,0.9579,0.9579,0.9579,0.9579,0.9076,0.8676,0.8432,0.8137,0.8137,0.8382,0.8088,0.7988,0.7988,0.7988,0.7988,0.7988,0.8088,0.8137,0.8287,0.9361,0.9743,0.9816,1.0492,1.1232,1.1823,1.1505,1.2015,1.2705,1.2705,1.2705,1.2705,1.2705,1.2705,1.2705,1.2705,1.2705,1.2705,1.2705,1.2705,1.2705,1.2705,1.2705,1.2705,1.2705,1.2705,1.2705,1.2705,1.2705,1.2705,1.2705,1.2705,1.2705,1.2705,1.2705,1.2705,1.2705,1.2705,1.2705,1.2705,1.2924,1.2966,1.2705,1.3137,1.3179,1.2705,1.2924,1.2924,1.2705,1.2705,1.2705,1.2705,1.2747,1.2875,0.892,1.0304,1.173,1.2468,1.3345,1.4142,1.4736,1.4736,1.4776,1.5371,1.5618,1.5684,1.5684,1.5684,1.5684,1.5684,1.5744,1.5879,1.6076,1.5981,1.5974,1.615,1.5235,1.413,1.2877,1.1999,1.0984,0.9673,0.9579,0.9579,0.9579,0.9579,0.9579,0.9579,0.9579,0.9579,0.9579,0.9579,0.9579,0.9579,0.9579,0.9579,0.9579,0.9282,0.8981,0.8676,0.8187,0.8137,0.8382,0.8088,0.7988,0.7988,0.7988,0.7988,0.8088,0.892,0.9266,0.941,1.0489,1.0771,1.0786,1.1425,1.1676,1.1832,1.2279,1.2534,1.2705,1.2705,1.2705,1.2705,1.2705,1.2705,1.2705,1.2705,1.2705,1.2705,1.2705,1.2705,1.2705,1.2705,1.2705,1.2705,1.2705,1.2705,1.2705,1.2705,1.2705,1.2705,1.2705,1.2705,1.2705,1.2705,1.2705,1.2705,1.2705,1.2705,1.2705,1.2705,1.2747,1.2747,1.2705,1.3009,1.3009,1.2705,1.2747,1.2747,1.2705,1.2705,1.2705,1.2705,1.2924,1.3137,0.9285,1.067,1.2079,1.2984,1.3773,1.4335,1.4553,1.4529,1.4609,1.4917,1.5324,1.5665,1.5758,1.5784,1.5832,1.5981,1.5981,1.6076,1.6359,1.6508,1.6643,1.6784,1.6298,1.548,1.431,1.3542,1.2581,1.1375,1.0694,1.035,1.035,0.9867,0.9579,0.9579,0.9579,0.9579,0.9579,0.9579,0.9579,0.9579,0.9579,0.9579,0.9579,0.9331,0.9133,0.8977,0.8581,0.8482,0.8581,0.8283,0.8432,0.8775,0.8775,0.9069,0.9608,1.0145,1.0391,1.0489,1.156,1.1874,1.1913,1.2474,1.2717,1.275,1.2732,1.2795,1.288,1.2741,1.2705,1.2705,1.2705,1.2705,1.2705,1.2705,1.2705,1.2705,1.2705,1.2705,1.2705,1.2705,1.2705,1.2705,1.2705,1.2705,1.2705,1.2705,1.2705,1.2705,1.2705,1.2705,1.2705,1.2705,1.2705,1.2705,1.2705,1.2705,1.2705,1.2705,1.2705,1.2705,1.2705,1.2833,1.2833,1.2705,1.2705,1.2705,1.2705,1.2705,1.279,1.2875,1.3009,1.327,0.9882,1.1159,1.2391,1.3798,1.4342,1.4469,1.4282,1.4382,1.4536,1.4583,1.5023,1.5471,1.5712,1.5751,1.5879,1.6177,1.6224,1.6312,1.6636,1.6878,1.7026,1.7073,1.7073,1.6629,1.5501,1.5032,1.4364,1.3258,1.2188,1.156,1.1512,1.0694,1.0113,0.9867,0.9867,0.9772,0.9579,0.9579,0.9579,0.9579,0.9579,0.9579,0.9579,0.9381,0.9282,0.9232,0.8928,0.8825,0.8874,0.8726,0.9069,0.9706,0.9801,1.044,1.1219,1.1365,1.1463,1.1609,1.263,1.2974,1.3047,1.3454,1.3731,1.3773,1.3061,1.2976,1.3029,1.2843,1.2777,1.2777,1.2777,1.2777,1.2777,1.2777,1.2741,1.2705,1.2705,1.2705,1.2705,1.2705,1.2705,1.2705,1.2705,1.2705,1.2705,1.2705,1.2705,1.2705,1.2705,1.2705,1.2705,1.2705,1.2705,1.2705,1.2705,1.2705,1.2705,1.2705,1.2705,1.2705,1.2705,1.2705,1.2705,1.2705,1.2705,1.2705,1.2705,1.2747,1.2875,1.3094,1.3185,1.3398,0.9674,1.1513,1.3515,1.4272,1.4489,1.4576,1.4796,1.4676,1.4596,1.485,1.517,1.5404,1.5444,1.5658,1.5879,1.6177,1.6224,1.6366,1.6885,1.6979,1.7066,1.7239,1.7239,1.6756,1.5501,1.5358,1.4781,1.3536,1.3295,1.3102,1.2877,1.2732,1.215,1.1028,1.0979,1.0547,0.9628,0.9579,0.9579,0.9579,0.9579,0.9579,0.9579,0.9579,0.9529,0.9529,0.9023,0.8928,0.9183,0.9612,0.9854,0.9998,1.073,1.1072,1.1317,1.2193,1.2484,1.2635,1.3709,1.41,1.4052,1.3901,1.3876,1.3845,1.3507,1.3272,1.3071,1.3079,1.3067,1.3067,1.3067,1.3067,1.3067,1.3067,1.288,1.2705,1.2705,1.2705,1.2705,1.2705,1.2705,1.2705,1.2705,1.2705,1.2705,1.2705,1.2705,1.2705,1.2705,1.2705,1.2705,1.2705,1.2705,1.2705,1.2705,1.2705,1.2705,1.2705,1.2705,1.2705,1.2705,1.2705,1.2705,1.2705,1.2705,1.2705,1.2705,1.2924,1.3052,1.31,1.3483,1.3652,1.1397,1.2969,1.4193,1.4663,1.489,1.4957,1.4756,1.4616,1.4509,1.4482,1.4703,1.4957,1.5124,1.5391,1.5638,1.5925,1.6115,1.6414,1.6932,1.6979,1.7066,1.7286,1.7279,1.7084,1.6513,1.6379,1.6048,1.552,1.4746,1.422,1.4034,1.3409,1.2775,1.2047,1.2047,1.1809,1.1326,1.0788,1.0207,0.9579,0.9579,0.9579,0.9579,0.9579,0.9579,0.9579,0.9327,0.9571,1.0105,1.0342,1.0974,1.1755,1.2145,1.2538,1.298,1.3414,1.3613,1.3661,1.4148,1.4298,1.4256,1.399,1.4002,1.4051,1.364,1.3538,1.3532,1.3387,1.3344,1.3344,1.3344,1.3344,1.3344,1.3344,1.3139,1.294,1.294,1.2813,1.2705,1.2705,1.2705,1.2705,1.2705,1.2705,1.2705,1.2705,1.2705,1.2705,1.2705,1.2705,1.2705,1.2705,1.2705,1.2705,1.2705,1.2705,1.2705,1.2705,1.2705,1.2705,1.2705,1.2705,1.2705,1.2705,1.2705,1.279,1.2918,1.3052,1.3222,1.344,1.361,1.3779,1.2651,1.376,1.4275,1.4649,1.5062,1.517,1.4736,1.4629,1.4549,1.4255,1.4309,1.4476,1.4747,1.5037,1.5402,1.5766,1.5964,1.6324,1.6918,1.6979,1.7066,1.7286,1.7279,1.7279,1.7279,1.708,1.698,1.7059,1.6075,1.5395,1.5181,1.4418,1.3698,1.3119,1.3119,1.2974,1.2678,1.1707,1.0788,1.0015,1.0015,0.9871,0.9628,0.9867,0.9871,0.9579,0.9579,1.0109,1.0925,1.1121,1.1999,1.3221,1.3414,1.3806,1.4298,1.4298,1.4298,1.4298,1.4298,1.4298,1.4262,1.4069,1.4135,1.4226,1.3833,1.3803,1.3863,1.367,1.361,1.361,1.361,1.361,1.361,1.361,1.3417,1.3143,1.3049,1.285,1.2705,1.2705,1.2705,1.2705,1.2705,1.2705,1.2705,1.2705,1.2705,1.2705,1.2705,1.2705,1.2705,1.2705,1.2705,1.2705,1.2705,1.2705,1.2705,1.2705,1.2705,1.2705,1.2705,1.2705,1.2747,1.279,1.279,1.2881,1.3094,1.3137,1.3349,1.3695,1.3779,1.3913,1.2184,1.289,1.3414,1.3988,1.4606,1.5022,1.4995,1.4988,1.4901,1.4556,1.4289,1.4115,1.4128,1.4646,1.5167,1.5732,1.5793,1.6088,1.6889,1.6979,1.7066,1.7286,1.7279,1.7279,1.7279,1.7055,1.7004,1.7257,1.7001,1.6689,1.652,1.644,1.5724,1.4244,1.4202,1.3709,1.2732,1.1707,1.117,1.1126,1.1126,1.0592,0.9628,1.0641,1.0547,0.9579,0.9579,1.0207,1.1219,1.195,1.2732,1.3565,1.4298,1.449,1.4298,1.4298,1.4298,1.4298,1.4298,1.4298,1.4292,1.428,1.4286,1.4292,1.4262,1.4093,1.3906,1.3888,1.3888,1.3888,1.3888,1.3888,1.3888,1.3888,1.3682,1.335,1.2837,1.2711,1.2705,1.2705,1.2705,1.2705,1.2705,1.2705,1.2705,1.2705,1.2705,1.2705,1.2705,1.2705,1.2705,1.2705,1.2705,1.2705,1.2705,1.2705,1.2705,1.2705,1.2705,1.2705,1.2705,1.2705,1.2833,1.3052,1.31,1.3094,1.3094,1.3313,1.3483,1.3695,1.3955,1.4088,1.2479,1.3054,1.3394,1.4168,1.4522,1.473,1.4961,1.4816,1.4649,1.4543,1.4289,1.4088,1.4088,1.4409,1.476,1.4912,1.5138,1.5429,1.5843,1.626,1.6579,1.6757,1.7069,1.7279,1.7279,1.7223,1.7208,1.7271,1.7223,1.7076,1.6871,1.6546,1.6016,1.5278,1.5084,1.4596,1.3757,1.3366,1.2829,1.2145,1.2145,1.1955,1.1565,1.1321,1.0979,1.0641,1.0641,1.1224,1.2242,1.3173,1.4046,1.4819,1.4927,1.479,1.4544,1.4346,1.4298,1.4298,1.4298,1.4298,1.4298,1.4298,1.4298,1.4298,1.4298,1.4232,1.4159,1.4159,1.4159,1.4159,1.4159,1.4159,1.4117,1.3948,1.3833,1.3664,1.3302,1.3091,1.2922,1.2741,1.285,1.297,1.297,1.2825,1.2765,1.2946,1.297,1.297,1.297,1.3121,1.3224,1.3224,1.3224,1.3224,1.3224,1.3224,1.3151,1.2988,1.297,1.2892,1.2711,1.2881,1.3009,1.3094,1.3228,1.3349,1.3483,1.3568,1.3737,1.3955,1.4046,1.4088,1.2479,1.294,1.322,1.3908,1.4113,1.4329,1.4723,1.4663,1.4522,1.4522,1.4362,1.4202,1.4108,1.4249,1.4409,1.4502,1.4689,1.4976,1.5377,1.5795,1.6196,1.6577,1.6955,1.7172,1.7172,1.7069,1.7004,1.7004,1.687,1.6764,1.665,1.632,1.5987,1.5629,1.5489,1.5159,1.4687,1.4441,1.3956,1.3221,1.3221,1.3071,1.2678,1.2387,1.2047,1.1707,1.2096,1.2436,1.278,1.3854,1.4777,1.5493,1.522,1.4933,1.4688,1.4394,1.4298,1.4298,1.4298,1.4298,1.4298,1.4298,1.4298,1.4298,1.4298,1.4298,1.4298,1.4298,1.4298,1.4298,1.4298,1.4298,1.4256,1.4081,1.3972,1.3857,1.3682,1.3441,1.32,1.3012,1.3127,1.3209,1.3209,1.3097,1.3043,1.323,1.3209,1.3209,1.3209,1.3405,1.3513,1.3513,1.3513,1.3513,1.3513,1.3513,1.3405,1.3139,1.3083,1.3,1.2717,1.2966,1.3137,1.3185,1.3398,1.361,1.3828,1.3737,1.3828,1.4088,1.4088,1.4088,0.0,0.0,0.0,1.312,1.3367,1.3726,1.4362,1.4489,1.4489,1.4472,1.4466,1.4422,1.4148,1.4102,1.4188,1.4462,1.4502,1.4778,1.5557,1.5651,1.5986,1.6746,1.6881,1.6888,1.6888,1.6602,1.6411,1.6411,1.6096,1.593,1.6013,1.5976,1.5747,1.5315,1.5367,1.5391,1.5398,1.4687,1.4346,1.4346,1.4346,1.3806,1.2823,1.3854,1.3709,1.2829,1.3854,1.3709,1.2829,1.3902,1.4825,1.5493,1.522,1.4939,1.4694,1.4394,1.4298,1.4298,1.4298,1.4298,1.4298,1.4298,1.4298,1.4298,1.4298,1.4298,1.4298,1.4298,1.4298,1.4298,1.4298,1.4298,1.4298,1.4298,1.4099,1.3918,1.3918,1.3719,1.3538,1.3519,1.3519,1.3525,1.3525,1.3519,1.3519,1.3525,1.3525,1.3525,1.3525,1.3538,1.3538,1.3538,1.3538,1.3538,1.3538,1.3538,1.3429,1.3119,1.3145,1.3019,1.2729,1.2979,1.3234,1.3398,1.361,1.3828,1.4088,1.3828,1.3864,1.4088,1.4088,1.4088,1.2134,0.0,0.0,0.0,0.0,0.0,1.3706,1.368,1.3754,1.4389,1.4355,1.4249,1.4376,1.4402,1.4355,1.4229,1.4208,1.4278,1.453,1.4893,1.5182,1.5441,1.5924,1.6246,1.6246,1.6337,1.6411,1.6411,1.6287,1.6279,1.6279,1.5762,1.5292,1.5007,1.5071,1.5184,1.5391,1.5402,1.5397,1.5397,1.5397,1.5248,1.4908,1.4484,1.4148,1.3854,1.4148,1.4148,1.3956,1.4962,1.554,1.5689,1.5499,1.522,1.4939,1.4688,1.4496,1.4298,1.4298,1.4298,1.4298,1.4298,1.4298,1.4298,1.4298,1.4298,1.4298,1.4298,1.4298,1.4298,1.4298,1.4298,1.4298,1.4298,1.4244,1.4189,1.4189,1.4129,1.3966,1.3592,1.367,1.3797,1.3797,1.364,1.358,1.3767,1.3797,1.3797,1.3797,1.3966,1.4081,1.4081,1.4081,1.4081,1.4081,1.4081,1.3966,1.3707,1.3878,1.3755,1.3318,1.3697,1.3823,1.361,1.387,1.4046,1.4088,1.4046,1.4046,1.4088,1.4088,1.4088,1.2104,1.2204,1.2371,1.271,0.0,0.0,1.344,1.3473,1.3567,1.4208,1.4302,1.4282,1.4329,1.4436,1.4429,1.4135,1.4188,1.4264,1.4222,1.447,1.4749,1.5009,1.5407,1.5695,1.5834,1.5958,1.6031,1.5987,1.5979,1.5979,1.5979,1.5362,1.4928,1.4807,1.4798,1.4856,1.503,1.5324,1.5531,1.5651,1.5651,1.5712,1.5784,1.5207,1.4921,1.4921,1.4921,1.4921,1.4968,1.554,1.5784,1.5784,1.5588,1.5356,1.5083,1.479,1.4544,1.4298,1.4298,1.4298,1.4298,1.4298,1.4298,1.4298,1.4298,1.4298,1.4298,1.4298,1.4298,1.4298,1.4298,1.4298,1.4298,1.4298,1.4298,1.4298,1.4298,1.4298,1.4208,1.39,1.3966,1.4069,1.4069,1.3942,1.3894,1.4045,1.4069,1.4069,1.4069,1.4201,1.4298,1.4298,1.4298,1.4298,1.4298,1.4298,1.4231,1.4064,1.4192,1.4083,1.3655,1.3993,1.403,1.3701,1.3955,1.4088,1.4088,1.4088,1.4088,1.4088,1.4088,1.4088,1.2013,1.2167,1.2405,1.2677,1.2589,0.0,1.3287,1.348,1.3586,1.3928,1.4195,1.4309,1.4082,1.4275,1.4362,1.4041,1.4289,1.4459,1.4397,1.4356,1.4557,1.5074,1.5124,1.5211,1.5519,1.5533,1.5483,1.5369,1.5389,1.5389,1.5389,1.495,1.4692,1.4692,1.4577,1.4522,1.4522,1.485,1.5137,1.5398,1.5431,1.5578,1.5784,1.5784,1.5784,1.5784,1.5784,1.5784,1.5784,1.5784,1.5784,1.5784,1.5588,1.5356,1.5131,1.4838,1.4592,1.4346,1.4298,1.4298,1.4298,1.4298,1.4298,1.4298,1.4298,1.4298,1.4298,1.4298,1.4298,1.4298,1.4298,1.4298,1.4298,1.4298,1.4298,1.4298,1.4298,1.4298,1.4298,1.4298,1.4298,1.4298,1.4298,1.4298,1.4298,1.4298,1.4298,1.4298,1.4298,1.4298,1.4298,1.4298,1.4298,1.4298,1.4298,1.4298,1.4297,1.4347,1.4381,1.4224,1.3919,1.4169,1.4106,1.3743,1.3997,1.4088,1.4088,1.4088,1.4088,1.4088,1.4088,1.4088,1.2171,1.2469,1.2656,1.2438,1.2712,0.0,1.2639,1.2746,1.3045,1.332,1.3427,1.352,1.3653,1.3968,1.4001,1.3467,1.4021,1.4416,1.4206,1.4166,1.4273,1.4613,1.4595,1.4675,1.503,1.512,1.5196,1.518,1.5305,1.5389,1.5389,1.495,1.4692,1.4692,1.4577,1.4522,1.4522,1.505,1.5337,1.5398,1.5631,1.5724,1.5784,1.5784,1.5784,1.5784,1.5784,1.5784,1.5784,1.5784,1.5784,1.5784,1.5778,1.5594,1.5404,1.5124,1.4838,1.4592,1.4394,1.4298,1.4298,1.4298,1.4298,1.4298,1.4298,1.4298,1.4298,1.4298,1.4298,1.4298,1.4298,1.4298,1.4298,1.4298,1.4298,1.4298,1.4298,1.4298,1.4298,1.4298,1.4298,1.4298,1.4298,1.4298,1.4298,1.4298,1.4298,1.4298,1.4298,1.4298,1.4298,1.4298,1.4298,1.4298,1.4298,1.4298,1.437,1.4613,1.481,1.4793,1.4443,1.4691,1.4579,1.401,1.4088,1.4088,1.4088,1.4088,1.4088,1.4088,1.4088,1.4088,1.2161,1.2335,1.2563,1.2563,1.2639,0.0,0.0,1.279,1.2878,1.3146,1.3213,1.3253,1.336,1.3667,1.3768,1.3433,1.3999,1.4422,1.4128,1.4215,1.4416,1.4703,1.4562,1.457,1.4863,1.5034,1.517,1.5229,1.5347,1.5389,1.5389,1.5082,1.4915,1.4915,1.4598,1.446,1.446,1.478,1.503,1.5184,1.5478,1.5691,1.5784,1.5784,1.5784,1.5784,1.5784,1.5784,1.5784,1.5784,1.5784,1.5784,1.5784,1.5683,1.5493,1.5356,1.5124,1.4838,1.4592,1.4592,1.4694,1.4544,1.4496,1.4496,1.4496,1.4394,1.4298,1.4298,1.4298,1.4298,1.4298,1.4298,1.4298,1.4298,1.4298,1.4298,1.4298,1.4298,1.4298,1.4298,1.4298,1.4298,1.4298,1.4298,1.4298,1.4298,1.4298,1.4298,1.4298,1.4298,1.4298,1.4298,1.4298,1.4346,1.449,1.4496,1.4682,1.507,1.5213,1.515,1.4804,1.4918,1.4733,1.4095,1.4088,1.4088,1.4088,1.4088,1.4088,1.4088,1.4088,1.4088,1.2295,1.2338,1.2592,1.2757,1.269,1.2645,0.0,0.0,0.0,1.2999,1.3039,1.3039,1.3039,1.3273,1.3413,1.3353,1.3933,1.4335,1.4041,1.4255,1.4569,1.4968,1.4703,1.4586,1.4872,1.5023,1.5205,1.5407,1.5418,1.5418,1.5476,1.5251,1.509,1.509,1.4657,1.4398,1.4398,1.4448,1.4669,1.5015,1.5257,1.5545,1.5784,1.5784,1.5784,1.5784,1.5784,1.5784,1.5784,1.5784,1.5784,1.5784,1.5784,1.5683,1.554,1.5493,1.5356,1.5124,1.4885,1.4939,1.5083,1.4838,1.479,1.479,1.479,1.464,1.4442,1.4394,1.4394,1.4394,1.4298,1.4298,1.4298,1.4298,1.4298,1.4298,1.4298,1.4298,1.4298,1.4298,1.4298,1.4298,1.4298,1.4298,1.4298,1.4298,1.4298,1.4298,1.4298,1.4298,1.4298,1.4298,1.4298,1.4394,1.4592,1.464,1.4831,1.5404,1.5404,1.5291,1.499,1.4901,1.462,1.4095,1.4088,1.4088,1.4088,1.4088,1.4088,1.4088,1.4088,1.4088,1.308,1.3234,1.3367,1.2911,1.312,1.326,1.2572,0.0,1.2717,1.2452,0.0,1.2405,1.2405,0.0,0.0,1.2498,1.34,1.4035,1.3693,1.3948,1.4342,1.4941,1.4703,1.4623,1.4979,1.4861,1.4979,1.5533,1.5465,1.5513,1.5848,1.5374,1.509,1.509,1.4657,1.4398,1.4398,1.4448,1.4669,1.5015,1.5257,1.5545,1.5784,1.5784,1.5784,1.5784,1.5784,1.5784,1.5784,1.5784,1.5784,1.5784,1.5784,1.5778,1.573,1.5588,1.5493,1.5404,1.5124,1.5083,1.5083,1.5083,1.5035,1.5035,1.5035,1.5035,1.4939,1.4736,1.464,1.4592,1.4346,1.4298,1.4298,1.4298,1.4298,1.4298,1.4298,1.4298,1.4298,1.4298,1.4298,1.4298,1.4298,1.4298,1.4298,1.4298,1.4298,1.4298,1.4298,1.4298,1.4298,1.4298,1.4298,1.4298,1.4346,1.4346,1.4592,1.5131,1.5131,1.511,1.4983,1.4506,1.4155,1.4088,1.4088,1.4088,1.4088,1.4088,1.4088,1.4088,1.4088,1.4088,1.326,1.326,1.3327,1.308,1.3066,1.3026,1.2683,1.2563,1.2452,1.2325,0.0,0.0,0.0,0.0,0.0,0.0,1.3133,1.3534,1.3407,1.3606,1.4108,1.4914,1.4402,1.4238,1.4889,1.4952,1.5176,1.5579,1.5669,1.5682,1.5684,1.5611,1.5494,1.5264,1.4824,1.4566,1.4566,1.4534,1.4669,1.5015,1.5257,1.5545,1.5784,1.5784,1.5784,1.5784,1.5784,1.5784,1.5784,1.5784,1.5784,1.5784,1.5784,1.5784,1.5778,1.573,1.5683,1.5642,1.5404,1.541,1.5499,1.5356,1.5309,1.5315,1.5131,1.5083,1.5035,1.479,1.4688,1.464,1.4394,1.4298,1.4298,1.4298,1.4298,1.4298,1.4298,1.4298,1.4298,1.4298,1.4298,1.4298,1.4298,1.4298,1.4298,1.4298,1.4298,1.4298,1.4298,1.4298,1.4298,1.4298,1.4298,1.4346,1.4544,1.4544,1.4688,1.5083,1.4912,1.4852,1.497,1.4439,1.4088,1.4088,1.4088,1.4088,1.4088,1.4088,1.4088,1.4088,1.4088,1.4088,1.3507,1.3454,1.3414,1.3253,1.3039,1.2871,1.2703,1.2556,1.2425,1.2425,1.2492,0.0,0.0,0.0,0.0,0.0,0.0,1.318,1.3093,1.3267,1.3701,1.4509,1.4108,1.401,1.4742,1.496,1.5187,1.5489,1.569,1.5763,1.5667,1.5742,1.5676,1.5436,1.4951,1.4692,1.4692,1.4584,1.4669,1.5015,1.5257,1.5545,1.5784,1.5784,1.5784,1.5784,1.5784,1.5784,1.5784,1.5784,1.5784,1.5784,1.5784,1.5784,1.5784,1.5784,1.5784,1.5784,1.5635,1.5683,1.5784,1.5635,1.5588,1.5547,1.5363,1.5267,1.522,1.4975,1.4927,1.4831,1.4496,1.4394,1.4394,1.4298,1.4298,1.4298,1.4298,1.4298,1.4298,1.4298,1.4298,1.4298,1.4298,1.4298,1.4298,1.4298,1.4298,1.4298,1.4298,1.4298,1.4298,1.4298,1.4298,1.4394,1.4592,1.464,1.4838,1.5172,1.4942,1.4856,1.5008,1.4476,1.4168,1.4088,1.4088,1.4088,1.4088,1.4088,1.4088,1.4088,1.4088,1.4088,1.4062,1.4055,1.3921,1.3353,1.32,1.3039,1.2452,1.2569,1.277,1.277,1.2973,1.318,1.318,0.0,0.0,0.0,0.0,0.0,0.0,1.2804,1.3038,1.3573,1.3915,1.4195,1.4489,1.4632,1.4872,1.5291,1.5421,1.5688,1.6057,1.5708,1.5505,1.5497,1.4979,1.4692,1.4692,1.4584,1.4669,1.5015,1.5257,1.5545,1.5784,1.5784,1.5784,1.5784,1.5784,1.5784,1.5784,1.5784,1.5784,1.5784,1.5784,1.5784,1.5784,1.5784,1.5784,1.5784,1.5778,1.5778,1.5784,1.5778,1.5778,1.5778,1.5784,1.5784,1.573,1.554,1.5493,1.535,1.4831,1.4688,1.464,1.4346,1.4298,1.4298,1.4298,1.4298,1.4298,1.4298,1.4298,1.4298,1.4298,1.4298,1.4298,1.4298,1.4298,1.4298,1.4298,1.4298,1.4298,1.4298,1.4298,1.4298,1.4298,1.4544,1.4927,1.5445,1.5405,1.5257,1.5022,1.4669,1.4376,1.4095,1.4088,1.4088,1.4088,1.4088,1.4088,1.4088,1.4088,1.4088,1.4088,1.4088,1.3995,1.3553,1.3313,1.31,1.2723,1.271,1.2784,1.2784,1.2993,1.3213,1.3213,0.0,0.0,0.0,0.0,0.0,0.0,1.2616,1.2636,1.3038,1.3661,1.3975,1.3681,1.4341,1.4927,1.5102,1.5246,1.5476,1.5824,1.5697,1.5595,1.5512,1.5069,1.4787,1.4699,1.4584,1.4669,1.5015,1.5257,1.5545,1.5784,1.5784,1.5784,1.5784,1.5784,1.5784,1.5784,1.5784,1.5784,1.5784,1.5784,1.5784,1.5784,1.5784,1.5784,1.5784,1.5784,1.5784,1.5784,1.5784,1.5784,1.5784,1.5784,1.5784,1.5778,1.554,1.5493,1.5404,1.5077,1.4981,1.4933,1.4838,1.4838,1.479,1.4592,1.4544,1.4496,1.4346,1.4298,1.4298,1.4298,1.4298,1.4298,1.4298,1.4298,1.4298,1.4298,1.4298,1.4298,1.4298,1.4298,1.4298,1.4298,1.4544,1.4927,1.5493,1.5271,1.516,1.5257,1.497,1.4676,1.4382,1.4369,1.4282,1.4088,1.4088,1.4088,1.4088,1.4088,1.4088,1.4088,1.4088,1.4015,1.3673,1.346,1.328,1.2979,1.3032,1.3066,1.3066,1.3307,1.352,1.352,1.352,0.0,0.0,0.0,0.0,0.0,1.2425,1.2371,1.2603,1.3233,1.3547,1.334,1.3987,1.4518,1.4814,1.4973,1.5262,1.5594,1.5569,1.5536,1.5421,1.4952,1.4695,1.4608,1.4642,1.4776,1.5015,1.5364,1.5651,1.5784,1.5784,1.5784,1.5784,1.5784,1.5784,1.5784,1.5784,1.5784,1.5784,1.5784,1.5784,1.5784,1.5784,1.5784,1.5784,1.5784,1.5784,1.5784,1.5784,1.5784,1.5784,1.5784,1.5784,1.5784,1.5635,1.5588,1.5547,1.5315,1.522,1.522,1.5131,1.5083,1.5035,1.4885,1.479,1.4694,1.4592,1.4442,1.4346,1.4442,1.4346,1.4298,1.4298,1.4298,1.4298,1.4298,1.4298,1.4298,1.4298,1.4298,1.4394,1.4592,1.4831,1.5166,1.5588,1.541,1.5312,1.5398,1.5217,1.4977,1.4683,1.4676,1.4536,1.4242,1.4242,1.4188,1.4088,1.4088,1.4088]}]]